Date StartTime U_cm/s V_cm/s W_cm/s Ustd_cm/s Vstd_cm/s Wstd_cm/s Uvar_(cm/s)^2 Vvar_(cm/s)^2 Wvar_(cm/s)^2 KE_(m/s)^2 TurbulentKE_(m/s)^2 HorizWindSpeed_cm/s FrictionSpeec_cm/s DragCoef SpeedOfSound_m/s SonicTemperature_C Pressure_mb 
01/04/2014  00:00:00      -50.135      -58.470        2.836       60.861       30.661       24.194     3704.047      940.088      585.365        0.558        0.261       77.021       20.661        0.072      334.980        5.310      860.540
01/04/2014  00:01:00      -68.499      -82.660       -2.176       44.269       37.785       18.918     1959.735     1427.736      357.883        0.764        0.187      107.353       17.081        0.025      335.228        5.721      860.518
01/04/2014  00:02:00      -23.449      -33.504        9.290       40.901       25.652       23.407     1672.928      658.002      547.882        0.232        0.144       40.894       22.605        0.306      335.203        5.680      860.541
01/04/2014  00:03:00     -151.910       21.975       -4.907       42.832       38.721       16.131     1834.587     1499.292      260.201        1.359        0.180      153.491       10.845        0.005      335.231        5.728      860.595
01/04/2014  00:04:00     -103.623      -13.764       -6.858       51.834       41.114       18.299     2686.790     1690.402      334.841        0.784        0.236      104.533       22.299        0.046      334.985        5.319      860.638
01/04/2014  00:05:00      -59.533      -25.865        9.017       61.827       28.771       19.663     3822.575      827.769      386.633        0.466        0.252       64.909       24.120        0.138      335.104        5.517      860.667
01/04/2014  00:06:00      -74.851      -17.148       -1.622       40.425       30.695       18.034     1634.205      942.201      325.239        0.440        0.145       76.790       18.016        0.055      334.926        5.221      860.718
01/04/2014  00:07:00      -49.978      -44.514       -2.084       29.420       29.981       19.743      865.564      898.878      389.794        0.332        0.108       66.927       13.672        0.042      335.250        5.761      860.722
01/04/2014  00:08:00      -51.730       18.141       -3.917       15.833       22.453       11.991      250.673      504.127      143.775        0.196        0.045       54.819        9.536        0.030      335.145        5.587      860.719
01/04/2014  00:09:00      -61.341       -3.586       -8.456       19.547        9.519        8.394      382.079       90.610       70.456        0.220        0.027       61.446        9.823        0.026      335.277        5.803      860.698
01/04/2014  00:10:00      -93.224      -25.800      -11.330       10.798       14.286        8.793      116.601      204.090       77.318        0.494        0.020       96.729        6.282        0.004      335.390        5.991      860.712
01/04/2014  00:11:00      -82.895      -46.600       -9.067       12.435       14.686       10.125      154.623      215.669      102.518        0.480        0.024       95.095        8.125        0.007      335.500        6.175      860.714
01/04/2014  00:12:00     -102.153      -28.020       -5.315       16.377       10.065       10.617      268.212      101.312      112.716        0.587        0.024      105.927        9.193        0.008      335.181        5.645      860.722
01/04/2014  00:13:00      -75.696      -16.803       -4.099       14.096       14.140       10.522      198.684      199.932      110.709        0.327        0.025       77.538        8.073        0.011      335.603        6.347      860.723
01/04/2014  00:14:00      -69.067      -46.189       -7.499       26.885       20.298       10.902      722.804      412.008      118.843        0.411        0.063       83.088       10.969        0.017      335.559        6.272      860.703
01/04/2014  00:15:00      -21.037      -75.452        1.648       19.556       38.780       10.907      382.437     1503.880      118.957        0.407        0.100       78.330        6.653        0.007      335.724        6.549      860.665
01/04/2014  00:16:00      -84.336     -138.439      -13.054       33.751       31.577       16.166     1139.120      997.125      261.352        1.442        0.120      162.105       14.567        0.008      335.916        6.867      860.640
01/04/2014  00:17:00      -59.891      -35.011        7.827       51.740       34.169       20.591     2676.985     1167.494      424.008        0.457        0.213       69.373       18.426        0.071      335.750        6.591      860.665
01/04/2014  00:18:00      -53.747       -1.620        3.746       45.552       30.055       20.128     2074.951      903.274      405.150        0.314        0.169       53.771       22.702        0.178      335.512        6.195      860.695
01/04/2014  00:19:00      -64.371       19.007       -4.849       35.806       19.072       16.396     1282.090      363.743      268.813        0.322        0.096       67.119       14.217        0.045      335.247        5.753      860.723
01/04/2014  00:20:00      -23.446      -56.028       -2.485       29.928       25.814       10.579      895.686      666.348      111.905        0.268        0.084       60.736       12.601        0.043      335.683        6.482      860.711
01/04/2014  00:21:00       46.560      -81.522       -4.611       53.523       37.266       21.182     2864.705     1388.756      448.666        0.677        0.235       93.882       21.496        0.052      335.320        5.876      860.682
01/04/2014  00:22:00       80.200     -146.543      -22.314       88.068       57.713       36.778     7756.045     3330.744     1352.630        2.042        0.622      167.054       31.593        0.036      335.608        6.353      860.640
01/04/2014  00:23:00     -109.360     -101.983       -6.875       72.305       47.422       22.585     5228.068     2248.810      510.069        1.520        0.399      149.533       24.163        0.026      335.760        6.608      860.697
01/04/2014  00:24:00       32.053      -13.935       30.639       38.128       73.644       33.137     1453.712     5423.512     1098.050        0.507        0.399       34.951       16.518        0.223      335.465        6.117      860.741
01/04/2014  00:25:00       41.821       43.614       -1.367       29.011       46.081       24.783      841.642     2123.473      614.177        0.362        0.179       60.425       22.953        0.144      334.699        4.843      860.750
01/04/2014  00:26:00       81.391       38.460        7.809       32.131       38.635       19.978     1032.420     1492.668      399.126        0.554        0.146       90.021       15.265        0.029      334.857        5.106      860.772
01/04/2014  00:27:00       78.628       67.512        4.763       37.021       38.738       26.485     1370.524     1500.637      701.455        0.717        0.179      103.635       21.889        0.045      335.436        6.068      860.790
01/04/2014  00:28:00      106.839       68.766        0.615       69.214       41.436       27.183     4790.573     1716.928      738.922        1.169        0.362      127.056       22.944        0.033      335.377        5.970      860.793
01/04/2014  00:29:00      138.259      -74.613       16.639       63.308      132.758       79.364     4007.939    17624.667     6298.666        2.644        1.397      157.108       92.268        0.345      335.833        6.728      860.706
01/04/2014  00:30:00      100.593     -163.409      -45.459       70.668       77.635       41.492     4994.023     6027.265     1721.599        2.581        0.637      191.889       38.126        0.039      335.790        6.655      860.627
01/04/2014  00:31:00       53.118      -67.413       -4.331       46.281       62.697       22.686     2141.895     3930.941      514.639        0.698        0.329       85.826       20.432        0.057      335.591        6.327      860.687
01/04/2014  00:32:00       28.498      101.648       -9.731       30.400       59.948       32.682      924.131     3593.810     1068.110        0.841        0.279      105.568       38.250        0.131      335.363        5.947      860.721
01/04/2014  00:33:00       29.124       67.047        4.926       36.181       57.415       37.896     1309.057     3296.501     1436.087        0.570        0.302       73.099       29.267        0.160      334.816        5.038      860.718
01/04/2014  00:34:00       -0.690        5.073       -7.901       37.102       36.643       20.121     1376.587     1342.700      404.875        0.161        0.156        5.120       19.250       14.136      334.805        5.019      860.742
01/04/2014  00:35:00      -33.761       -3.069      -12.566       15.209       13.561        9.257      231.326      183.907       85.697        0.090        0.025       33.900        4.837        0.020      334.694        4.837      860.754
01/04/2014  00:36:00      -36.190      -34.035       -7.762       27.814        8.645        6.810      773.618       74.732       46.381        0.171        0.045       49.680        8.816        0.031      335.099        5.508      860.741
01/04/2014  00:37:00       23.365      -22.417        1.634       44.561       34.059       16.488     1985.711     1160.024      271.866        0.223        0.171       32.380       17.136        0.280      335.221        5.712      860.724
01/04/2014  00:38:00       17.961      -10.695       25.939       34.391       39.396       28.228     1182.740     1552.051      796.803        0.232        0.177       20.905       29.489        1.990      335.132        5.563      860.718
01/04/2014  00:39:00        8.362       -9.835       61.409       34.219       75.335       45.050     1170.929     5675.400     2029.470        0.640        0.444       12.910       47.306       13.428      334.865        5.120      860.674
01/04/2014  00:40:00      -24.703      -44.338        1.791       64.488       57.005       28.910     4158.646     3249.610      835.811        0.541        0.412       50.755       30.443        0.360      334.964        5.285      860.679
01/04/2014  00:41:00      -71.862       46.173      -14.127       37.363       34.418       17.515     1396.026     1184.599      306.788        0.519        0.144       85.417       15.605        0.033      335.033        5.398      860.693
01/04/2014  00:42:00       24.056       33.213       -6.235       33.578       34.651       19.382     1127.465     1200.693      375.657        0.221        0.135       41.010       16.387        0.160      335.355        5.932      860.667
01/04/2014  00:43:00        8.645       10.012      -16.193       25.737       24.795       14.642      662.376      614.798      214.376        0.096        0.075       13.228       13.874        1.100      334.637        4.740      860.662
01/04/2014  00:44:00      -10.783       30.031       -3.773        7.421        8.877        6.442       55.075       78.809       41.500        0.060        0.009       31.908        4.155        0.017      334.751        4.931      860.683
01/04/2014  00:45:00       33.499       45.080       10.922       29.109       12.459       20.859      847.317      155.219      435.106        0.236        0.072       56.164       18.112        0.104      334.816        5.038      860.706
01/04/2014  00:46:00        2.599       21.887       21.571        9.551        9.530        8.461       91.214       90.820       71.591        0.060        0.013       22.041        5.024        0.052      334.751        4.930      860.726
01/04/2014  00:47:00       19.992       30.836       21.988       18.220        8.035       11.197      331.971       64.562      125.365        0.118        0.026       36.750       10.302        0.079      334.757        4.940      860.749
01/04/2014  00:48:00       33.169       23.209        4.489        8.951       16.710       11.347       80.112      279.218      128.756        0.107        0.024       40.483        9.407        0.054      334.787        4.992      860.767
01/04/2014  00:49:00      -14.499      -21.806       -1.095       14.281       10.273        6.109      203.942      105.534       37.321        0.052        0.017       26.187        5.180        0.039      334.644        4.752      860.770
01/04/2014  00:50:00      -10.027      -25.177        6.444       21.539        9.166       13.858      463.934       84.009      192.050        0.076        0.037       27.100        6.568        0.059      334.462        4.451      860.734
01/04/2014  00:51:00      -44.187      -58.857        1.079       27.670       27.784       20.659      765.625      771.929      426.784        0.369        0.098       73.598       15.539        0.045      334.464        4.454      860.686
01/04/2014  00:52:00      -16.070      -27.615        2.479       15.445       11.680        9.562      238.554      136.431       91.424        0.075        0.023       31.951        6.342        0.039      334.529        4.559      860.652
01/04/2014  00:53:00      -81.543      -52.726        3.870       20.683       18.774       13.102      427.784      352.466      171.649        0.520        0.048       97.105        7.255        0.006      334.520        4.547      860.634
01/04/2014  00:54:00      -51.184      -52.038       -0.255       40.314       24.457       18.002     1625.235      598.134      324.065        0.394        0.127       72.992       17.100        0.055      334.544        4.587      860.641
01/04/2014  00:55:00        0.956      -18.062       -0.062       46.021       27.284       14.709     2117.946      744.397      216.350        0.170        0.154       18.087        8.403        0.216      334.591        4.664      860.628
01/04/2014  00:56:00        1.957       22.734       26.754       20.801       19.560       21.969      432.673      382.581      482.645        0.127        0.065       22.818       20.796        0.831      334.563        4.619      860.618
01/04/2014  00:57:00      -26.117       18.151       23.955       18.995       16.972       23.973      360.792      288.040      574.700        0.140        0.061       31.805       19.152        0.363      334.551        4.598      860.628
01/04/2014  00:58:00      -36.947        8.370        2.916       17.179       19.995       15.426      295.112      399.806      237.976        0.119        0.047       37.883       12.085        0.102      334.433        4.403      860.647
01/04/2014  00:59:00      -44.220       -5.215       -4.706       22.161       10.456        8.969      491.105      109.318       80.451        0.134        0.034       44.526       10.152        0.052      334.331        4.233      860.649
01/04/2014  01:00:00      -73.653        0.901       -9.958       19.468       18.529       11.618      379.022      343.324      134.985        0.319        0.043       73.658       11.046        0.022      334.273        4.138      860.647
01/04/2014  01:01:00      -39.491       21.100       -3.155       20.298       15.015       10.011      412.010      225.442      100.217        0.138        0.037       44.774        8.812        0.039      334.151        3.936      860.645
01/04/2014  01:02:00      -80.346       -9.516       -9.190       25.400       23.296       15.188      645.141      542.705      230.662        0.402        0.071       80.908       11.644        0.021      334.244        4.088      860.648
01/04/2014  01:03:00      -69.131      -27.125       -3.970       43.674       13.590       12.497     1907.409      184.688      156.173        0.389        0.112       74.262       17.465        0.055      334.177        3.979      860.653
01/04/2014  01:04:00       -3.326      -38.505        4.166       12.466       11.957        9.387      155.409      142.979       88.118        0.095        0.019       38.648        6.757        0.031      334.354        4.272      860.638
01/04/2014  01:05:00      -49.114      -32.899        5.436       31.879       30.469       12.560     1016.283      928.335      157.742        0.281        0.105       59.114       12.917        0.048      334.487        4.492      860.622
01/04/2014  01:06:00     -124.370      -48.199        0.767       33.087       20.875       16.471     1094.727      435.757      271.279        0.980        0.090      133.383        6.965        0.003      334.239        4.079      860.606
01/04/2014  01:07:00     -134.360      -12.357       -7.008       52.896       41.118       29.630     2797.979     1690.716      877.917        1.181        0.268      134.927       29.819        0.049      333.841        3.419      860.596
01/04/2014  01:08:00     -110.947       27.401      -10.669       53.278       32.150       21.621     2838.535     1033.596      467.456        0.876        0.217      114.280       18.998        0.028      333.700        3.185      860.566
01/04/2014  01:09:00     -107.434      -10.978       -5.942       40.863       32.352       20.243     1669.804     1046.670      409.774        0.741        0.156      107.993       22.639        0.044      333.818        3.383      860.534
01/04/2014  01:10:00     -149.416      -38.031       -8.844       40.031       29.529       22.323     1602.471      871.973      498.327        1.341        0.149      154.180       22.442        0.021      333.877        3.479      860.522
01/04/2014  01:11:00     -155.530      -71.269       -6.318       29.421       34.287       22.386      865.613     1175.625      501.111        1.593        0.127      171.082       15.164        0.008      333.904        3.524      860.506
01/04/2014  01:12:00     -169.819      -39.731      -12.454       32.199       32.193       19.391     1036.797     1036.381      376.018        1.651        0.122      174.405       16.753        0.009      334.124        3.888      860.497
01/04/2014  01:13:00     -168.029      -64.294      -11.780       29.043       29.361       15.811      843.478      862.048      249.986        1.723        0.098      179.910       11.616        0.004      334.085        3.825      860.490
01/04/2014  01:14:00     -182.143      -27.409      -12.501       36.630       30.547       24.384     1341.727      933.133      594.569        1.848        0.143      184.193       16.529        0.008      334.055        3.773      860.503
01/04/2014  01:15:00      -85.636       11.649        8.279       60.686       43.086       33.263     3682.813     1856.422     1106.441        0.709        0.332       86.425       32.869        0.145      334.052        3.769      860.535
01/04/2014  01:16:00     -129.944      -19.215       -8.517       36.861       50.979       23.564     1358.742     2598.830      555.270        1.092        0.226      131.357       20.925        0.025      334.154        3.940      860.569
01/04/2014  01:17:00     -125.490      -37.637      -11.058       32.898       51.477       22.098     1082.247     2649.841      488.314        1.075        0.211      131.013       13.797        0.011      334.085        3.825      860.596
01/04/2014  01:18:00     -124.804       -5.474      -12.256       33.138       29.641       21.208     1098.104      878.583      449.760        0.909        0.121      124.924       14.862        0.014      334.271        4.134      860.600
01/04/2014  01:19:00     -128.605        1.169      -15.118       29.937       41.965       20.569      896.216     1761.028      423.074        0.992        0.154      128.610       13.064        0.010      334.144        3.921      860.613
01/04/2014  01:20:00     -104.547      -23.623      -11.035       32.631       49.227       20.828     1064.808     2423.298      433.818        0.777        0.196      107.183        8.313        0.006      333.917        3.547      860.633
01/04/2014  01:21:00     -132.415      -52.485       -5.086       37.993       42.782       27.128     1443.487     1830.341      735.911        1.216        0.200      142.437       20.984        0.022      333.783        3.323      860.631
01/04/2014  01:22:00     -106.808      -15.934        0.059       44.844       36.398       21.949     2010.940     1324.801      481.748        0.774        0.191      107.990       24.424        0.051      333.964        3.624      860.619
01/04/2014  01:23:00      -96.387       -7.135       -7.437       30.095       23.113       17.808      905.720      534.214      317.135        0.558        0.088       96.651       17.967        0.035      333.931        3.570      860.609
01/04/2014  01:24:00      -81.342       10.948       -0.366       39.685       23.053       18.455     1574.936      531.425      340.588        0.459        0.122       82.075       16.864        0.042      333.992        3.672      860.628
01/04/2014  01:25:00      -60.723       22.394       -4.364       34.732       25.683       24.492     1206.343      659.615      599.877        0.334        0.123       64.720        6.496        0.010      334.160        3.949      860.663
01/04/2014  01:26:00      -11.177       22.239       -5.447       19.516       25.337       17.100      380.871      641.939      292.414        0.098        0.066       24.890       15.348        0.380      334.276        4.141      860.693
01/04/2014  01:27:00        4.420       -3.930        4.439        8.438        8.220       12.862       71.200       67.569      165.419        0.018        0.015        5.915        5.649        0.912      334.158        3.946      860.712
01/04/2014  01:28:00      -45.245      -16.144      -11.629       25.910       16.568       10.633      671.350      274.491      113.067        0.175        0.053       48.039        7.134        0.022      334.302        4.186      860.729
01/04/2014  01:29:00      -52.313       13.515       -3.194       12.242       16.528       12.911      149.874      273.186      166.698        0.176        0.029       54.031        8.195        0.023      334.286        4.160      860.757
01/04/2014  01:30:00      -65.387       13.738      -14.544       16.378        8.726        9.039      268.236       76.135       81.705        0.255        0.021       66.815        8.502        0.016      334.243        4.087      860.784
01/04/2014  01:31:00      -79.182        0.780       -7.519       11.959       16.110        9.832      143.023      259.529       96.675        0.341        0.025       79.186        6.018        0.006      333.979        3.650      860.810
01/04/2014  01:32:00      -53.192      -29.463      -11.496       16.556        8.806        7.074      274.114       77.551       50.035        0.212        0.020       60.806        6.751        0.012      333.828        3.398      860.805
01/04/2014  01:33:00      -38.366      -47.672       -8.473       11.515        9.438        7.894      132.592       89.068       62.308        0.205        0.014       61.193        3.797        0.004      333.936        3.580      860.794
01/04/2014  01:34:00      -57.965      -38.338       -3.459       32.723       17.309       12.682     1070.783      299.587      160.830        0.319        0.077       69.497       16.219        0.054      333.954        3.608      860.778
01/04/2014  01:35:00      -94.170       -4.330      -13.258       20.421       12.992       13.201      417.009      168.785      174.278        0.491        0.038       94.270       11.052        0.014      333.673        3.141      860.787
01/04/2014  01:36:00     -103.961       -5.963      -11.793       31.473       14.361       14.539      990.530      206.239      211.393        0.620        0.070      104.132       15.994        0.024      333.682        3.157      860.806
01/04/2014  01:37:00      -76.886       -6.204       -7.098       28.789       16.490       13.566      828.829      271.934      184.036        0.364        0.064       77.136       15.548        0.041      333.734        3.243      860.823
01/04/2014  01:38:00      -48.923      -24.473        3.000       23.203        9.184       11.153      538.402       84.350      124.389        0.187        0.037       54.703       13.205        0.058      333.854        3.444      860.825
01/04/2014  01:39:00      -40.206        2.095       -0.133       27.708       16.867       11.481      767.727      284.480      131.813        0.140        0.059       40.260       12.168        0.091      333.914        3.543      860.822
01/04/2014  01:40:00     -102.797        8.251      -11.806       17.707       14.147       13.531      313.530      200.142      183.080        0.574        0.035      103.127       10.448        0.010      333.768        3.299      860.818
01/04/2014  01:41:00     -103.626       -0.701      -17.454       25.107       20.404       13.514      630.367      416.317      182.641        0.614        0.061      103.628       14.136        0.019      333.914        3.543      860.805
01/04/2014  01:42:00     -114.788      -16.075      -14.927       17.122       18.384       13.564      293.165      337.983      183.977        0.724        0.041      115.908        8.710        0.006      333.916        3.545      860.791
01/04/2014  01:43:00      -94.938      -54.364       -3.155       27.190       18.200       12.898      739.314      331.244      166.370        0.661        0.062      109.401       15.568        0.020      334.153        3.938      860.793
01/04/2014  01:44:00      -49.918      -53.057       -0.077       20.721       16.046       12.222      429.370      257.474      149.375        0.307        0.042       72.848       11.217        0.024      334.135        3.909      860.801
01/04/2014  01:45:00      -66.732      -29.567      -10.484       17.881       19.781       10.914      319.736      391.303      119.122        0.313        0.042       72.989       10.301        0.020      334.104        3.859      860.809
01/04/2014  01:46:00      -77.247        7.555      -12.927       22.465       16.429       13.384      504.656      269.899      179.135        0.357        0.048       77.615       12.938        0.028      333.787        3.331      860.809
01/04/2014  01:47:00      -74.983      -13.214      -11.158        6.832        9.825        5.141       46.673       96.534       26.432        0.305        0.008       76.139        3.101        0.002      333.768        3.299      860.807
01/04/2014  01:48:00      -89.143      -33.210       -6.452       16.865       18.334       13.117      284.421      336.126      172.044        0.494        0.040       95.129        9.896        0.011      333.601        3.022      860.789
01/04/2014  01:49:00     -128.897      -25.938      -11.360       18.571       18.346       13.058      344.888      336.572      170.504        0.913        0.043      131.481        8.497        0.004      333.423        2.730      860.777
01/04/2014  01:50:00     -115.144      -31.026      -15.163       21.140       16.317        8.545      446.899      266.245       73.022        0.762        0.039      119.251        4.319        0.001      333.656        3.115      860.765
01/04/2014  01:51:00      -92.201      -23.538       -1.042       17.653       15.954       11.824      311.626      254.543      139.796        0.488        0.035       95.158        7.162        0.006      333.457        2.784      860.767
01/04/2014  01:52:00      -73.213      -32.261       -0.096       29.089       16.706       15.702      846.163      279.101      246.564        0.389        0.069       80.006       12.642        0.025      333.394        2.679      860.785
01/04/2014  01:53:00      -81.197      -54.840        2.201       22.919       24.613       14.430      525.290      605.782      208.234        0.547        0.067       97.982       10.502        0.011      333.668        3.134      860.796
01/04/2014  01:54:00      -58.123      -28.479        5.582       32.701       22.914       14.411     1069.336      525.062      207.663        0.301        0.090       64.725       14.042        0.047      333.860        3.451      860.794
01/04/2014  01:55:00      -66.049      -61.388       -0.446       22.907       32.378       18.921      524.715     1048.329      358.001        0.503        0.097       90.172       15.399        0.029      333.848        3.431      860.786
01/04/2014  01:56:00      -58.438      -54.783        0.780       25.542       32.458       14.275      652.406     1053.496      203.773        0.416        0.095       80.101        9.439        0.014      333.742        3.256      860.782
01/04/2014  01:57:00      -70.950      -77.984        2.008       25.846       28.002       18.682      667.992      784.089      349.015        0.646        0.090      105.430       15.534        0.022      333.824        3.392      860.777
01/04/2014  01:58:00      -87.420      -85.769       -3.442       25.406       21.207       12.805      645.445      449.728      163.971        0.813        0.063      122.469       15.035        0.015      333.973        3.640      860.776
01/04/2014  01:59:00     -117.377      -73.934        0.529       28.128       25.220       19.284      791.160      636.027      371.866        1.052        0.090      138.721       18.024        0.017      333.893        3.506      860.790
01/04/2014  02:00:00     -113.804      -51.837       -3.989       23.093       19.868       11.126      533.304      394.755      123.783        0.835        0.053      125.053        9.485        0.006      333.675        3.146      860.807
01/04/2014  02:01:00     -101.711      -27.572       -7.885       18.362       20.953        9.742      337.156      439.014       94.913        0.602        0.044      105.382        7.352        0.005      333.558        2.951      860.836
01/04/2014  02:02:00      -72.966       11.434       -3.111       22.884       12.986       13.096      523.679      168.636      171.513        0.316        0.043       73.856       11.120        0.023      333.561        2.956      860.861
01/04/2014  02:03:00      -45.267       34.307       -3.111       12.665       13.804       10.309      160.390      190.549      106.279        0.185        0.023       56.798        6.282        0.012      333.732        3.238      860.879
01/04/2014  02:04:00      -31.780       27.448       -1.413       13.672       11.708        7.859      186.915      137.082       61.757        0.108        0.019       41.992        6.935        0.027      333.847        3.431      860.908
01/04/2014  02:05:00      -22.184       70.588       -6.158       23.838       23.208       14.445      568.227      538.608      208.645        0.341        0.066       73.992       13.283        0.032      333.956        3.610      860.962
01/04/2014  02:06:00       -0.353      169.056      -34.292       29.228       28.580       13.840      854.260      816.793      191.549        1.581        0.093      169.057        7.951        0.002      333.974        3.640      861.007
01/04/2014  02:07:00      -35.847      110.431      -14.355       21.358       46.195       18.848      456.180     2133.972      355.231        0.832        0.147      116.103       19.128        0.027      334.323        4.220      861.024
01/04/2014  02:08:00      -17.440      -10.848       -1.781       23.130       15.958       11.173      535.006      254.659      124.833        0.067        0.046       20.539       11.244        0.300      334.272        4.136      861.024
01/04/2014  02:09:00      -78.787      -37.425      -13.590       14.171       14.108        8.932      200.823      199.031       79.774        0.414        0.024       87.224        7.153        0.007      333.857        3.448      861.030
01/04/2014  02:10:00      -64.054      -38.055       -6.259        9.373        9.154        5.372       87.853       83.797       28.861        0.290        0.010       74.506        3.551        0.002      333.465        2.796      861.033
01/04/2014  02:11:00      -84.333      -27.803       -9.738        6.537        9.308        4.706       42.729       86.643       22.149        0.407        0.008       88.798        4.999        0.003      333.902        3.522      861.051
01/04/2014  02:12:00      -76.177      -14.165      -13.035       14.566       17.862        9.463      212.155      319.040       89.545        0.340        0.031       77.482       10.442        0.018      333.953        3.606      861.101
01/04/2014  02:13:00      -70.624        7.189      -11.655        9.749       10.103        7.380       95.041      102.074       54.461        0.271        0.013       70.989        4.644        0.004      333.568        2.966      861.149
01/04/2014  02:14:00      -53.358        7.136      -14.874       13.376        4.874        6.484      178.923       23.753       42.047        0.168        0.012       53.833        7.144        0.018      334.061        3.787      861.158
01/04/2014  02:15:00      -40.792        2.871      -10.372        4.016        9.954        3.877       16.130       99.075       15.030        0.095        0.007       40.893        5.155        0.016      334.503        4.520      861.140
01/04/2014  02:16:00      -57.796      -42.876       -4.232       14.076       10.023        6.149      198.126      100.469       37.807        0.277        0.017       71.963        6.379        0.008      333.922        3.555      861.117
01/04/2014  02:17:00      -60.987      -37.060       -6.992       13.843        9.656        8.594      191.623       93.244       73.849        0.275        0.018       71.364        5.624        0.006      333.525        2.895      861.109
01/04/2014  02:18:00      -10.487      -13.185        4.266       22.794       12.949        9.532      519.578      167.676       90.860        0.054        0.039       16.847        9.883        0.344      333.432        2.741      861.111
01/04/2014  02:19:00       59.143       51.231        5.164       15.393       29.651       25.960      236.953      879.176      673.927        0.397        0.090       78.247       16.695        0.046      333.457        2.785      861.121
01/04/2014  02:20:00       79.445       54.544        7.644       51.043       38.320       33.778     2605.342     1468.438     1140.935        0.728        0.261       96.367       14.901        0.024      332.779        1.664      861.141
01/04/2014  02:21:00       22.010       71.149      -12.286       20.605       16.664       12.324      424.586      277.678      151.890        0.328        0.043       74.476        6.021        0.007      333.758        3.283      861.160
01/04/2014  02:22:00      -15.154       35.519      -12.923       15.487       17.857        6.673      239.842      318.867       44.526        0.113        0.030       38.617        6.471        0.028      333.993        3.672      861.172
01/04/2014  02:23:00      -38.959       -8.522       -7.825        6.226        5.755        7.346       38.766       33.119       53.962        0.089        0.006       39.880        4.929        0.015      333.751        3.273      861.168
01/04/2014  02:24:00      -16.707       -2.250       -1.511        6.816        7.285        4.851       46.451       53.076       23.533        0.020        0.006       16.858        2.486        0.022      333.801        3.356      861.175
01/04/2014  02:25:00       39.735       15.563        6.424       18.933       14.087        9.070      358.447      198.445       82.271        0.125        0.032       42.674        4.980        0.014      333.575        2.981      861.172
01/04/2014  02:26:00       55.970       23.386       10.625       17.596       11.143       11.317      309.615      124.173      128.064        0.218        0.028       60.659        8.092        0.018      333.493        2.844      861.162
01/04/2014  02:27:00       25.826       24.914       -1.092       19.256       18.067       11.994      370.800      326.402      143.850        0.106        0.042       35.884        6.324        0.031      333.610        3.038      861.154
01/04/2014  02:28:00       26.957       20.377       -3.911       23.695       17.656       11.441      561.477      311.722      130.889        0.108        0.050       33.792       10.553        0.098      333.934        3.575      861.144
01/04/2014  02:29:00       22.453       -3.929       -0.124       17.191       12.438       10.937      295.522      154.701      119.609        0.054        0.028       22.794        8.293        0.132      333.999        3.682      861.138
01/04/2014  02:30:00       22.700        0.349        5.123       10.705       12.313        8.064      114.587      151.619       65.033        0.044        0.017       22.703        6.308        0.077      334.015        3.710      861.141
01/04/2014  02:31:00       -6.815       -4.275        9.286        6.315        7.231        5.497       39.881       52.282       30.215        0.014        0.006        8.045        4.655        0.335      333.624        3.061      861.158
01/04/2014  02:32:00        8.644       14.751        3.362       19.182       10.782        7.099      367.951      116.252       50.392        0.042        0.027       17.097        4.021        0.055      333.709        3.203      861.192
01/04/2014  02:33:00       18.046       19.582       -0.865       21.107       18.112       12.904      445.519      328.035      166.519        0.082        0.047       26.629        5.924        0.049      334.025        3.726      861.217
01/04/2014  02:34:00        9.365       54.260      -12.699       16.689       29.365       11.568      278.512      862.301      133.811        0.223        0.064       55.062        8.134        0.022      334.082        3.820      861.238
01/04/2014  02:35:00       15.254       69.282      -10.123       16.707       23.329       10.217      279.110      544.260      104.396        0.303        0.046       70.942        9.111        0.016      334.250        4.099      861.239
01/04/2014  02:36:00        0.672       39.262       -6.467       15.391       20.611        7.959      236.893      424.800       63.351        0.115        0.036       39.268        7.190        0.034      334.217        4.044      861.246
01/04/2014  02:37:00      -26.845        1.175       -3.143       23.840       24.896        9.581      568.360      619.796       91.789        0.101        0.064       26.870        9.514        0.125      333.898        3.516      861.253
01/04/2014  02:38:00      -91.446      -17.017      -14.554       15.697        9.267        7.320      246.405       85.878       53.577        0.462        0.019       93.015        4.940        0.003      332.848        1.778      861.256
01/04/2014  02:39:00      -89.088      -13.959      -16.112       16.923       17.258       13.185      286.398      297.854      173.841        0.457        0.038       90.175        9.468        0.011      333.176        2.319      861.268
01/04/2014  02:40:00      -90.487        5.152      -17.423        5.885       16.768        6.882       34.636      281.158       47.357        0.444        0.018       90.634        3.745        0.002      333.626        3.063      861.270
01/04/2014  02:41:00      -73.283       34.251      -15.276        9.749        7.456        6.735       95.052       55.585       45.362        0.349        0.010       80.892        5.342        0.004      334.390        4.331      861.263
01/04/2014  02:42:00      -51.650       12.303       -7.719        9.598       15.464        7.445       92.119      239.140       55.426        0.163        0.019       53.095        3.777        0.005      333.939        3.582      861.265
01/04/2014  02:43:00      -75.770        2.236      -16.117       13.901       12.953        8.397      193.242      167.770       70.507        0.322        0.022       75.803        4.717        0.004      333.316        2.552      861.276
01/04/2014  02:44:00      -47.975       11.886      -14.134       13.212       13.344       10.106      174.551      178.073      102.139        0.155        0.023       49.426        7.441        0.023      333.825        3.395      861.295
01/04/2014  02:45:00      -10.141       29.933       -3.186       11.569       15.341        9.573      133.842      235.354       91.649        0.073        0.023       31.604        8.397        0.071      334.561        4.615      861.319
01/04/2014  02:46:00       -5.280       40.763       -7.159       15.824       15.312       10.254      250.411      234.450      105.140        0.117        0.030       41.104        4.794        0.014      334.759        4.943      861.335
01/04/2014  02:47:00       -1.886       71.164      -15.003       23.586       15.485       10.275      556.306      239.772      105.582        0.310        0.045       71.189        8.785        0.015      334.888        5.158      861.353
01/04/2014  02:48:00      -51.355      -10.174       -7.259       37.929       58.984       20.357     1438.596     3479.065      414.422        0.406        0.267       52.353       14.101        0.073      333.879        3.486      861.354
01/04/2014  02:49:00     -132.221      -18.659      -20.903       17.253       22.963       14.645      297.662      527.312      214.467        0.965        0.052      133.531       10.438        0.006      332.666        1.477      861.367
01/04/2014  02:50:00     -114.150      -15.110      -23.671       14.507       15.822       13.170      210.448      250.346      173.457        0.723        0.032      115.145        5.389        0.002      332.645        1.442      861.382
01/04/2014  02:51:00     -105.839      -13.887      -28.103       12.765       13.351        7.729      162.942      178.242       59.741        0.629        0.020      106.746        6.552        0.004      332.770        1.647      861.399
01/04/2014  02:52:00      -84.428       -7.616      -14.248       14.354       15.764       13.936      206.038      248.497      194.222        0.402        0.032       84.771       12.766        0.023      332.709        1.549      861.418
01/04/2014  02:53:00      -90.540       -1.741      -19.687       16.875       14.291        9.496      284.776      204.240       90.177        0.458        0.029       90.557       11.079        0.015      333.266        2.468      861.426
01/04/2014  02:54:00      -79.814      -52.934      -18.408       20.694       18.045       16.999      428.241      325.612      288.968        0.528        0.052       95.772        6.836        0.005      332.985        2.004      861.423
01/04/2014  02:55:00     -114.567      -50.919      -19.173       26.105       18.518       13.425      681.475      342.912      180.230        0.865        0.060      125.373        8.484        0.005      332.702        1.536      861.417
01/04/2014  02:56:00     -138.404       -3.134      -23.513       30.812       23.362       19.874      949.373      545.770      394.978        1.080        0.095      138.439       14.554        0.011      332.658        1.463      861.414
01/04/2014  02:57:00     -100.590      -35.330      -15.059       25.603       27.070       14.794      655.512      732.795      218.853        0.660        0.080      106.614       12.965        0.015      332.742        1.603      861.382
01/04/2014  02:58:00     -118.866      -23.626      -26.448       20.901       15.282       13.877      436.869      233.550      192.584        0.812        0.043      121.191       10.311        0.007      332.781        1.665      861.357
01/04/2014  02:59:00     -137.906      -14.424      -23.181       21.041       15.627       15.792      442.707      244.212      249.387        1.035        0.047      138.658       12.971        0.009      332.935        1.921      861.344
01/04/2014  03:00:00     -151.176       -5.643      -24.342       13.633       10.682       10.578      185.872      114.110      111.889        1.195        0.021      151.282        9.311        0.004      333.042        2.097      861.341
01/04/2014  03:01:00     -101.090       -9.829      -16.396       40.700       19.637       19.882     1656.484      385.622      395.299        0.651        0.122      101.567       23.496        0.054      332.986        2.004      861.366
01/04/2014  03:02:00      -73.037      -43.297      -14.899       34.508       21.609       16.003     1190.791      466.970      256.105        0.467        0.096       84.906       13.805        0.026      333.002        2.031      861.392
01/04/2014  03:03:00     -105.182      -19.782      -17.511       39.295       18.967       15.658     1544.136      359.741      245.174        0.695        0.107      107.026       21.749        0.041      333.100        2.192      861.409
01/04/2014  03:04:00      -90.775      -54.457      -10.746       22.354       19.948       18.661      499.682      397.918      348.230        0.628        0.062      105.857       17.624        0.028      333.148        2.273      861.435
01/04/2014  03:05:00      -38.957      -37.468       10.262       53.956       23.616       25.593     2911.216      557.729      654.977        0.357        0.206       54.051       25.569        0.224      333.142        2.262      861.460
01/04/2014  03:06:00      -15.689      -86.319        8.131       89.435       60.063       29.323     7998.604     3607.530      859.828        1.011        0.623       87.734       27.304        0.097      333.494        2.846      861.475
01/04/2014  03:07:00      -79.153      -56.710       -3.786       34.726       28.161       20.245     1205.889      793.028      409.861        0.595        0.120       97.371       11.800        0.015      333.444        2.761      861.507
01/04/2014  03:08:00      -84.555      -47.806        1.669       32.487       24.140       19.141     1055.376      582.754      366.367        0.572        0.100       97.134       16.026        0.027      333.433        2.745      861.552
01/04/2014  03:09:00     -106.505      -66.017       -7.446       22.588       25.258       16.208      510.226      637.972      262.688        0.858        0.071      125.305        8.840        0.005      333.618        3.051      861.585
01/04/2014  03:10:00      -98.040      -66.245       -7.937       30.809       36.942       19.438      949.198     1364.715      377.852        0.838        0.135      118.322       12.338        0.011      333.494        2.845      861.593
01/04/2014  03:11:00     -136.010      -34.078      -15.302       34.829       18.470       12.933     1213.085      341.159      167.268        1.081        0.086      140.214        9.161        0.004      333.127        2.238      861.600
01/04/2014  03:12:00     -165.153      -36.495      -18.702       26.706       34.851       16.964      713.229     1214.586      287.761        1.559        0.111      169.137       13.074        0.006      332.991        2.015      861.576
01/04/2014  03:13:00     -148.325      -42.910      -22.764       49.985       31.226       20.681     2498.463      975.086      427.709        1.413        0.195      154.408       21.773        0.020      332.958        1.961      861.528
01/04/2014  03:14:00      -80.068      -68.376        9.822       62.725       40.949       25.177     3934.478     1676.783      633.879        0.871        0.312      105.291       24.827        0.056      332.891        1.849      861.476
01/04/2014  03:15:00     -107.018     -131.771       -0.197       64.867       48.273       37.864     4207.727     2330.235     1433.680        1.839        0.399      169.754       37.565        0.049      333.033        2.081      861.427
01/04/2014  03:16:00     -117.918      -84.670       -1.460       42.948       42.134       29.001     1844.540     1775.253      841.055        1.277        0.223      145.168       29.007        0.040      333.266        2.468      861.397
01/04/2014  03:17:00      -73.787      -33.956        1.703       46.002       33.285       25.377     2116.153     1107.897      643.982        0.523        0.193       81.225       19.387        0.057      333.132        2.247      861.388
01/04/2014  03:18:00     -126.927      -46.200        0.036       37.175       34.280       21.488     1382.015     1175.113      461.722        1.063        0.151      135.073       17.741        0.017      332.960        1.963      861.375
01/04/2014  03:19:00     -104.222      -85.584        7.528       61.224       44.191       30.494     3748.352     1952.818      929.903        1.244        0.332      134.858       26.280        0.038      333.261        2.460      861.357
01/04/2014  03:20:00      -93.190      -62.614        4.215       57.572       38.610       28.050     3314.495     1490.743      786.791        0.911        0.280      112.271       29.460        0.069      333.384        2.663      861.349
01/04/2014  03:21:00     -119.119      -37.642       -3.339       34.607       21.422       18.065     1197.659      458.902      326.328        0.880        0.099      124.925       18.016        0.021      333.332        2.577      861.362
01/04/2014  03:22:00      -92.955        6.820       -5.418       17.437       20.338       11.675      304.045      413.623      136.297        0.479        0.043       93.205       10.877        0.014      333.195        2.350      861.383
01/04/2014  03:23:00     -119.922       -9.780       -6.184       25.507       30.264       13.106      650.622      915.882      171.763        0.813        0.087      120.320       13.541        0.013      333.179        2.324      861.396
01/04/2014  03:24:00      -90.130      -37.151        5.752       32.870       27.095       19.953     1080.464      734.163      398.116        0.587        0.111       97.486       19.180        0.039      333.264        2.465      861.392
01/04/2014  03:25:00     -114.203      -44.476       -6.532       18.543       28.748       14.185      343.827      826.422      201.210        0.822        0.069      122.558        7.849        0.004      333.253        2.446      861.398
01/04/2014  03:26:00      -93.428      -47.218       -6.015       31.665       21.064       18.536     1002.654      443.689      343.582        0.639        0.089      104.682       17.372        0.028      333.165        2.301      861.413
01/04/2014  03:27:00     -123.746      -16.643       -7.813       21.689       20.516       13.854      470.391      420.908      191.932        0.837        0.054      124.861       11.654        0.009      333.069        2.144      861.458
01/04/2014  03:28:00     -128.934       -9.896      -12.419       28.653       18.505       15.572      820.995      342.442      242.484        0.914        0.070      129.313       13.655        0.011      333.099        2.191      861.496
01/04/2014  03:29:00     -110.748       -6.395        3.149       36.261       26.601       20.144     1314.840      707.625      405.785        0.737        0.121      110.933       20.607        0.035      333.013        2.050      861.513
01/04/2014  03:30:00     -140.048        5.557      -17.525       28.966       17.192       14.051      839.016      295.560      197.425        1.064        0.067      140.158       10.880        0.006      332.877        1.826      861.535
01/04/2014  03:31:00     -139.657      -16.041      -15.484       36.127       25.235       18.322     1305.188      636.827      335.713        1.114        0.114      140.575       18.229        0.017      332.928        1.910      861.543
01/04/2014  03:32:00     -137.294      -47.294       -5.078       26.278       32.187       18.144      690.517     1036.013      329.199        1.158        0.103      145.211       16.240        0.013      332.848        1.777      861.536
01/04/2014  03:33:00     -134.941      -34.845       -8.315       35.464       33.341       23.252     1257.719     1111.630      540.677        1.120        0.146      139.367       21.356        0.023      332.830        1.748      861.538
01/04/2014  03:34:00     -138.098      -16.234       -2.762       43.835       24.646       23.201     1921.484      607.444      538.303        1.120        0.153      139.049       23.767        0.029      332.967        1.974      861.528
01/04/2014  03:35:00     -137.053      -22.051       -7.163       30.125       23.746       17.212      907.535      563.864      296.257        1.054        0.088      138.815       18.932        0.019      333.059        2.127      861.510
01/04/2014  03:36:00      -99.694      -32.297       -0.268       33.770       30.973       16.768     1140.407      959.301      281.181        0.668        0.119      104.795       15.402        0.022      332.931        1.916      861.505
01/04/2014  03:37:00      -86.491      -13.078       -2.173       38.313       25.946       21.340     1467.858      673.219      455.384        0.513        0.130       87.474       22.057        0.064      333.110        2.210      861.513
01/04/2014  03:38:00     -115.553       -2.593       -4.488       46.210       35.975       23.854     2135.330     1294.217      569.018        0.869        0.200      115.582       22.514        0.038      333.482        2.825      861.521
01/04/2014  03:39:00     -117.382       -5.132       -2.427       55.512       34.549       26.503     3081.559     1193.636      702.416        0.939        0.249      117.494       27.271        0.054      333.558        2.950      861.532
01/04/2014  03:40:00      -88.185       -5.841       -2.156       58.280       48.860       32.297     3396.516     2387.285     1043.076        0.732        0.341       88.379       36.954        0.175      333.372        2.645      861.546
01/04/2014  03:41:00      -71.530       -8.609       11.804       49.382       41.554       32.169     2438.625     1726.738     1034.831        0.526        0.260       72.046       25.826        0.128      333.178        2.322      861.565
01/04/2014  03:42:00      -29.401      -14.987       16.686       46.623       28.586       21.208     2173.658      817.177      449.759        0.240        0.172       33.000       21.676        0.431      333.093        2.184      861.585
01/04/2014  03:43:00      -41.262      -20.670       -1.192       28.957       19.276       16.710      838.507      371.568      279.235        0.181        0.074       46.150       16.438        0.127      333.099        2.192      861.595
01/04/2014  03:44:00      -85.081      -32.470       -7.425       26.867       20.414       15.363      721.819      416.717      236.033        0.486        0.069       91.066       15.788        0.030      333.096        2.187      861.594
01/04/2014  03:45:00     -126.301      -23.667      -21.158       14.832       11.746       11.238      219.977      137.975      126.292        0.872        0.024      128.500        9.316        0.005      333.172        2.313      861.586
01/04/2014  03:46:00     -136.282      -23.842      -25.982       10.587        9.523        7.000      112.091       90.690       49.003        1.003        0.013      138.352        6.031        0.002      333.251        2.443      861.583
01/04/2014  03:47:00      -95.124      -35.913      -19.572       10.681        7.927        6.770      114.079       62.833       45.837        0.547        0.011      101.678        4.297        0.002      333.268        2.472      861.588
01/04/2014  03:48:00      -83.349      -26.084      -17.348        8.819        7.829        5.813       77.768       61.289       33.793        0.405        0.009       87.335        3.385        0.002      333.292        2.511      861.604
01/04/2014  03:49:00      -83.050      -22.554      -17.714        6.204        9.267        4.032       38.494       85.878       16.254        0.393        0.007       86.058        3.142        0.001      333.461        2.790      861.612
01/04/2014  03:50:00      -77.689       -4.899      -17.072        7.055        6.223        5.084       49.768       38.728       25.846        0.323        0.006       77.843        3.036        0.002      333.832        3.405      861.609
01/04/2014  03:51:00      -37.879       -6.897       -8.684       17.690        5.491        6.837      312.952       30.154       46.749        0.097        0.019       38.502        7.379        0.037      334.308        4.196      861.602
01/04/2014  03:52:00      -19.476      -19.100       -5.537       14.789       17.450        8.476      218.706      304.488       71.835        0.068        0.030       27.279        5.309        0.038      334.252        4.103      861.590
01/04/2014  03:53:00      -81.531      -45.980      -13.447       12.198       16.118       10.152      148.802      259.777      103.055        0.473        0.026       93.602        9.449        0.010      333.108        2.206      861.590
01/04/2014  03:54:00      -64.878      -32.318      -10.133       12.197        8.684        7.373      148.779       75.407       54.358        0.282        0.014       72.482        4.891        0.005      333.346        2.601      861.597
01/04/2014  03:55:00      -43.722      -24.187       -3.732       14.103       16.874        7.834      198.898      284.746       61.376        0.153        0.027       49.967        7.294        0.021      333.618        3.051      861.615
01/04/2014  03:56:00      -14.188      -55.007        5.516       27.453       16.079       12.069      753.660      258.529      145.668        0.221        0.058       56.807       14.687        0.067      333.681        3.155      861.630
01/04/2014  03:57:00      -10.287      -16.458       18.109       22.726       21.747       15.916      516.459      472.912      253.310        0.097        0.062       19.408        9.730        0.251      333.212        2.379      861.640
01/04/2014  03:58:00       30.554      -62.405       -9.862       21.585       23.970       15.607      465.928      574.547      243.578        0.310        0.064       69.483       14.152        0.041      333.082        2.162      861.655
01/04/2014  03:59:00       23.306      -36.951      -14.404       15.682       19.984       11.564      245.913      399.372      133.715        0.145        0.039       43.687        7.912        0.033      333.000        2.029      861.661
01/04/2014  04:00:00      -18.144      -39.281       -4.206       23.478       12.761        9.390      551.228      162.837       88.165        0.135        0.040       43.269        8.836        0.042      333.390        2.673      861.674
01/04/2014  04:01:00      -48.659      -11.174       -5.277        9.057        8.603        5.517       82.025       74.008       30.438        0.135        0.009       49.926        3.888        0.006      333.078        2.159      861.687
01/04/2014  04:02:00      -71.159      -30.635       -5.234       13.002        8.726        6.960      169.045       76.136       48.440        0.316        0.015       77.473        4.771        0.004      332.829        1.747      861.692
01/04/2014  04:03:00      -82.842      -55.762       -3.227       25.161       24.612       21.053      633.099      605.743      443.234        0.583        0.084       99.861       17.934        0.032      332.867        1.808      861.692
01/04/2014  04:04:00      -97.209      -64.933       -1.001       27.795       28.129       19.797      772.547      791.215      391.926        0.781        0.098      116.901       21.474        0.034      332.868        1.810      861.691
01/04/2014  04:05:00      -80.495      -47.469       -2.323       28.112       36.132       24.471      790.285     1305.537      598.852        0.572        0.135       93.449       10.651        0.013      333.010        2.044      861.689
01/04/2014  04:06:00      -92.223      -60.170      -11.102       26.106       33.058       17.390      681.507     1092.838      302.396        0.716        0.104      110.115        9.557        0.008      332.915        1.889      861.688
01/04/2014  04:07:00      -72.685      -80.353        6.290       41.624       40.159       20.524     1732.547     1612.765      421.219        0.777        0.188      108.350       20.789        0.037      332.875        1.824      861.687
01/04/2014  04:08:00      -90.593      -89.935       -4.579       38.859       35.507       24.345     1509.998     1260.729      592.697        0.984        0.168      127.653       17.516        0.019      332.973        1.984      861.699
01/04/2014  04:09:00      -68.866      -80.609      -11.246       44.430       37.045       23.801     1974.002     1372.300      566.496        0.764        0.196      106.020       21.977        0.043      333.016        2.055      861.713
01/04/2014  04:10:00      -89.638      -52.198       -5.918       34.829       27.844       24.665     1213.043      775.298      608.343        0.670        0.130      103.729        9.508        0.008      332.981        1.998      861.733
01/04/2014  04:11:00      -69.357      -46.805        3.433       29.930       31.791       11.854      895.818     1010.653      140.513        0.453        0.102       83.672        8.937        0.011      332.933        1.918      861.751
01/04/2014  04:12:00      -32.092      -47.396        1.729       24.661       28.488       13.781      608.154      811.573      189.907        0.244        0.080       57.239       14.541        0.065      332.960        1.963      861.774
01/04/2014  04:13:00      -65.788      -42.522       -6.100       25.425       25.107       15.295      646.449      630.365      233.931        0.384        0.076       78.334       10.395        0.018      333.030        2.078      861.780
01/04/2014  04:14:00      -88.824      -33.700       -9.910       16.462       17.893        9.978      270.997      320.162       99.564        0.491        0.035       95.002        4.937        0.003      332.895        1.856      861.777
01/04/2014  04:15:00     -150.063      -62.595      -15.235       21.189       19.472       13.244      448.975      379.147      175.392        1.384        0.050      162.595        3.870        0.001      332.905        1.873      861.785
01/04/2014  04:16:00     -137.825      -69.124       -8.145       32.592       22.179       16.240     1062.267      491.921      263.724        1.283        0.091      154.188       16.081        0.011      332.841        1.768      861.792
01/04/2014  04:17:00      -84.019      -49.066        0.030       37.068       26.829       15.954     1374.058      719.799      254.515        0.591        0.117       97.296       17.469        0.032      332.798        1.696      861.802
01/04/2014  04:18:00        4.215      -18.429       12.953       18.608       16.478       16.959      346.253      271.530      287.593        0.072        0.045       18.905       10.724        0.322      332.827        1.743      861.817
01/04/2014  04:19:00       26.411       33.738       12.707       19.421       22.111       19.709      377.162      488.915      388.448        0.163        0.063       42.847        9.584        0.050      332.722        1.571      861.837
01/04/2014  04:20:00       70.491       55.296      -14.369       30.198       25.628       20.511      911.932      656.807      420.718        0.511        0.099       89.591       14.059        0.025      332.069        0.491      861.850
01/04/2014  04:21:00       21.088       11.794       -5.695       18.929       18.490       17.421      358.321      341.864      303.506        0.081        0.050       24.162       10.040        0.173      331.932        0.267      861.830
01/04/2014  04:22:00       24.037        4.427       -9.671        9.676       13.877        7.089       93.626      192.581       50.249        0.051        0.017       24.441        5.349        0.048      332.299        0.872      861.806
01/04/2014  04:23:00       20.674        7.244        5.210       11.768       13.493       11.034      138.492      182.067      121.753        0.047        0.022       21.907        9.805        0.200      332.333        0.928      861.781
01/04/2014  04:24:00        6.406       17.063        3.987        9.547        6.799        6.672       91.154       46.228       44.513        0.026        0.009       18.226        5.386        0.087      332.208        0.720      861.781
01/04/2014  04:25:00      -15.813       20.009        2.706       14.907        9.456        7.672      222.227       89.408       58.853        0.051        0.019       25.503        6.028        0.056      332.406        1.049      861.779
01/04/2014  04:26:00       -3.061       45.647       -3.987       11.957       13.779        9.418      142.967      189.851       88.695        0.127        0.021       45.749        7.713        0.028      332.403        1.043      861.784
01/04/2014  04:27:00      -13.028       44.852        2.487       15.245       15.109       13.309      232.417      228.274      177.138        0.141        0.032       46.705        8.113        0.030      332.405        1.046      861.777
01/04/2014  04:28:00      -47.058       42.660       -1.304       20.372       19.856       13.865      415.014      394.242      192.251        0.252        0.050       63.516       12.554        0.039      332.554        1.292      861.781
01/04/2014  04:29:00      -46.036       32.273       -2.266       18.667       17.572       12.927      348.449      308.761      167.105        0.200        0.041       56.222        8.458        0.023      332.705        1.543      861.806
01/04/2014  04:30:00      -62.218       65.502      -19.653       14.285       17.641        7.854      204.051      311.200       61.686        0.456        0.029       90.342        6.075        0.005      332.575        1.327      861.822
01/04/2014  04:31:00      -54.912       15.185       -6.403       10.116       12.136        7.070      102.328      147.282       49.989        0.179        0.015       56.973        5.146        0.008      332.629        1.417      861.821
01/04/2014  04:32:00      -53.645        5.595       -9.190        6.423        7.366        6.092       41.253       54.251       37.113        0.156        0.007       53.936        1.967        0.001      332.615        1.393      861.824
01/04/2014  04:33:00      -49.848      -24.889      -10.245       15.889        9.857        5.207      252.467       97.163       27.113        0.179        0.019       55.716        5.885        0.011      332.487        1.182      861.831
01/04/2014  04:34:00      -49.382       -4.778      -11.550       17.766       17.449        7.540      315.621      304.468       56.849        0.164        0.034       49.613        3.933        0.006      332.289        0.854      861.838
01/04/2014  04:35:00      -38.343      -13.910       -5.421       14.453       19.140       11.892      208.889      366.325      141.421        0.120        0.036       40.788        9.717        0.057      332.437        1.098      861.833
01/04/2014  04:36:00      -44.413      -38.761       -8.255       18.197       14.283       12.072      331.128      204.005      145.724        0.211        0.034       58.949        7.898        0.018      332.581        1.336      861.806
01/04/2014  04:37:00      -74.323      -36.149       -3.238       35.997       16.789       14.453     1295.807      281.854      208.898        0.431        0.089       82.648       17.308        0.044      332.340        0.939      861.798
01/04/2014  04:38:00      -95.911      -28.336      -10.642       24.654       27.518       15.995      607.810      757.227      255.845        0.587        0.081      100.009       12.657        0.016      332.417        1.066      861.785
01/04/2014  04:39:00      -44.640      -46.942      -10.264       25.807       21.249       18.913      665.977      451.527      357.702        0.289        0.074       64.779       14.880        0.053      332.298        0.869      861.793
01/04/2014  04:40:00      -94.337      -39.248       -9.825       37.360       27.694       12.696     1395.807      766.978      161.184        0.643        0.116      102.176        8.523        0.007      332.384        1.010      861.824
01/04/2014  04:41:00       -7.095      -40.464        6.025       14.303       27.466       17.571      204.584      754.380      308.739        0.150        0.063       41.082       16.198        0.155      332.455        1.128      861.861
01/04/2014  04:42:00      -40.104      -28.463       -3.536       30.249       22.587       14.819      915.029      510.166      219.590        0.204        0.082       49.178       17.912        0.133      332.579        1.333      861.897
01/04/2014  04:43:00      -58.667       -7.639       -8.733       37.907       30.834       20.830     1436.976      950.758      433.884        0.320        0.141       59.163       20.947        0.125      332.868        1.810      861.937
01/04/2014  04:44:00      -40.661      -35.883       -5.187       40.333       23.310       15.006     1626.731      543.358      225.169        0.268        0.120       54.230       13.179        0.059      332.958        1.959      861.922
01/04/2014  04:45:00      -29.032      -22.202       -6.732       44.700       34.815       12.480     1998.122     1212.066      155.759        0.237        0.168       36.548       14.282        0.153      332.562        1.305      861.938
01/04/2014  04:46:00      -65.166      -34.976       -6.106       41.938       22.065       13.141     1758.828      486.847      172.690        0.396        0.121       73.959       21.279        0.083      332.545        1.277      861.936
01/04/2014  04:47:00     -102.990      -38.378      -12.320       10.723       17.056       10.499      114.985      290.913      110.235        0.637        0.026      109.908       10.221        0.009      332.573        1.322      861.952
01/04/2014  04:48:00        6.901      -52.397        5.111       29.133       27.071       21.085      848.716      732.850      444.597        0.242        0.101       52.849       18.374        0.121      332.579        1.331      861.965
01/04/2014  04:49:00       10.832      -59.345       -4.860       24.080       23.979       16.362      579.839      574.983      267.710        0.254        0.071       60.325       13.813        0.052      332.825        1.741      861.953
01/04/2014  04:50:00      -27.685      -57.526        4.340       36.648       42.428       23.056     1343.075     1800.094      531.557        0.388        0.184       63.841       29.693        0.216      333.289        2.507      861.938
01/04/2014  04:51:00      -56.109      -26.702       -5.698       20.224       15.993       11.681      409.014      255.765      136.437        0.235        0.040       62.139        4.051        0.004      332.839        1.764      861.937
01/04/2014  04:52:00      -75.490      -20.024      -15.108       39.624       22.787       13.268     1570.048      519.260      176.041        0.430        0.113       78.100       17.143        0.048      332.812        1.717      861.948
01/04/2014  04:53:00     -118.832      -55.414       -7.236       22.103       31.154       18.991      488.555      970.557      360.642        0.953        0.091      131.118       13.554        0.011      332.743        1.605      861.969
01/04/2014  04:54:00     -129.947      -61.273      -14.292       32.255       22.885       17.956     1040.385      523.709      322.416        1.137        0.094      143.668       15.565        0.012      332.500        1.203      862.010
01/04/2014  04:55:00     -106.646      -42.814       -5.102       23.241       22.815       14.635      540.140      520.543      214.194        0.725        0.064      114.919       10.406        0.008      332.484        1.176      862.045
01/04/2014  04:56:00      -81.024      -41.007       -9.979       15.124        9.580        6.672      228.742       91.783       44.515        0.436        0.018       90.810        4.190        0.002      332.676        1.492      862.066
01/04/2014  04:57:00      -73.541      -31.485      -13.404       13.395       15.398       10.594      179.434      237.092      112.231        0.355        0.026       79.998       10.126        0.016      332.668        1.480      862.067
01/04/2014  04:58:00     -107.228      -38.366      -18.860       22.505       19.258       10.571      506.458      370.874      111.751        0.716        0.049      113.885        5.452        0.002      332.563        1.306      862.057
01/04/2014  04:59:00      -99.578      -35.595      -11.608       14.526       14.347        8.138      210.996      205.823       66.231        0.590        0.024      105.749        3.270        0.001      332.542        1.272      862.048
01/04/2014  05:00:00      -76.589      -22.012      -22.089        8.694        9.114        8.026       75.590       83.056       64.409        0.353        0.011       79.690        4.073        0.003      332.731        1.583      862.050
01/04/2014  05:01:00      -62.154      -33.942      -10.675        9.113        8.400        6.761       83.053       70.552       45.714        0.266        0.010       70.818        5.439        0.006      332.711        1.551      862.056
01/04/2014  05:02:00      -78.844      -29.171      -14.488        9.313        9.085        7.250       86.723       82.540       52.561        0.375        0.011       84.068        4.230        0.003      333.071        2.146      862.070
01/04/2014  05:03:00      -69.094      -25.356       -7.519       13.569       18.183        7.180      184.122      330.607       51.552        0.302        0.028       73.599        7.410        0.010      332.823        1.736      862.090
01/04/2014  05:04:00      -41.985      -10.366       -4.984       15.205       23.529       16.659      231.189      553.616      277.521        0.148        0.053       43.246       14.593        0.114      332.915        1.890      862.105
01/04/2014  05:05:00      -61.818      -22.836        1.574       25.148       30.433       20.065      632.420      926.139      402.608        0.315        0.098       65.901       12.574        0.036      333.282        2.496      862.098
01/04/2014  05:06:00      -42.635      -23.921       -3.106       17.766       13.870       12.017      315.620      192.368      144.397        0.153        0.033       48.887       11.392        0.054      333.336        2.583      862.103
01/04/2014  05:07:00       14.785       -2.619        5.402       15.211       10.764        9.847      231.388      115.854       96.973        0.035        0.022       15.016        4.337        0.083      333.165        2.302      862.123
01/04/2014  05:08:00       27.749        3.085       11.489       22.607       18.172       13.532      511.071      330.206      183.113        0.097        0.051       27.920        8.760        0.098      333.257        2.453      862.144
01/04/2014  05:09:00       57.412       22.418       12.428       12.069       13.171       15.559      145.659      173.477      242.096        0.226        0.028       61.634        6.008        0.010      333.311        2.543      862.171
01/04/2014  05:10:00       22.292        1.445       14.870       18.961       25.043       18.943      359.533      627.168      358.841        0.103        0.067       22.339       20.095        0.809      332.541        1.270      862.195
01/04/2014  05:11:00       44.224       25.185       25.091       20.270       24.625       22.417      410.864      606.395      502.505        0.237        0.076       50.893       17.324        0.116      332.523        1.240      862.204
01/04/2014  05:12:00        2.741       -2.191        0.902       26.532       23.082       19.283      703.925      532.762      371.840        0.081        0.080        3.509       13.871       15.623      332.907        1.878      862.210
01/04/2014  05:13:00       40.421       34.093        8.914       32.975       19.985       20.827     1087.343      399.386      433.777        0.240        0.096       52.879       20.263        0.147      333.015        2.052      862.229
01/04/2014  05:14:00       42.584       78.982       -0.045       35.714       51.927       27.279     1275.465     2696.420      744.167        0.638        0.236       89.730       29.913        0.111      333.189        2.341      862.256
01/04/2014  05:15:00       25.881      107.266      -14.980       22.193       26.269       15.002      492.539      690.079      225.063        0.690        0.070      110.344       13.308        0.015      333.508        2.867      862.283
01/04/2014  05:16:00       36.712      131.898      -18.579       23.995       37.875       27.711      575.763     1434.510      767.901        1.093        0.139      136.912       25.482        0.035      333.471        2.806      862.320
01/04/2014  05:17:00       42.986       93.084      -14.229       22.303       38.611       23.043      497.428     1490.775      530.977        0.662        0.126      102.530       19.240        0.035      333.369        2.638      862.354
01/04/2014  05:18:00       16.531       78.935       -9.219       32.044       40.573       20.053     1026.813     1646.196      402.139        0.483        0.154       80.647       22.863        0.080      333.524        2.894      862.402
01/04/2014  05:19:00      -25.160      116.022       -9.618       39.017       44.180       23.293     1522.328     1951.879      542.580        0.910        0.201      118.718       20.793        0.031      333.637        3.081      862.447
01/04/2014  05:20:00      -38.597       94.580      -12.279       27.080       29.831       19.963      733.310      889.912      398.533        0.630        0.101      102.153       15.452        0.023      333.798        3.350      862.481
01/04/2014  05:21:00      -20.016       90.591       -5.834       31.482       68.474       22.194      991.122     4688.657      492.556        0.741        0.309       92.775       31.765        0.117      333.621        3.054      862.506
01/04/2014  05:22:00      -27.912      161.132      -21.444       27.767       69.794       25.278      770.979     4871.139      638.971        1.674        0.314      163.531       29.632        0.033      333.763        3.290      862.536
01/04/2014  05:23:00      -69.565       40.455       -9.354       55.090       41.954       32.311     3034.854     1760.100     1044.031        0.620        0.292       80.473       28.422        0.125      333.782        3.321      862.561
01/04/2014  05:24:00      -68.882       61.593       -4.834       55.757       47.085       40.342     3108.850     2217.025     1627.515        0.776        0.348       92.403       42.260        0.209      333.860        3.452      862.588
01/04/2014  05:25:00      -96.961      136.537      -22.994       44.513       75.579       38.650     1981.380     5712.148     1493.809        1.888        0.459      167.463       25.661        0.023      334.029        3.732      862.606
01/04/2014  05:26:00      -91.414       95.438      -23.660       69.720       70.284       38.913     4860.924     4939.791     1514.224        1.467        0.566      132.155       33.228        0.063      334.028        3.729      862.626
01/04/2014  05:27:00      -86.155       73.592       -8.086       50.257      104.453       31.230     2525.814    10910.430      975.291        1.365        0.721      113.307       30.446        0.072      333.915        3.542      862.625
01/04/2014  05:28:00     -121.563       64.980      -21.279       57.215       64.112       36.536     3273.535     4110.358     1334.903        1.408        0.436      137.840       43.463        0.099      333.941        3.586      862.632
01/04/2014  05:29:00     -126.615       96.154      -19.167       76.218       51.390       41.154     5809.122     2640.945     1693.626        1.789        0.507      158.987       36.551        0.053      333.918        3.546      862.656
01/04/2014  05:30:00     -119.967      122.860      -22.289       62.797       81.215       42.850     3943.495     6595.863     1836.095        2.118        0.619      171.717       43.222        0.063      333.950        3.599      862.688
01/04/2014  05:31:00     -134.297      165.837      -27.767       75.809       67.299       47.942     5746.978     4529.200     2298.408        2.944        0.629      213.396       50.945        0.057      333.990        3.665      862.724
01/04/2014  05:32:00     -179.216      137.596      -23.305       81.705       97.741       56.294     6675.755     9553.304     3169.049        3.549        0.970      225.944       62.878        0.077      334.071        3.799      862.746
01/04/2014  05:33:00     -157.716      190.608      -33.957       65.706       69.734       44.521     4317.291     4862.782     1982.085        3.676        0.558      247.398       35.784        0.021      334.030        3.729      862.769
01/04/2014  05:34:00     -164.795      164.714      -30.436       70.543      103.681       52.727     4976.271    10749.715     2780.124        3.686        0.925      232.998       44.540        0.037      334.011        3.701      862.777
01/04/2014  05:35:00     -177.349      186.887      -32.162       78.395      100.094       59.772     6145.797    10018.818     3572.668        4.357        0.987      257.642       46.241        0.032      334.016        3.707      862.783
01/04/2014  05:36:00     -206.390      260.195      -47.622       84.564      114.834       58.633     7150.993    13186.779     3437.852        6.817        1.189      332.112       54.133        0.027      333.967        3.627      862.790
01/04/2014  05:37:00     -195.550      197.492      -41.378       95.773       85.772       55.885     9172.400     7356.868     3123.169        4.930        0.983      277.926       50.667        0.033      333.982        3.649      862.800
01/04/2014  05:38:00     -197.477      213.048      -45.276       84.749       80.866       49.396     7182.327     6539.368     2439.924        5.130        0.808      290.494       50.353        0.030      334.020        3.713      862.807
01/04/2014  05:39:00     -134.888      201.547      -27.068       62.022       73.246       44.795     3846.714     5364.947     2006.635        3.538        0.561      242.521       42.128        0.030      333.884        3.487      862.831
01/04/2014  05:40:00     -139.762      189.453      -22.324       59.111      101.706       38.452     3494.149    10344.083     1478.592        3.562        0.766      235.427       42.376        0.032      333.862        3.450      862.854
01/04/2014  05:41:00     -164.935      238.330      -31.416       66.746      120.173       54.543     4455.067    14441.581     2974.925        5.343        1.094      289.836       47.020        0.026      333.874        3.471      862.887
01/04/2014  05:42:00     -169.081      239.984      -38.739       90.716      116.709       57.837     8229.446    13621.064     3345.075        5.643        1.260      293.566       58.383        0.040      333.826        3.390      862.910
01/04/2014  05:43:00     -163.739      177.245      -31.029       69.373       71.424       42.661     4812.594     5101.337     1820.001        3.546        0.587      241.301       35.497        0.022      333.774        3.306      862.930
01/04/2014  05:44:00     -110.239      209.972      -23.715       95.000      108.669       60.370     9025.034    11808.938     3644.564        4.064        1.224      237.152       70.756        0.089      333.797        3.343      862.947
01/04/2014  05:45:00      -37.722      185.144      -16.833       93.070       68.611       47.585     8661.992     4707.422     2264.350        2.581        0.782      188.948       48.153        0.065      333.738        3.248      862.981
01/04/2014  05:46:00       42.671      120.198       -3.540       66.197       76.201       42.073     4382.091     5806.625     1770.104        1.412        0.598      127.548       41.554        0.106      333.579        2.985      863.015
01/04/2014  05:47:00      145.679       95.330       10.086       59.627       37.664       38.265     3555.434     1418.580     1464.186        1.842        0.322      174.098        8.885        0.003      332.967        1.972      863.049
01/04/2014  05:48:00      198.870      103.498       32.672       55.871       40.644       36.614     3121.620     1651.955     1340.604        2.872        0.306      224.190       29.766        0.018      333.013        2.047      863.079
01/04/2014  05:49:00       94.414       63.077       34.055       33.936       26.549       29.260     1151.657      704.865      856.125        0.838        0.136      113.546       19.091        0.028      333.044        2.101      863.106
01/04/2014  05:50:00       56.533       36.057       26.612       36.354       23.176       33.309     1321.644      537.123     1109.484        0.409        0.148       67.053       16.448        0.060      332.738        1.596      863.137
01/04/2014  05:51:00       80.697       54.461        6.667       45.430       27.005       25.626     2063.914      729.274      656.674        0.649        0.172       97.355       18.199        0.035      332.657        1.462      863.160
01/04/2014  05:52:00       68.450       72.158       34.604       60.591       41.296       49.286     3671.287     1705.396     2429.107        0.945        0.390       99.460       40.085        0.162      332.229        0.756      863.183
01/04/2014  05:53:00       78.379       85.081       42.408       70.157       33.725       41.872     4921.985     1137.376     1753.280        1.149        0.391      115.680       35.150        0.092      332.441        1.106      863.210
01/04/2014  05:54:00      152.731       83.333       21.367       37.162       32.481       35.034     1381.028     1055.005     1227.370        1.719        0.183      173.986       18.636        0.011      332.471        1.155      863.228
01/04/2014  05:55:00      114.975       80.683       38.882       41.861       26.615       35.684     1752.381      708.336     1273.375        1.249        0.187      140.460       24.107        0.029      332.232        0.762      863.246
01/04/2014  05:56:00       64.801       76.572       55.452       45.551       25.689       28.853     2074.862      659.936      832.474        0.835        0.178      100.312       22.067        0.048      332.452        1.124      863.263
01/04/2014  05:57:00       84.515       61.436       22.630       53.674       41.118       42.824     2880.859     1690.651     1833.880        0.892        0.320      104.485       34.381        0.108      332.086        0.520      863.281
01/04/2014  05:58:00      143.351       81.968       29.575       55.332       37.793       49.813     3061.641     1428.313     2481.337        1.756        0.349      165.131       40.522        0.060      331.908        0.227      863.276
01/04/2014  05:59:00       39.060       96.758       95.864       62.329       41.954       40.394     3884.863     1760.111     1631.640        1.368        0.364      104.345       40.315        0.149      331.876        0.174      863.289
01/04/2014  06:00:00       89.067       36.349       29.391       59.196       39.827       35.615     3504.167     1586.163     1268.431        0.824        0.318       96.198       26.157        0.074      331.747       -0.039      863.341
01/04/2014  06:01:00       59.490       45.783       22.885       37.882       30.629       32.928     1435.051      938.136     1084.281        0.481        0.173       75.067       21.042        0.079      331.582       -0.309      863.391
01/04/2014  06:02:00      136.805       87.669       13.538       46.352       33.257       30.077     2148.542     1106.028      904.626        1.537        0.208      162.486       23.138        0.020      331.451       -0.528      863.432
01/04/2014  06:03:00      126.791       68.228       20.213       59.048       33.399       40.736     3486.676     1115.460     1659.442        1.370        0.313      143.982       24.191        0.028      331.453       -0.522      863.438
01/04/2014  06:04:00      110.454       63.924       17.025       63.432       34.541       35.196     4023.610     1193.069     1238.733        1.151        0.323      127.618       26.422        0.043      331.589       -0.300      863.439
01/04/2014  06:05:00       77.779       56.264        8.724       21.381       31.640       22.833      457.156     1001.059      521.339        0.564        0.099       95.996       13.430        0.020      331.547       -0.369      863.471
01/04/2014  06:06:00       84.858       44.247       18.069       29.563       27.118       24.634      873.974      735.379      606.827        0.585        0.111       95.701       16.361        0.029      331.732       -0.061      863.495
01/04/2014  06:07:00       73.752       55.737       13.450       41.844       30.716       14.803     1750.929      943.497      219.129        0.582        0.146       92.444       18.028        0.038      331.687       -0.137      863.519
01/04/2014  06:08:00       73.682       52.710       11.497       26.383       22.526       15.604      696.049      507.442      243.488        0.489        0.072       90.595        8.348        0.008      331.682       -0.144      863.551
01/04/2014  06:09:00       57.478       48.715        6.379       24.841       29.765       13.251      617.083      885.935      175.579        0.370        0.084       75.345       14.516        0.037      332.027        0.423      863.567
01/04/2014  06:10:00       27.012       72.269       -5.292       34.596       36.612       24.264     1196.888     1340.472      588.760        0.455        0.156       77.152       23.043        0.089      332.157        0.637      863.591
01/04/2014  06:11:00       14.151       95.516       -8.449       25.749       24.070       12.351      663.021      579.368      152.554        0.539        0.070       96.558       12.677        0.017      332.356        0.966      863.610
01/04/2014  06:12:00       20.680       59.942       -7.211       30.354       30.962       13.007      921.363      958.672      169.178        0.306        0.102       63.409       11.579        0.033      332.419        1.068      863.624
01/04/2014  06:13:00      -25.254       62.914      -15.106       29.213       45.420       21.795      853.400     2062.968      475.034        0.411        0.170       67.793       21.993        0.105      332.576        1.328      863.641
01/04/2014  06:14:00       12.948      106.718        3.245       38.553       41.504       31.293     1486.371     1722.616      979.251        0.788        0.209      107.501       23.204        0.047      332.804        1.705      863.648
01/04/2014  06:15:00      -36.511       91.411       -8.683       31.815       56.276       22.872     1012.196     3167.000      523.122        0.723        0.235       98.432       16.263        0.027      332.876        1.824      863.666
01/04/2014  06:16:00      -29.448       91.371       -9.286       40.705       53.975       25.662     1656.900     2913.254      658.541        0.726        0.261       95.999       24.496        0.065      333.055        2.120      863.680
01/04/2014  06:17:00      -49.119       98.398       -5.069       40.558       82.245       29.243     1644.967     6764.272      855.160        1.069        0.463      109.976       32.894        0.089      333.039        2.092      863.685
01/04/2014  06:18:00      -46.246      132.986      -20.538       36.608       60.382       25.937     1340.136     3646.011      672.733        1.295        0.283      140.798       24.204        0.030      333.148        2.272      863.710
01/04/2014  06:19:00      -50.813      116.957      -16.388       34.573       56.884       27.461     1195.320     3235.767      754.125        1.086        0.259      127.518       29.829        0.055      333.181        2.326      863.746
01/04/2014  06:20:00      -22.368      147.107      -15.269       45.526       51.908       31.721     2072.657     2694.420     1006.201        1.407        0.289      148.798       24.987        0.028      333.151        2.278      863.779
01/04/2014  06:21:00      -72.915      114.699      -19.645       49.407       50.867       23.573     2441.081     2587.451      555.664        1.222        0.279      135.913       24.917        0.034      333.211        2.377      863.815
01/04/2014  06:22:00      -50.566      134.758      -14.700       43.433       47.374       28.308     1886.447     2244.296      801.329        1.293        0.247      143.933       28.662        0.040      333.195        2.350      863.849
01/04/2014  06:23:00      -81.831      126.698      -22.750       54.766       71.892       38.716     2999.350     5168.513     1498.940        1.646        0.483      150.826       34.486        0.052      333.224        2.397      863.864
01/04/2014  06:24:00      -80.894      176.040      -31.623       64.543      106.284       41.850     4165.859    11296.372     1751.433        2.787        0.861      193.737       42.415        0.048      333.278        2.485      863.851
01/04/2014  06:25:00      -90.690      172.310      -29.588       45.336       84.926       31.967     2055.335     7212.464     1021.888        2.454        0.514      194.719       34.289        0.031      333.307        2.533      863.840
01/04/2014  06:26:00     -119.794      131.166      -24.788       54.912       59.249       44.869     3015.290     3510.489     2013.194        2.035        0.427      177.638       29.741        0.028      333.355        2.614      863.821
01/04/2014  06:27:00     -103.595       96.901      -23.932       47.849       91.433       34.263     2289.484     8360.010     1173.922        1.626        0.591      141.851       28.818        0.041      333.321        2.556      863.792
01/04/2014  06:28:00     -150.915      130.185      -25.091       67.473       71.910       39.687     4552.589     5171.084     1575.053        2.582        0.565      199.308       32.382        0.026      333.395        2.678      863.765
01/04/2014  06:29:00     -107.421      109.654      -20.647       49.059       51.887       30.409     2406.768     2692.222      924.730        1.501        0.301      153.503       23.286        0.023      333.363        2.629      863.735
01/04/2014  06:30:00     -105.139       82.158      -17.273       54.104       63.583       36.745     2927.263     4042.770     1350.221        1.321        0.416      133.432       35.938        0.073      333.369        2.636      863.717
01/04/2014  06:31:00     -141.159      152.640      -26.098       67.937       82.647       43.639     4615.426     6830.561     1904.389        2.863        0.668      207.906       43.465        0.044      333.432        2.740      863.720
01/04/2014  06:32:00      -86.164      123.097      -16.067       65.131       61.164       34.595     4242.051     3741.094     1196.823        1.601        0.459      150.257       29.365        0.038      333.444        2.760      863.738
01/04/2014  06:33:00      -84.854      121.106      -22.899       67.648       94.029       35.389     4576.289     8841.531     1252.358        1.853        0.734      147.874       22.123        0.022      333.424        2.728      863.771
01/04/2014  06:34:00      -66.877      100.687       -4.370       47.373       79.239       37.322     2244.211     6278.793     1392.968        1.227        0.496      120.873       38.223        0.100      333.452        2.776      863.792
01/04/2014  06:35:00      -81.706       79.862      -20.194       51.598       49.632       28.456     2662.304     2463.298      809.735        0.970        0.297      114.253       27.064        0.056      333.379        2.655      863.807
01/04/2014  06:36:00      -34.818       53.853       -8.074       39.797       30.414       21.747     1583.814      924.988      472.947        0.358        0.149       64.128       14.110        0.048      333.489        2.837      863.807
01/04/2014  06:37:00      -81.407       35.246        1.606       52.522       27.275       25.290     2758.515      743.917      639.576        0.601        0.207       88.710       20.806        0.055      333.377        2.650      863.806
01/04/2014  06:38:00      -31.485        9.998       -2.736       45.313       28.645       19.989     2053.239      820.512      399.555        0.219        0.164       33.034       16.692        0.255      333.344        2.598      863.836
01/04/2014  06:39:00      -11.867       60.146       -8.785       38.977       35.904       19.313     1519.236     1289.072      372.976        0.351        0.159       61.306       17.415        0.081      333.377        2.650      863.859
01/04/2014  06:40:00      -35.478       71.790       -7.902       40.781       54.219       25.971     1663.124     2939.710      674.486        0.588        0.264       80.078       22.463        0.079      333.337        2.584      863.874
01/04/2014  06:41:00      -10.779      121.478       -9.934       55.984       56.237       25.328     3134.189     3162.548      641.505        1.095        0.347      121.955       19.445        0.025      333.349        2.604      863.895
01/04/2014  06:42:00        4.794       95.627      -13.349       31.604       37.014       20.599      998.804     1370.020      424.338        0.607        0.140       95.747       21.352        0.050      333.188        2.338      863.902
01/04/2014  06:43:00       -2.787       88.159       -2.249       27.446       43.780       27.066      753.281     1916.709      732.588        0.559        0.170       88.203       26.658        0.091      333.204        2.366      863.906
01/04/2014  06:44:00      -24.151      224.084      -30.149       39.946       88.702       30.509     1595.668     7868.017      930.816        3.105        0.520      225.382       34.359        0.023      333.221        2.389      863.923
01/04/2014  06:45:00      -66.402      230.625      -27.396       33.235       76.523       34.368     1104.553     5855.816     1181.183        3.324        0.407      239.994       34.567        0.021      333.155        2.281      863.933
01/04/2014  06:46:00     -101.187      160.688      -33.574       48.940       41.183       30.579     2395.150     1696.035      935.104        2.111        0.251      189.893       28.554        0.023      333.229        2.404      863.945
01/04/2014  06:47:00      -58.626      170.575      -23.645       65.854       69.257       32.177     4336.692     4796.472     1035.367        2.163        0.508      180.369       22.757        0.016      333.153        2.279      863.967
01/04/2014  06:48:00       -3.727      188.608      -21.408       47.958       60.964       24.766     2300.011     3716.619      613.365        2.134        0.331      188.645       25.867        0.019      333.048        2.106      864.004
01/04/2014  06:49:00       98.186      116.617       -0.172       59.384       64.092       44.827     3526.441     4107.842     2009.482        1.644        0.482      152.447       43.291        0.081      332.869        1.810      864.041
01/04/2014  06:50:00       78.526       54.166       57.119       47.451       45.215       37.598     2251.603     2044.436     1413.616        0.904        0.285       95.396       28.030        0.086      332.664        1.473      864.072
01/04/2014  06:51:00       97.885       54.656       21.075       33.118       33.433       30.301     1096.833     1117.736      918.156        0.807        0.157      112.110       25.914        0.053      332.557        1.296      864.112
01/04/2014  06:52:00      113.337       60.570        8.293       43.220       37.791       25.151     1868.003     1428.168      632.567        1.025        0.196      128.507       18.311        0.020      332.525        1.242      864.140
01/04/2014  06:53:00      107.889       66.494       10.832       30.479       23.204       24.016      928.958      538.428      576.771        0.911        0.102      126.734       17.316        0.019      332.452        1.126      864.175
01/04/2014  06:54:00       96.042       61.820       23.597       39.719       19.954       31.407     1577.578      398.146      986.415        0.828        0.148      114.218       28.180        0.061      332.442        1.107      864.187
01/04/2014  06:55:00       92.577       54.063       24.488       25.660       18.458       25.693      658.424      340.693      660.130        0.688        0.083      107.207       21.063        0.039      332.444        1.112      864.207
01/04/2014  06:56:00       83.643       65.901       21.093       20.080       18.800       19.841      403.212      353.430      393.653        0.647        0.058      106.486       10.071        0.009      332.444        1.111      864.220
01/04/2014  06:57:00       35.640       48.047       -1.551       34.295       25.312       16.195     1176.129      640.698      262.294        0.283        0.104       59.823        7.449        0.016      332.434        1.094      864.221
01/04/2014  06:58:00       30.481       14.894       -5.298       17.795       20.369       12.194      316.667      414.895      148.686        0.103        0.044       33.925        9.529        0.079      332.543        1.271      864.218
01/04/2014  06:59:00        3.793       18.756        0.649       36.357       17.859       15.869     1321.827      318.949      251.819        0.113        0.095       19.135        9.171        0.230      332.565        1.312      864.214
01/04/2014  07:00:00        1.800       80.089       -4.941       24.468       41.088       20.632      598.674     1688.196      425.679        0.458        0.136       80.109       26.055        0.106      332.877        1.826      864.231
01/04/2014  07:01:00       40.010       52.659       -1.346       16.769       29.596       19.858      281.183      875.895      394.359        0.296        0.078       66.134       16.267        0.061      332.800        1.699      864.251
01/04/2014  07:02:00       64.729       21.559       14.221       23.304       22.069       16.571      543.059      487.019      274.607        0.308        0.065       68.225        9.960        0.021      332.733        1.589      864.266
01/04/2014  07:03:00      104.541       35.498       12.361       25.373       15.299       21.595      643.791      234.056      466.329        0.684        0.067      110.403       16.548        0.022      332.639        1.434      864.290
01/04/2014  07:04:00       28.807       34.712       41.291       54.466       29.009       35.298     2966.586      841.547     1245.919        0.440        0.253       45.109       40.791        0.818      332.641        1.435      864.306
01/04/2014  07:05:00       -0.050       34.434       50.981       11.344       20.668       10.739      128.683      427.156      115.334        0.223        0.034       34.434       10.277        0.089      332.572        1.321      864.341
01/04/2014  07:06:00       15.089       29.614       50.370       25.853       26.630       19.450      668.402      709.158      378.313        0.270        0.088       33.236       19.447        0.342      332.565        1.310      864.380
01/04/2014  07:07:00       96.410       45.402       17.982       26.004       21.279       18.697      676.228      452.790      349.590        0.658        0.074      106.565        9.146        0.007      332.661        1.470      864.420
01/04/2014  07:08:00       99.906       41.483        9.844       17.236       14.957       17.756      297.087      223.710      315.270        0.632        0.042      108.176        7.229        0.004      332.622        1.404      864.457
01/04/2014  07:09:00      104.043       40.593       15.316       28.658       32.500       22.315      821.256     1056.276      497.978        0.754        0.119      111.681       14.249        0.016      332.594        1.357      864.483
01/04/2014  07:10:00       76.446       37.508       -1.067       37.906       26.772       22.493     1436.861      716.764      505.927        0.496        0.133       85.151       13.085        0.024      332.497        1.197      864.494
01/04/2014  07:11:00       86.147       48.891       17.353       36.673       21.808       20.162     1344.935      475.599      406.522        0.617        0.111       99.053       11.241        0.013      332.455        1.128      864.499
01/04/2014  07:12:00       94.000       39.695        3.549       35.613       26.582       21.417     1268.262      706.587      458.693        0.643        0.122      102.038       14.391        0.020      332.500        1.203      864.509
01/04/2014  07:13:00       81.899       48.931       14.480       29.444       27.085       18.136      866.947      733.593      328.925        0.562        0.096       95.403        7.017        0.005      332.490        1.186      864.519
01/04/2014  07:14:00       41.376       44.008        0.205       28.746       24.682       17.556      826.339      609.190      308.209        0.270        0.087       60.404       10.283        0.029      332.450        1.120      864.542
01/04/2014  07:15:00       35.447       55.183       -6.673       25.799       17.240       21.477      665.592      297.205      461.273        0.288        0.071       65.587       16.586        0.064      332.420        1.071      864.569
01/04/2014  07:16:00       69.829       61.418        1.870       34.438       29.562       33.666     1185.946      873.892     1133.424        0.592        0.160       92.996       24.523        0.070      332.399        1.035      864.612
01/04/2014  07:17:00       52.452       72.331      -13.598       46.410       32.619       27.627     2153.904     1063.994      763.270        0.607        0.199       89.348       23.837        0.071      332.404        1.045      864.641
01/04/2014  07:18:00       55.759       53.705        6.847       35.110       22.296       23.448     1232.733      497.098      549.811        0.416        0.114       77.417       14.060        0.033      332.277        0.834      864.684
01/04/2014  07:19:00       44.260       84.257       -8.702       27.396       34.165       24.209      750.533     1167.235      586.076        0.582        0.125       95.174       19.235        0.041      332.340        0.938      864.727
01/04/2014  07:20:00       98.921       88.349        1.990       40.056       33.639       26.744     1604.469     1131.574      715.227        1.052        0.173      132.630       20.687        0.024      332.483        1.175      864.757
01/04/2014  07:21:00       20.031       66.049        1.138       34.317       42.642       29.216     1177.677     1818.305      853.603        0.431        0.192       69.020       23.338        0.114      332.477        1.166      864.790
01/04/2014  07:22:00       26.221       93.977      -12.923       34.385       23.564       16.774     1182.321      555.239      281.373        0.585        0.101       97.567       13.266        0.018      332.484        1.175      864.812
01/04/2014  07:23:00       35.366       65.570       -1.529       34.638       35.197       20.600     1199.814     1238.859      424.356        0.421        0.143       74.499       19.165        0.066      332.377        1.000      864.826
01/04/2014  07:24:00       43.155       93.024       -9.647       30.839       38.891       21.111      951.020     1512.528      445.694        0.676        0.145      102.547       22.645        0.049      332.420        1.071      864.836
01/04/2014  07:25:00      -16.487       60.247      -12.809       18.280       22.857       11.064      334.162      522.428      122.410        0.252        0.049       62.462        7.442        0.014      332.465        1.145      864.846
01/04/2014  07:26:00       30.803       56.327       -4.886       19.025       14.117       15.857      361.961      199.301      251.455        0.248        0.041       64.200       10.414        0.026      332.433        1.090      864.861
01/04/2014  07:27:00       53.032       45.807       10.353       18.341       22.414       17.787      336.409      502.394      316.389        0.309        0.058       70.077       10.928        0.024      332.338        0.935      864.872
01/04/2014  07:28:00       52.413       32.694       15.125       24.776       14.982       17.708      613.826      224.475      313.563        0.260        0.058       61.774       15.708        0.065      332.373        0.993      864.897
01/04/2014  07:29:00       57.440       26.732        4.906       18.612       13.177       14.103      346.422      173.629      198.887        0.238        0.036       63.356       11.120        0.031      332.393        1.027      864.931
01/04/2014  07:30:00       66.732       25.077        3.225       13.579       12.293       11.706      184.394      151.126      137.032        0.278        0.024       71.289        8.474        0.014      332.406        1.049      864.955
01/04/2014  07:31:00       66.845       49.612       29.247       16.495       16.835       22.107      272.073      283.424      488.709        0.441        0.052       83.244        9.438        0.013      332.368        0.984      864.962
01/04/2014  07:32:00       78.917       56.148       41.000       27.807       20.556       24.601      773.210      422.542      605.187        0.643        0.090       96.853       12.484        0.017      332.441        1.105      864.988
01/04/2014  07:33:00       91.876       40.138       22.706       27.539       20.507       27.440      758.382      420.522      752.970        0.625        0.097      100.261       19.367        0.037      332.421        1.072      865.023
01/04/2014  07:34:00       21.901        9.661       15.868       25.480       24.164       17.085      649.222      583.900      291.908        0.117        0.076       23.937       14.256        0.355      332.413        1.059      865.046
01/04/2014  07:35:00       27.863       26.388       24.661       28.064       19.129       17.643      787.596      365.937      311.260        0.177        0.073       38.375       14.264        0.138      332.435        1.096      865.102
01/04/2014  07:36:00       60.948       37.476       40.501       18.969       29.382       25.891      359.831      863.278      670.367        0.433        0.095       71.548       12.896        0.032      332.461        1.138      865.150
01/04/2014  07:37:00       18.803       62.272       71.702       27.176       32.631       22.697      738.527     1064.795      515.148        0.584        0.116       65.048       17.342        0.071      332.482        1.174      865.202
01/04/2014  07:38:00       18.000       66.687       80.667       37.824       40.175       27.928     1430.653     1614.026      779.960        0.755        0.191       69.073       20.619        0.089      332.576        1.327      865.233
01/04/2014  07:39:00       20.181       80.299       94.497       33.333       38.060       20.556     1111.071     1448.548      422.562        0.938        0.149       82.796       19.808        0.057      332.537        1.264      865.266
01/04/2014  07:40:00       22.993       37.637       74.086       42.388       52.774       33.646     1796.766     2785.044     1132.025        0.657        0.286       44.105       37.292        0.715      332.467        1.149      865.304
01/04/2014  07:41:00       31.793       21.158       48.498       44.468       39.527       30.006     1977.360     1562.409      900.380        0.412        0.222       38.190       31.651        0.687      332.495        1.195      865.332
01/04/2014  07:42:00       27.282        1.185       44.302       38.408       46.906       27.830     1475.203     2200.166      774.492        0.358        0.222       27.308       26.570        0.947      332.548        1.281      865.349
01/04/2014  07:43:00       20.358        5.388       35.062       39.529       33.186       24.215     1562.578     1101.291      586.371        0.246        0.163       21.059       14.975        0.506      332.563        1.306      865.371
01/04/2014  07:44:00       30.967       20.871       43.613       38.869       57.697       34.891     1510.801     3328.903     1217.383        0.468        0.303       37.344       38.806        1.080      332.557        1.296      865.402
01/04/2014  07:45:00       29.358       30.105       49.927       27.987       39.116       26.369      783.276     1530.077      695.344        0.363        0.150       42.050       24.999        0.353      332.578        1.332      865.435
01/04/2014  07:46:00       26.391       -8.775       31.722       34.535       52.394       32.728     1192.676     2745.117     1071.115        0.339        0.250       27.811       25.990        0.873      332.663        1.473      865.464
01/04/2014  07:47:00       13.218       31.769       53.899       21.828       38.992       21.419      476.446     1520.383      458.788        0.327        0.123       34.409       24.276        0.498      332.638        1.431      865.490
01/04/2014  07:48:00       31.850       38.263       53.429       30.261       37.465       30.924      915.727     1403.624      956.305        0.430        0.164       49.784       25.698        0.266      332.646        1.445      865.519
01/04/2014  07:49:00       18.945       31.515       56.119       19.416       35.286       20.800      376.983     1245.121      432.638        0.328        0.103       36.771       24.731        0.452      332.665        1.475      865.553
01/04/2014  07:50:00       27.996        1.919       17.734       26.901       50.896       22.748      723.687     2590.397      517.468        0.247        0.192       28.062       24.568        0.766      332.707        1.544      865.601
01/04/2014  07:51:00       19.469       14.569       35.253       24.180       27.145       24.619      584.685      736.860      606.117        0.188        0.096       24.317       20.663        0.722      332.783        1.671      865.644
01/04/2014  07:52:00       40.488        7.200       31.079       27.160       45.860       25.525      737.678     2103.181      651.511        0.307        0.175       41.123       27.267        0.440      332.717        1.561      865.661
01/04/2014  07:53:00       17.117       23.872       39.997       20.630       19.033       15.282      425.593      362.264      233.536        0.174        0.051       29.375       10.483        0.127      332.774        1.656      865.684
01/04/2014  07:54:00       76.099       22.633       57.316       58.799       40.528       36.974     3457.289     1642.489     1367.099        0.803        0.323       79.394       37.557        0.224      332.683        1.505      865.703
01/04/2014  07:55:00       74.718       48.137       50.019       51.616       39.224       39.157     2664.232     1538.507     1533.249        0.807        0.287       88.882       33.368        0.141      332.631        1.418      865.734
01/04/2014  07:56:00       -4.978       34.656       59.194       18.436       28.983       17.954      339.880      839.990      322.334        0.312        0.075       35.011       19.132        0.299      332.823        1.737      865.761
01/04/2014  07:57:00       21.234      -28.814       19.680       18.569       34.383       23.325      344.815     1182.196      544.059        0.187        0.104       35.793       24.734        0.478      332.788        1.680      865.765
01/04/2014  07:58:00       31.853        2.384       22.029       23.785       34.394       25.299      565.718     1182.963      640.037        0.195        0.119       31.942       22.067        0.477      332.845        1.772      865.780
01/04/2014  07:59:00       69.435       49.389       36.820       23.967       20.308       26.687      574.432      412.432      712.176        0.516        0.085       85.209       12.312        0.021      332.727        1.578      865.809
01/04/2014  08:00:00       46.134       33.225       22.160       27.152       24.672       23.260      737.213      608.702      541.041        0.280        0.094       56.853       12.832        0.051      332.807        1.709      865.827
01/04/2014  08:01:00       13.446       -1.860        4.265       24.049       15.644       17.689      578.375      244.724      312.916        0.067        0.057       13.574       10.562        0.605      332.772        1.654      865.842
01/04/2014  08:02:00        0.727       -6.783        9.188       20.519       29.478       12.804      421.038      868.940      163.941        0.079        0.073        6.822       10.129        2.205      332.848        1.778      865.840
01/04/2014  08:03:00      -73.108        2.150       -8.371       32.085       29.169       14.135     1029.468      850.859      199.796        0.375        0.104       73.139        7.939        0.012      332.546        1.277      865.867
01/04/2014  08:04:00      -20.887      -28.168        2.979       31.494       14.040        9.624      991.886      197.113       92.616        0.126        0.064       35.067        9.398        0.072      332.694        1.523      865.864
01/04/2014  08:05:00       -6.171      -18.539       17.316       44.208       18.610       16.401     1954.342      346.320      269.008        0.163        0.128       19.539       22.512        1.327      332.826        1.742      865.872
01/04/2014  08:06:00       25.699       27.836       32.856       16.702       17.687        9.090      278.943      312.844       82.634        0.159        0.034       37.885        7.150        0.036      332.948        1.944      865.886
01/04/2014  08:07:00       29.577        5.655       -3.495       22.994       28.700        8.845      528.724      823.710       78.226        0.117        0.072       30.112        2.415        0.006      332.913        1.886      865.898
01/04/2014  08:08:00        3.489      -26.840       -7.734       13.748       13.253       14.975      188.994      175.630      224.237        0.069        0.029       27.066        7.626        0.079      333.162        2.296      865.917
01/04/2014  08:09:00        4.854       -8.943       18.602       11.191       27.255       16.133      125.240      742.861      260.276        0.079        0.056       10.175       18.008        3.132      333.463        2.793      865.935
01/04/2014  08:10:00       -8.564       11.313       16.287       15.724       15.715       16.737      247.250      246.946      280.128        0.062        0.039       14.189        8.445        0.354      333.278        2.488      865.944
01/04/2014  08:11:00        9.557       18.957        3.606       13.464       16.726       17.116      181.271      279.754      292.964        0.061        0.038       21.230       13.825        0.424      333.264        2.464      865.942
01/04/2014  08:12:00       22.773       31.547       -3.044       14.393       13.566       17.296      207.150      184.039      299.139        0.111        0.035       38.908       12.340        0.101      333.192        2.344      865.933
01/04/2014  08:13:00       41.454       19.500       -0.088       15.255       15.971       13.241      232.709      255.085      175.316        0.138        0.033       45.812        6.826        0.022      333.165        2.302      865.935
01/04/2014  08:14:00        9.875        4.667       -0.966       21.839        8.390        7.165      476.922       70.389       51.341        0.036        0.030       10.922        5.432        0.247      333.278        2.488      865.961
01/04/2014  08:15:00      -64.926        7.741       -4.674       25.464       17.866        8.228      648.431      319.184       67.695        0.267        0.052       65.386        8.189        0.016      333.045        2.103      865.979
01/04/2014  08:16:00      -45.716       -6.041        4.032       30.640       19.918       12.313      938.788      396.722      151.605        0.181        0.074       46.114       15.291        0.110      333.184        2.332      865.988
01/04/2014  08:17:00      -14.387        0.457        7.182       12.935       12.157        9.080      167.325      147.790       82.444        0.033        0.020       14.394        9.048        0.395      333.364        2.629      865.995
01/04/2014  08:18:00      -23.867        4.538       -2.051       21.178       13.196        8.167      448.508      174.144       66.706        0.064        0.034       24.294       10.184        0.176      333.209        2.373      866.001
01/04/2014  08:19:00      -79.202       19.780      -18.260       17.244       27.551       13.800      297.343      759.069      190.450        0.412        0.062       81.634        4.986        0.004      333.157        2.288      866.002
01/04/2014  08:20:00      -55.429      -37.035       -9.031       20.553       26.316       15.001      422.436      692.514      225.035        0.293        0.067       66.663       12.592        0.036      333.093        2.185      866.002
01/04/2014  08:21:00      -36.563        3.491       -2.584       10.625       13.748       11.133      112.893      189.000      123.950        0.089        0.021       36.729        5.286        0.021      333.166        2.301      866.020
01/04/2014  08:22:00      -42.177        5.842      -10.424       17.502       13.344       11.003      306.309      178.060      121.064        0.126        0.030       42.579        8.272        0.038      333.218        2.388      866.019
01/04/2014  08:23:00      -52.815      -28.984       -0.374       26.265       12.517        8.902      689.870      156.683       79.254        0.228        0.046       60.246       11.325        0.035      333.237        2.419      865.998
01/04/2014  08:24:00      -65.750      -16.460        1.788       22.204       14.869       13.714      493.009      221.074      188.081        0.275        0.045       67.779        9.970        0.022      333.166        2.302      865.976
01/04/2014  08:25:00      -94.313       -3.148      -12.133       28.188       27.191       14.996      794.583      739.349      224.888        0.541        0.088       94.365       13.686        0.021      333.137        2.255      865.966
01/04/2014  08:26:00      -54.408      -15.672       -3.751       20.753       26.772       10.171      430.693      716.762      103.440        0.224        0.063       56.620        7.778        0.019      333.205        2.367      865.969
01/04/2014  08:27:00      -78.276      -36.887       -1.691       21.120       14.929       14.941      446.060      222.869      223.241        0.419        0.045       86.532        8.480        0.010      333.210        2.374      865.974
01/04/2014  08:28:00      -74.164      -71.545       -8.728       31.318       21.872       18.888      980.845      478.400      356.761        0.626        0.091      103.049        4.903        0.002      333.198        2.355      865.979
01/04/2014  08:29:00      -39.840      -26.062       -1.092       29.092       42.187       16.124      846.352     1779.743      259.992        0.258        0.144       47.607       18.251        0.147      333.263        2.463      865.985
01/04/2014  08:30:00      -40.647       17.694       -9.893       17.570       19.151       10.039      308.709      366.776      100.779        0.142        0.039       44.331        8.634        0.038      333.296        2.517      865.994
01/04/2014  08:31:00      -35.084      -11.461       -2.023       12.398       12.078        8.299      153.710      145.867       68.877        0.087        0.018       36.908        7.059        0.037      333.308        2.537      866.007
01/04/2014  08:32:00       -8.478       13.649        4.152       24.934       14.468       13.096      621.683      209.311      171.497        0.064        0.050       16.068        7.492        0.217      333.455        2.779      866.039
01/04/2014  08:33:00       -0.276       27.249        2.803       26.045       19.885       23.373      678.359      395.405      546.284        0.118        0.081       27.250       19.401        0.507      333.571        2.974      866.068
01/04/2014  08:34:00       18.410       56.249       -9.035       16.176       16.896       16.012      261.648      285.468      256.388        0.219        0.040       59.185       11.633        0.039      333.422        2.726      866.087
01/04/2014  08:35:00        5.343       47.983      -10.366       16.897       17.203       13.405      285.524      295.955      179.682        0.160        0.038       48.279        6.108        0.016      333.495        2.849      866.101
01/04/2014  08:36:00       27.076       19.942        1.614       24.685       18.876       16.909      609.345      356.298      285.927        0.119        0.063       33.628       13.731        0.167      333.811        3.371      866.115
01/04/2014  08:37:00       31.430       39.092        7.547       25.332       22.171       24.644      641.706      491.532      607.323        0.216        0.087       50.160       18.265        0.133      333.658        3.116      866.143
01/04/2014  08:38:00       51.938       69.250       -7.864       16.543       35.166       18.586      273.684     1236.683      345.423        0.471        0.093       86.563       18.123        0.044      333.552        2.941      866.173
01/04/2014  08:39:00       39.336       45.798       -2.443       17.568       28.769       20.821      308.635      827.654      433.525        0.261        0.078       60.372       18.998        0.099      333.683        3.159      866.205
01/04/2014  08:40:00       16.878        1.912       21.950       16.967        6.443       10.174      287.882       41.509      103.511        0.060        0.022       16.986        7.530        0.197      333.917        3.547      866.217
01/04/2014  08:41:00      -10.280       -3.919        1.961        7.961        7.166       13.372       63.381       51.357      178.818        0.021        0.015       11.001        4.964        0.204      333.793        3.342      866.220
01/04/2014  08:42:00      -33.805        8.896       -3.715        7.688        8.853        8.582       59.100       78.368       73.656        0.072        0.011       34.956        6.663        0.036      333.478        2.817      866.221
01/04/2014  08:43:00      -18.443        5.954       -0.489       11.566       18.112       13.664      133.764      328.060      186.711        0.051        0.032       19.380        9.792        0.255      333.636        3.081      866.233
01/04/2014  08:44:00       36.589       42.249        6.902       31.652       12.682       17.420     1001.834      160.841      303.473        0.232        0.073       55.891       16.919        0.092      333.769        3.302      866.229
01/04/2014  08:45:00       51.943       13.562       18.946       32.008       16.236       17.462     1024.525      263.597      304.923        0.242        0.080       53.684       14.487        0.073      333.751        3.271      866.252
01/04/2014  08:46:00       31.083       58.045        1.364       36.199       36.850       24.941     1310.399     1357.919      622.078        0.381        0.165       65.844       20.100        0.093      333.643        3.092      866.260
01/04/2014  08:47:00        6.807       57.150       -3.474       25.988       35.439       29.031      675.384     1255.910      842.806        0.305        0.139       57.554       19.845        0.119      333.753        3.275      866.262
01/04/2014  08:48:00       60.881       53.577        5.315       34.435       24.744       27.475     1185.772      612.256      754.880        0.458        0.128       81.098       13.367        0.027      333.711        3.205      866.264
01/04/2014  08:49:00       19.893       36.241       -1.707       20.046       38.731       20.903      401.835     1500.117      436.943        0.203        0.117       41.342       17.395        0.177      333.854        3.442      866.267
01/04/2014  08:50:00       22.777       60.787       13.390       40.388       34.069       30.141     1631.179     1160.664      908.468        0.405        0.185       64.914       26.716        0.169      333.836        3.412      866.273
01/04/2014  08:51:00       14.710       23.519       32.493       30.789       32.006       28.790      947.979     1024.359      828.878        0.231        0.140       27.741       20.796        0.562      333.951        3.602      866.285
01/04/2014  08:52:00        4.626       71.122       68.251       28.064       50.746       39.954      787.564     2575.198     1596.337        0.735        0.248       71.272       31.856        0.200      333.817        3.380      866.300
01/04/2014  08:53:00       22.747       72.886       78.902       48.010       36.744       25.315     2304.975     1350.115      640.830        0.817        0.215       76.354       18.031        0.056      333.783        3.324      866.314
01/04/2014  08:54:00       71.783       79.939       63.574       32.296       26.263       32.165     1043.013      689.750     1034.571        0.918        0.138      107.439       21.103        0.039      333.702        3.191      866.325
01/04/2014  08:55:00       78.947       27.026       31.564       43.042       32.297       37.967     1852.585     1043.108     1441.480        0.615        0.217       83.445       27.973        0.112      333.799        3.351      866.334
01/04/2014  08:56:00       16.296       29.526       42.859       33.515       28.551       19.620     1123.242      815.157      384.929        0.265        0.116       33.725       11.364        0.114      334.056        3.776      866.336
01/04/2014  08:57:00       15.973       19.896       48.060       23.284       57.209       36.948      542.147     3272.866     1365.172        0.407        0.259       25.514       40.152        2.477      334.002        3.688      866.348
01/04/2014  08:58:00        2.919       49.564       65.791       24.711       31.637       25.096      610.654     1000.891      629.785        0.452        0.112       49.650       19.858        0.160      334.078        3.814      866.376
01/04/2014  08:59:00       12.641       54.697       68.261       48.002       35.424       27.155     2304.221     1254.849      737.391        0.605        0.215       56.139       25.531        0.207      334.038        3.748      866.411
01/04/2014  09:00:00       85.660       60.648       58.740       49.361       36.419       44.638     2436.514     1326.332     1992.573        1.011        0.288      104.957       28.081        0.072      333.865        3.460      866.444
01/04/2014  09:01:00      132.455       93.460       35.967       83.356       44.029       46.802     6948.162     1938.530     2190.432        1.932        0.554      162.108       46.421        0.082      333.758        3.279      866.456
01/04/2014  09:02:00       66.903       33.475       21.047       56.095       48.930       37.046     3146.686     2394.158     1372.430        0.648        0.346       74.811       29.677        0.157      333.903        3.523      866.469
01/04/2014  09:03:00       66.328       91.075       88.835       73.561       63.453       42.065     5411.232     4026.308     1769.491        1.589        0.560      112.668       38.974        0.120      333.827        3.396      866.486
01/04/2014  09:04:00       38.679      113.303      110.282       47.051       61.436       44.695     2213.766     3774.390     1997.671        1.724        0.399      119.723       40.464        0.114      333.862        3.454      866.495
01/04/2014  09:05:00       70.244      113.290      105.571       64.483       61.257       59.295     4158.080     3752.453     3515.888        2.017        0.571      133.299       50.806        0.145      333.805        3.359      866.501
01/04/2014  09:06:00      135.823      132.068       97.064       91.365       70.990       69.520     8347.637     5039.576     4833.064        3.176        0.911      189.446       65.545        0.120      333.594        3.009      866.510
01/04/2014  09:07:00      114.697      126.787       88.266       75.404       51.524       58.124     5685.745     2654.744     3378.427        2.437        0.586      170.969       47.991        0.079      333.723        3.223      866.553
01/04/2014  09:08:00      159.294       86.168       44.204       77.188       61.096       52.019     5958.048     3732.739     2705.981        2.357        0.620      181.107       43.584        0.058      333.724        3.223      866.599
01/04/2014  09:09:00      142.378       99.406       55.309       52.722       52.854       50.408     2779.587     2793.596     2540.998        2.066        0.406      173.646       26.603        0.023      333.741        3.252      866.628
01/04/2014  09:10:00      104.333       74.799       26.092       78.753       58.234       56.470     6202.008     3391.152     3188.900        1.497        0.639      128.376       50.677        0.156      333.884        3.491      866.612
01/04/2014  09:11:00      150.603       69.206       35.934       74.333       50.224       48.799     5525.422     2522.438     2381.295        1.959        0.521      165.743       35.920        0.047      333.739        3.248      866.606
01/04/2014  09:12:00       85.424       68.872       41.292       64.608       49.339       62.179     4174.246     2434.323     3866.253        1.211        0.524      109.730       37.319        0.116      333.838        3.415      866.629
01/04/2014  09:13:00      111.004       59.087        4.208       56.743       59.248       44.908     3219.786     3510.303     2016.688        1.229        0.437      125.751       29.135        0.054      333.801        3.354      866.659
01/04/2014  09:14:00      165.161      118.298       99.608      108.281       71.320       68.262    11724.751     5086.575     4659.680        3.633        1.074      203.156       67.906        0.112      333.740        3.248      866.693
01/04/2014  09:15:00      193.113      110.250       59.454       99.119       67.994       58.209     9824.578     4623.154     3388.308        3.541        0.892      222.369       59.522        0.072      333.633        3.072      866.725
01/04/2014  09:16:00      128.648       82.008       24.863       68.426       52.047       46.499     4682.075     2708.842     2162.157        1.672        0.478      152.563       34.065        0.050      333.551        2.939      866.761
01/04/2014  09:17:00       77.662       54.312       32.741       61.207       38.370       38.120     3746.351     1472.272     1453.137        0.836        0.334       94.769       35.046        0.137      333.874        3.475      866.789
01/04/2014  09:18:00      106.607       99.222       56.058       53.203       36.113       49.622     2830.596     1304.155     2462.338        1.547        0.330      145.637       28.816        0.039      333.864        3.459      866.823
01/04/2014  09:19:00       68.503       64.657       95.331       76.809       61.872       47.870     5899.558     3828.169     2291.493        1.499        0.601       94.197       45.435        0.233      333.962        3.621      866.858
01/04/2014  09:20:00      109.908      108.004      116.760      114.517       77.132       70.798    13114.242     5949.366     5012.316        3.072        1.204      154.093       70.592        0.210      333.738        3.247      866.889
01/04/2014  09:21:00       83.193      105.140      107.391       92.348       85.443       71.790     8528.103     7300.465     5153.861        2.524        1.049      134.073       63.156        0.222      333.687        3.162      866.912
01/04/2014  09:22:00      100.351      117.288       87.319       89.385       84.467       74.655     7989.667     7134.665     5573.434        2.607        1.035      154.359       54.575        0.125      333.838        3.413      866.906
01/04/2014  09:23:00      155.272      104.718       81.533      115.735       73.800       67.825    13394.563     5446.507     4600.201        3.258        1.172      187.284       69.982        0.140      333.659        3.114      866.892
01/04/2014  09:24:00       68.900      112.124      108.555       78.589       64.193       58.910     6176.290     4120.701     3470.367        2.143        0.688      131.602       48.363        0.135      333.804        3.358      866.894
01/04/2014  09:25:00      168.529       99.505       73.350      119.060       77.508       61.627    14175.331     6007.542     3797.856        3.383        1.199      195.713       67.623        0.119      333.803        3.354      866.912
01/04/2014  09:26:00      201.874      120.670       69.128      141.905       77.799       75.187    20137.120     6052.739     5653.126        4.596        1.592      235.190       67.817        0.083      333.599        3.017      866.937
01/04/2014  09:27:00       49.396       82.744       94.757       48.144       60.675       41.370     2317.813     3681.508     1711.446        1.299        0.386       96.366       26.686        0.077      333.919        3.549      866.957
01/04/2014  09:28:00      172.086      111.790       86.277       91.545       60.140       51.394     8380.510     3616.879     2641.312        3.209        0.732      205.208       38.902        0.036      333.681        3.153      866.959
01/04/2014  09:29:00      227.686       80.551       36.265      118.709       82.680       76.669    14091.838     6835.963     5878.157        4.322        1.340      241.515       75.146        0.097      333.438        2.749      866.966
01/04/2014  09:30:00       96.831       88.035       79.351       96.195       70.917       67.865     9253.553     5029.229     4605.687        2.115        0.944      130.868       65.171        0.248      333.578        2.984      866.965
01/04/2014  09:31:00      165.855       87.673       50.561       78.862       74.707       49.150     6219.218     5581.070     2415.702        2.598        0.711      187.602       37.777        0.041      333.626        3.061      866.987
01/04/2014  09:32:00      182.962      122.725       51.673       79.667       62.802       64.607     6346.871     3944.144     4174.042        3.283        0.723      220.310       46.190        0.044      333.569        2.966      867.005
01/04/2014  09:33:00      131.343       98.025       62.528       96.733       55.865       54.105     9357.204     3120.947     2927.343        2.308        0.770      163.889       49.139        0.090      333.713        3.205      866.997
01/04/2014  09:34:00      217.314      116.374       18.000       49.137       51.402       41.071     2414.449     2642.174     1686.804        3.392        0.337      246.513       20.187        0.007      333.491        2.837      867.006
01/04/2014  09:35:00      180.960      114.994       26.451       62.257       44.656       54.678     3875.984     1994.167     2989.684        2.776        0.443      214.406       40.661        0.036      333.484        2.825      867.012
01/04/2014  09:36:00      113.584       77.215       11.375       42.755       42.311       43.289     1827.989     1790.227     1873.921        1.224        0.275      137.345       19.668        0.021      333.789        3.333      867.017
01/04/2014  09:37:00      101.698       78.843       14.508       57.957       56.350       38.347     3359.032     3175.306     1470.468        1.239        0.400      128.680       11.664        0.008      333.947        3.596      867.027
01/04/2014  09:38:00      109.597       50.364       19.813       92.672       70.998       46.523     8588.040     5040.729     2164.407        1.536        0.790      120.615       32.605        0.073      333.955        3.606      867.055
01/04/2014  09:39:00      217.797      143.331       30.099       67.425       56.859       51.587     4546.067     3232.953     2661.177        3.966        0.522      260.729       27.539        0.011      333.487        2.829      867.074
01/04/2014  09:40:00      128.594       72.525       16.504       66.407       47.027       45.810     4409.895     2211.532     2098.557        1.539        0.436      147.636       37.965        0.066      333.729        3.233      867.098
01/04/2014  09:41:00       83.900       83.763       19.825       48.739       40.268       38.434     2375.477     1621.473     1477.154        0.996        0.274      118.556       20.347        0.029      334.004        3.691      867.131
01/04/2014  09:42:00       80.895       78.369       53.725       91.864       69.320       73.709     8439.076     4805.288     5433.033        1.712        0.934      112.631       64.539        0.328      334.087        3.827      867.167
01/04/2014  09:43:00      148.316       86.354       61.940       83.133       66.868       71.876     6911.111     4471.290     5166.196        2.492        0.827      171.624       50.948        0.088      333.717        3.213      867.200
01/04/2014  09:44:00      195.308      131.740       50.768       56.768       48.051       52.430     3222.581     2308.944     2748.933        3.318        0.414      235.586       39.714        0.028      333.576        2.977      867.212
01/04/2014  09:45:00       89.740      101.316       80.867       67.193       58.972       50.448     4514.838     3477.718     2544.981        1.770        0.527      135.344       16.554        0.015      333.923        3.554      867.197
01/04/2014  09:46:00        8.385       69.847      106.657       47.955       56.987       36.614     2299.643     3247.565     1340.581        1.160        0.344       70.349       38.486        0.299      334.047        3.760      867.190
01/04/2014  09:47:00       36.305      124.079      146.862       65.671       89.436       61.569     4312.622     7998.845     3790.744        2.719        0.805      129.281       61.658        0.227      333.906        3.527      867.179
01/04/2014  09:48:00      109.188      134.382      108.658       76.002       63.578       65.289     5776.263     4042.144     4262.665        2.793        0.704      173.149       56.232        0.105      333.681        3.153      867.175
01/04/2014  09:49:00       79.547       80.533       88.953       64.178       63.650       61.648     4118.826     4051.365     3800.520        1.635        0.599      113.195       54.455        0.231      333.721        3.221      867.172
01/04/2014  09:50:00      149.038       69.014       70.664       84.125       70.094       64.883     7076.971     4913.226     4209.775        2.408        0.810      164.241       54.004        0.108      333.670        3.135      867.184
01/04/2014  09:51:00      126.574       63.386        9.161       71.410       76.412       56.464     5099.389     5838.824     3188.178        1.712        0.706      141.558       35.188        0.062      333.707        3.197      867.192
01/04/2014  09:52:00      177.921      162.715       83.423       95.260       75.614       82.476     9074.376     5717.513     6802.228        4.334        1.080      241.105       66.069        0.075      333.631        3.069      867.220
01/04/2014  09:53:00      143.898       77.257       74.865       87.096       73.222       65.854     7585.647     5361.457     4336.801        2.478        0.864      163.326       53.778        0.108      333.714        3.208      867.254
01/04/2014  09:54:00       24.405      109.332      128.627       54.977       65.455       47.163     3022.514     4284.343     2224.334        1.931        0.477      112.023       43.109        0.148      333.905        3.525      867.262
01/04/2014  09:55:00       58.357      109.531      110.666       82.202       56.901       68.272     6757.166     3237.748     4661.031        2.115        0.733      124.107       68.695        0.306      333.755        3.276      867.263
01/04/2014  09:56:00       24.966       68.983      104.675       51.345       55.296       27.903     2636.339     3057.646      778.597        1.140        0.324       73.362       29.964        0.167      334.026        3.726      867.243
01/04/2014  09:57:00        3.634       55.787       71.517       36.470       51.624       42.021     1330.030     2664.998     1765.775        0.700        0.288       55.905       34.366        0.378      334.098        3.847      867.226
01/04/2014  09:58:00      100.840       73.827       52.911       81.749       45.875       56.319     6682.892     2104.539     3171.855        1.519        0.598      124.976       53.553        0.184      334.069        3.798      867.232
01/04/2014  09:59:00      188.245      116.321       28.383      100.698       54.368       52.656    10140.122     2955.861     2772.617        3.282        0.793      221.284       30.784        0.019      333.642        3.089      867.228
01/04/2014  10:00:00      209.260      143.172       60.555       83.936       60.979       61.354     7045.237     3718.382     3764.368        4.124        0.726      253.551       44.118        0.030      333.546        2.928      867.226
01/04/2014  10:01:00      120.440       80.562       47.507      100.907       64.621       54.328    10182.294     4175.933     2951.570        2.028        0.865      144.900       48.744        0.113      333.792        3.338      867.227
01/04/2014  10:02:00      153.389       73.123       29.609       77.142       63.142       60.479     5950.928     3986.965     3657.677        2.167        0.680      169.927       32.043        0.036      334.008        3.695      867.231
01/04/2014  10:03:00      166.335      108.839       48.788       77.714       71.980       78.585     6039.447     5181.076     6175.562        2.964        0.870      198.779       54.666        0.076      333.753        3.271      867.229
01/04/2014  10:04:00      133.943       89.785       45.699       74.532       63.142       59.176     5555.047     3986.870     3501.824        2.056        0.652      161.251       21.710        0.018      333.900        3.516      867.207
01/04/2014  10:05:00      150.173       98.772       53.045       67.090       53.814       49.813     4501.046     2895.948     2481.373        2.250        0.494      179.744       35.434        0.039      333.736        3.244      867.192
01/04/2014  10:06:00      113.517       66.945       30.095       56.914       51.538       37.548     3239.156     2656.176     1409.868        1.279        0.365      131.786       28.949        0.048      333.796        3.346      867.201
01/04/2014  10:07:00       47.343       76.970      101.936       71.987       76.371       67.093     5182.093     5832.466     4501.505        1.703        0.776       90.364       63.492        0.494      333.892        3.504      867.203
01/04/2014  10:08:00      119.071      115.413       94.138       64.539       62.176       53.888     4165.347     3865.795     2903.888        2.365        0.547      165.825       49.917        0.091      333.670        3.134      867.211
01/04/2014  10:09:00       44.058       48.154       62.311       63.079       68.642       45.640     3978.970     4711.767     2083.025        0.946        0.539       65.268       40.444        0.384      334.032        3.738      867.205
01/04/2014  10:10:00       20.242       19.020       60.015       42.758       61.498       27.584     1828.269     3782.047      760.904        0.537        0.319       27.776       21.853        0.619      334.163        3.954      867.179
01/04/2014  10:11:00       36.904        7.119       50.092       35.529       45.321       31.276     1262.344     2053.977      978.186        0.411        0.215       37.585       20.858        0.308      334.457        4.442      867.148
01/04/2014  10:12:00       41.361       55.331       70.852       50.429       37.946       38.851     2543.134     1439.932     1509.426        0.764        0.275       69.082       27.107        0.154      334.308        4.196      867.131
01/04/2014  10:13:00       82.531       20.154       61.441       59.719       71.649       55.378     3566.415     5133.628     3066.755        1.138        0.588       84.956       50.942        0.360      333.888        3.497      867.091
01/04/2014  10:14:00       66.377       95.285      105.082       71.604       59.744       42.012     5127.093     3569.391     1765.036        1.749        0.523      116.125       34.416        0.088      334.026        3.726      867.077
01/04/2014  10:15:00       84.344       97.646       80.017       57.043       48.896       50.292     3253.956     2390.841     2529.292        1.561        0.409      129.030       32.997        0.065      333.957        3.612      867.091
01/04/2014  10:16:00       11.366       45.045       57.694       42.881       68.160       38.516     1838.801     4645.764     1483.461        0.673        0.398       46.457       29.483        0.403      334.355        4.274      867.101
01/04/2014  10:17:00       87.520       85.182       47.471       53.054       52.052       66.134     2814.746     2709.377     4373.694        1.353        0.495      122.130       40.883        0.112      333.934        3.575      867.132
01/04/2014  10:18:00      111.839       85.340       57.607       29.873       28.568       35.122      892.394      816.148     1233.551        1.303        0.147      140.680       18.019        0.016      333.746        3.262      867.148
01/04/2014  10:19:00      102.168       83.771       21.475       49.781       51.418       40.582     2478.151     2643.858     1646.872        1.234        0.338      132.121       20.524        0.024      333.835        3.409      867.147
01/04/2014  10:20:00       82.148       54.932        8.915       36.102       21.142       26.130     1303.388      446.999      682.758        0.614        0.122       98.822       19.989        0.041      333.833        3.407      867.139
01/04/2014  10:21:00       95.688       65.442       14.064       35.072       20.067       22.909     1230.039      402.671      524.818        0.790        0.108      115.926        5.893        0.003      333.745        3.262      867.109
01/04/2014  10:22:00       50.857       98.078       74.907       53.828       41.799       68.441     2897.458     1747.149     4684.216        1.357        0.466      110.480       54.625        0.244      334.019        3.714      867.099
01/04/2014  10:23:00      140.836      133.467       76.166      105.780       48.460       67.674    11189.411     2348.362     4579.748        3.078        0.906      194.031       70.000        0.130      334.044        3.755      867.087
01/04/2014  10:24:00      151.510       86.630       29.491       58.163       41.106       49.630     3382.931     1689.712     2463.106        1.943        0.377      174.528       38.209        0.048      333.892        3.503      867.111
01/04/2014  10:25:00      161.039       91.463       47.138       79.862       56.485       63.348     6377.881     3190.611     4012.977        2.505        0.679      185.201       43.597        0.055      333.995        3.673      867.116
01/04/2014  10:26:00      142.384      122.980       66.407       47.815       34.652       48.509     2286.267     1200.759     2353.133        2.282        0.292      188.142       33.271        0.031      333.922        3.553      867.121
01/04/2014  10:27:00      101.106       84.454       65.135       71.910       57.767       45.777     5171.044     3336.986     2095.573        1.610        0.530      131.738       41.661        0.100      334.104        3.857      867.121
01/04/2014  10:28:00      117.175       43.027        4.182       71.150       42.685       38.096     5062.343     1822.023     1451.291        1.197        0.417      124.825       19.604        0.025      333.951        3.602      867.104
01/04/2014  10:29:00       17.747        4.865       29.919       25.941       34.307       31.068      672.933     1176.957      965.234        0.202        0.141       18.402       12.930        0.494      334.551        4.599      867.102
01/04/2014  10:30:00       82.443       56.198       32.865       93.698       41.642       41.041     8779.305     1734.052     1684.383        1.161        0.610       99.775       34.750        0.121      334.433        4.401      867.099
01/04/2014  10:31:00      225.037      136.779        3.427       58.396       64.065       49.456     3410.078     4104.298     2445.902        3.966        0.498      263.344       21.993        0.007      334.017        3.709      867.112
01/04/2014  10:32:00      242.831      119.843       40.211       71.589       57.711       47.790     5124.971     3330.575     2283.903        4.284        0.537      270.794       34.763        0.016      333.952        3.600      867.116
01/04/2014  10:33:00      129.413       97.903       30.857       80.283       44.500       42.364     6445.431     1980.227     1794.681        1.875        0.511      162.273       36.515        0.051      334.075        3.806      867.111
01/04/2014  10:34:00       74.189       83.327       58.386       67.592       41.730       49.937     4568.666     1741.371     2493.668        1.233        0.440      111.568       24.473        0.048      334.483        4.486      867.098
01/04/2014  10:35:00       65.237       40.380       52.256       61.893       59.942       55.153     3830.711     3592.997     3041.827        0.954        0.523       76.723       43.342        0.319      334.390        4.330      867.097
01/04/2014  10:36:00       -5.206       64.257       -2.869       34.420       50.159       30.465     1184.767     2515.895      928.108        0.440        0.231       64.468       20.999        0.106      334.472        4.467      867.079
01/04/2014  10:37:00       13.109       63.153        4.207       27.211       32.117       24.845      740.419     1031.489      617.271        0.328        0.119       64.499       11.920        0.034      334.682        4.815      867.075
01/04/2014  10:38:00       22.591       89.728      113.124       52.506       46.441       39.222     2756.837     2156.800     1538.381        1.390        0.323       92.528       34.138        0.136      334.575        4.637      867.058
01/04/2014  10:39:00       59.894       60.715       45.543       63.075       65.769       57.355     3978.413     4325.518     3289.613        1.047        0.580       85.285       49.431        0.336      334.410        4.364      867.046
01/04/2014  10:40:00       58.589      155.292      140.373       71.632       47.984       33.201     5131.123     2302.482     1102.329        2.789        0.427      165.977       34.316        0.043      334.336        4.239      867.031
01/04/2014  10:41:00       78.441       99.099      105.820       72.275       59.578       44.913     5223.721     3549.565     2017.219        1.898        0.540      126.387       42.646        0.114      334.305        4.189      867.032
01/04/2014  10:42:00       72.973       99.634      108.785       70.257       55.935       46.673     4936.116     3128.759     2178.365        1.866        0.512      123.498       38.055        0.095      334.400        4.346      867.032
01/04/2014  10:43:00       58.343       75.205        7.856       64.751       61.590       45.944     4192.709     3793.360     2110.874        0.961        0.505       95.182       35.332        0.138      334.486        4.490      867.030
01/04/2014  10:44:00       49.972       66.300       -4.479       48.551       50.451       31.628     2357.238     2545.291     1000.356        0.641        0.295       83.023       33.376        0.162      334.432        4.401      867.009
01/04/2014  10:45:00      125.931       96.395       13.358       65.496       43.959       38.604     4289.774     1932.354     1490.289        1.652        0.386      158.590       27.867        0.031      334.347        4.259      866.997
01/04/2014  10:46:00      116.254       68.201       11.036       41.677       39.026       23.590     1736.980     1523.021      556.493        1.105        0.191      134.783       13.880        0.011      334.078        3.814      866.998
01/04/2014  10:47:00       43.504       63.883        0.059       40.607       26.952       19.282     1648.948      726.420      371.780        0.436        0.137       77.289       13.927        0.032      334.126        3.894      866.988
01/04/2014  10:48:00       37.052       88.221      -11.901       30.120       25.630       20.926      907.192      656.911      437.891        0.565        0.100       95.686       14.295        0.022      334.333        4.237      866.991
01/04/2014  10:49:00       50.233       43.704       13.067       40.466       26.425       24.353     1637.499      698.301      593.055        0.377        0.146       66.583       19.322        0.084      334.460        4.448      866.988
01/04/2014  10:50:00       22.907       39.092       60.230       49.088       63.253       45.478     2409.610     4000.936     2068.285        0.708        0.424       45.309       41.652        0.845      334.938        5.241      866.993
01/04/2014  10:51:00      155.199      109.060        6.831       49.692       47.374       37.544     2469.273     2244.252     1409.536        2.107        0.306      189.686       29.736        0.025      334.504        4.518      866.998
01/04/2014  10:52:00       68.016       94.761       76.621       63.696       58.732       61.995     4057.243     3449.506     3843.385        1.541        0.568      116.644       37.823        0.105      334.736        4.905      867.023
01/04/2014  10:53:00      104.696       88.226       83.773       58.771       43.643       43.699     3453.984     1904.699     1909.586        1.651        0.363      136.913       37.022        0.073      334.391        4.332      867.054
01/04/2014  10:54:00       63.211      117.335      114.881       78.092       77.224       73.283     6098.283     5963.618     5370.389        2.419        0.872      133.278       71.237        0.286      334.578        4.639      867.064
01/04/2014  10:55:00       56.050       58.697       65.649       54.274       66.631       33.246     2945.692     4439.636     1105.310        0.969        0.425       81.161       31.146        0.147      334.627        4.725      867.059
01/04/2014  10:56:00       30.035      -23.405       24.344       28.403       44.683       22.529      806.744     1996.588      507.578        0.268        0.166       38.077       16.332        0.184      334.724        4.887      867.046
01/04/2014  10:57:00        4.581       -9.893      -10.037       26.449       26.977       13.064      699.527      727.776      170.665        0.091        0.080       10.902       11.953        1.202      334.500        4.514      867.013
01/04/2014  10:58:00      -10.042       39.857       63.952       23.438       33.515       43.353      549.341     1123.262     1879.514        0.467        0.178       41.103       23.164        0.318      335.093        5.499      866.997
01/04/2014  10:59:00       97.127       96.964       63.908       62.010       47.515       60.419     3845.293     2257.660     3650.423        1.633        0.488      137.243       48.907        0.127      334.823        5.050      866.976
01/04/2014  11:00:00       89.373       84.027       75.311       81.725       58.086       50.224     6678.923     3373.970     2522.493        1.665        0.629      122.670       37.927        0.096      334.875        5.135      866.974
01/04/2014  11:01:00       45.655       24.620       15.105       81.315       34.107       35.886     6612.060     1163.311     1287.834        0.599        0.453       51.870       29.266        0.318      334.947        5.256      866.958
01/04/2014  11:02:00      129.242      111.526        4.779       62.251       52.333       36.504     3875.232     2738.693     1332.572        1.855        0.397      170.709       31.491        0.034      334.587        4.656      866.937
01/04/2014  11:03:00       44.773       97.690       -2.416       51.060       63.742       39.294     2607.074     4063.091     1543.980        0.988        0.411      107.461       26.960        0.063      334.652        4.765      866.927
01/04/2014  11:04:00       46.228       37.489        8.827       40.973       35.785       38.091     1678.752     1280.595     1450.896        0.401        0.221       59.519       23.959        0.162      334.850        5.095      866.918
01/04/2014  11:05:00       67.160       49.702        6.219       38.109       35.340       29.832     1452.265     1248.951      889.953        0.530        0.180       83.551       14.446        0.030      334.797        5.006      866.926
01/04/2014  11:06:00       80.242       67.784        8.632       48.174       46.894       41.163     2320.693     2199.043     1694.424        0.866        0.311      105.040       26.112        0.062      334.848        5.091      866.947
01/04/2014  11:07:00      108.581       85.308       -9.236       64.572       54.513       39.197     4169.583     2971.660     1536.400        1.391        0.434      138.084       35.581        0.066      334.880        5.143      866.937
01/04/2014  11:08:00       70.381      137.665        2.997       74.717       79.124       65.394     5582.654     6260.550     4276.393        2.001        0.806      154.613       57.241        0.137      334.658        4.773      866.925
01/04/2014  11:09:00      126.118       76.821       26.416       97.528       61.863       53.063     9511.666     3827.037     2815.663        1.933        0.808      147.673       34.324        0.054      334.867        5.122      866.909
01/04/2014  11:10:00      147.951       85.908       59.438       78.738       59.396       70.364     6199.611     3527.927     4951.031        2.374        0.734      171.083       56.311        0.108      334.697        4.839      866.905
01/04/2014  11:11:00      111.249       62.034        7.647       45.388       28.227       28.149     2060.071      796.740      792.380        0.997        0.182      127.376       16.819        0.017      334.457        4.442      866.898
01/04/2014  11:12:00       53.155       38.673       61.207       58.179       45.711       47.904     3384.802     2089.503     2294.755        0.792        0.388       65.734       44.054        0.449      335.117        5.538      866.879
01/04/2014  11:13:00       46.025       79.319       65.252       57.357       39.277       56.202     3289.871     1542.705     3158.632        1.033        0.400       91.705       48.183        0.276      335.051        5.428      866.871
01/04/2014  11:14:00       73.467       91.526       73.086       73.300       48.510       49.014     5372.888     2353.231     2402.343        1.462        0.506      117.365       50.986        0.189      335.057        5.439      866.860
01/04/2014  11:15:00       10.316        9.769       54.750       36.412       54.471       40.718     1325.831     2967.124     1657.935        0.457        0.298       14.208       39.087        7.569      335.117        5.538      866.849
01/04/2014  11:16:00       23.581        7.817       21.410       45.270       40.457       31.727     2049.399     1636.803     1006.629        0.288        0.235       24.843       35.848        2.082      335.224        5.717      866.823
01/04/2014  11:17:00        5.281       33.161       74.703       44.571       66.138       41.098     1986.567     4374.187     1689.026        0.738        0.402       33.579       41.226        1.507      335.369        5.956      866.819
01/04/2014  11:18:00       96.602       70.082       19.929       48.299       34.623       37.313     2332.761     1198.742     1392.240        0.978        0.246      119.346       25.454        0.045      334.773        4.967      866.813
01/04/2014  11:19:00       98.070       88.087       68.380       63.819       64.903       60.643     4072.899     4212.442     3677.561        1.701        0.598      131.822       41.079        0.097      335.138        5.572      866.811
01/04/2014  11:20:00      106.683       72.429       41.568       75.124       54.566       54.284     5643.678     2977.419     2946.755        1.496        0.578      128.947       22.529        0.031      335.006        5.353      866.805
01/04/2014  11:21:00       24.919        2.593       79.323       89.080       84.884       51.308     7935.273     7205.280     2632.555        1.234        0.889       25.053       62.012        6.127      335.315        5.868      866.792
01/04/2014  11:22:00       83.087      -11.097       48.550       92.392       62.999       56.804     8536.322     3968.850     3226.666        1.255        0.787       83.825       58.928        0.494      335.185        5.650      866.800
01/04/2014  11:23:00       18.106      -27.599       29.360       47.957       67.072       44.589     2299.890     4498.638     1988.168        0.537        0.439       33.008       45.392        1.891      335.014        5.366      866.802
01/04/2014  11:24:00       14.899        8.151       57.343       36.205       59.471       27.932     1310.769     3536.780      780.184        0.460        0.281       16.983       23.636        1.937      335.500        6.176      866.799
01/04/2014  11:25:00      102.854       -2.157       58.236       62.932       95.182       59.375     3960.411     9059.599     3525.410        1.526        0.827      102.876       68.807        0.447      335.013        5.366      866.816
01/04/2014  11:26:00       28.404       -0.003       50.812       44.291       73.328       36.871     1961.673     5376.944     1359.503        0.604        0.435       28.404       43.488        2.344      335.310        5.860      866.808
01/04/2014  11:27:00       65.423       21.110       55.781       56.632       42.130       36.229     3207.158     1774.909     1312.576        0.706        0.315       68.745       39.290        0.327      335.215        5.701      866.815
01/04/2014  11:28:00      -21.642        2.625       13.310       44.764       37.913       44.094     2003.848     1437.431     1944.291        0.302        0.269       21.801       44.848        4.232      335.080        5.477      866.808
01/04/2014  11:29:00        9.257       35.556       46.450       30.231       41.782       49.067      913.939     1745.725     2407.573        0.429        0.253       36.742       36.220        0.972      335.235        5.734      866.802
01/04/2014  11:30:00       82.753      144.772      121.719       68.150       68.605       66.572     4644.476     4706.616     4431.885        2.820        0.689      166.755       63.941        0.147      334.905        5.183      866.794
01/04/2014  11:31:00       55.057      121.833      114.307       69.766       60.568       51.102     4867.268     3668.517     2611.442        2.104        0.557      133.696       46.997        0.124      335.048        5.423      866.801
01/04/2014  11:32:00       49.794      109.606      104.581       36.218       48.969       37.726     1311.753     2397.939     1423.236        1.528        0.257      120.387       33.183        0.076      334.936        5.237      866.818
01/04/2014  11:33:00       19.169       80.078       84.158       39.801       44.946       29.683     1584.119     2020.144      881.101        0.917        0.224       82.341       20.035        0.059      335.162        5.614      866.808
01/04/2014  11:34:00      120.512       96.260       59.423       67.464       44.250       40.833     4551.339     1958.089     1667.303        1.775        0.409      154.238       31.036        0.040      334.917        5.206      866.802
01/04/2014  11:35:00      109.693      107.462       37.024       87.133       61.059       58.533     7592.113     3728.227     3426.093        1.985        0.737      153.559       51.707        0.113      334.986        5.320      866.782
01/04/2014  11:36:00      100.302       89.088       13.263       63.740       44.220       39.703     4062.813     1955.412     1576.367        1.288        0.380      134.154       41.189        0.094      334.848        5.091      866.793
01/04/2014  11:37:00      114.681      114.380       84.576       66.680       40.947       46.847     4446.185     1676.667     2194.635        2.085        0.416      161.970       28.475        0.031      334.910        5.193      866.779
01/04/2014  11:38:00       59.372       50.678      -11.596       55.476       36.254       28.305     3077.554     1314.325      801.191        0.571        0.260       78.060       23.604        0.091      334.687        4.824      866.777
01/04/2014  11:39:00       -7.775       14.510       33.141       27.773       30.425       29.993      771.316      925.665      899.579        0.198        0.130       16.461       17.450        1.124      335.640        6.409      866.758
01/04/2014  11:40:00       47.378       62.570       45.675       66.698       41.478       44.046     4448.592     1720.411     1940.093        0.818        0.405       78.484       38.961        0.246      335.458        6.104      866.735
01/04/2014  11:41:00      114.598      115.980       25.487       79.349       52.930       59.261     6296.322     2801.604     3511.812        1.992        0.630      163.046       51.574        0.100      335.172        5.627      866.705
01/04/2014  11:42:00      150.548       89.484       -0.673       63.093       55.838       41.198     3980.722     3117.856     1697.253        1.973        0.440      175.135       26.288        0.023      335.053        5.429      866.694
01/04/2014  11:43:00      109.303       87.081        6.354       71.383       52.837       47.788     5095.531     2791.748     2283.738        1.487        0.509      139.751       34.784        0.062      335.169        5.624      866.661
01/04/2014  11:44:00      111.765       50.039        8.765       43.141       37.398       35.651     1861.127     1398.637     1271.022        0.980        0.227      122.455       28.057        0.052      335.243        5.748      866.654
01/04/2014  11:45:00       44.875       52.955       66.860       46.420       46.178       39.507     2154.860     2132.441     1560.817        0.757        0.292       69.412       21.730        0.098      335.647        6.421      866.628
01/04/2014  11:46:00       26.052       94.689       95.546       64.676       60.890       43.749     4182.960     3707.640     1913.979        1.429        0.490       98.208       37.902        0.149      335.580        6.307      866.613
01/04/2014  11:47:00       54.557       55.221       49.339       66.966       41.239       39.431     4484.403     1700.619     1554.775        0.810        0.387       77.627       42.771        0.304      335.487        6.154      866.607
01/04/2014  11:48:00       14.701       15.088       16.036       35.188       42.669       32.527     1238.220     1820.610     1057.975        0.241        0.206       21.066       26.559        1.590      335.540        6.242      866.582
01/04/2014  11:49:00       20.980      -21.803       22.552       38.961       82.221       35.284     1517.996     6760.358     1244.928        0.547        0.476       30.258       32.254        1.136      335.739        6.572      866.579
01/04/2014  11:50:00       20.136       -1.829       47.216       56.157       90.588       55.092     3153.626     8206.241     3035.088        0.851        0.720       20.219       64.387       10.141      335.506        6.186      866.569
01/04/2014  11:51:00      -13.446      -43.853       22.400       43.827       42.719       27.253     1920.813     1824.890      742.720        0.355        0.224       45.869       17.281        0.142      335.691        6.493      866.561
01/04/2014  11:52:00       15.961       -9.338       45.299       33.411       65.841       41.834     1116.271     4335.056     1750.048        0.480        0.360       18.492       44.739        5.854      335.624        6.382      866.561
01/04/2014  11:53:00       63.423      117.528      115.791       53.179       56.983       45.213     2827.979     3247.080     2044.251        1.968        0.406      133.549       33.017        0.061      335.306        5.851      866.549
01/04/2014  11:54:00       38.015      103.626      113.591       47.374       55.840       44.391     2244.291     3118.149     1970.604        1.621        0.367      110.379       38.818        0.124      335.250        5.759      866.552
01/04/2014  11:55:00       93.751       51.756       37.311       46.128       61.933       43.072     2127.754     3835.740     1855.205        1.034        0.391      107.088       39.160        0.134      335.250        5.759      866.563
01/04/2014  11:56:00       89.873      -10.053       21.531       43.263      101.672       40.468     1871.725    10337.278     1637.641        1.124        0.692       90.433       47.541        0.276      335.274        5.801      866.564
01/04/2014  11:57:00       67.793       10.953       38.980       59.221       84.638       59.604     3507.122     7163.604     3552.595        1.023        0.711       68.672       60.120        0.766      335.291        5.827      866.568
01/04/2014  11:58:00       74.655     -119.959       23.139       67.105      139.672       70.788     4503.069    19508.208     5010.957        2.475        1.451      141.293       89.771        0.404      335.494        6.162      866.556
01/04/2014  11:59:00       28.988      -21.209       37.099       53.190      102.892       63.597     2829.212    10586.830     4044.598        1.006        0.873       35.919       72.715        4.098      335.569        6.290      866.558
01/04/2014  12:00:00       89.526     -136.402      -22.384       66.466       74.602       44.390     4417.730     5565.456     1970.493        1.954        0.598      163.158       41.931        0.066      335.453        6.095      866.543
01/04/2014  12:01:00      143.086     -155.390      -23.488       69.451      123.016       63.505     4823.379    15132.943     4032.936        3.458        1.199      211.234       67.708        0.103      335.308        5.852      866.504
01/04/2014  12:02:00      132.133     -178.491      -30.632       69.263       74.313       44.954     4797.370     5522.457     2020.826        3.130        0.617      222.077       48.679        0.048      335.049        5.422      866.499
01/04/2014  12:03:00      108.392     -145.148      -12.129       65.299       89.803       44.768     4264.001     8064.600     2004.192        2.365        0.717      181.154       47.584        0.069      335.236        5.734      866.503
01/04/2014  12:04:00       61.370      -49.385       11.847       51.740       56.581       33.358     2677.073     3201.402     1112.726        0.667        0.350       78.772       36.714        0.217      335.245        5.752      866.496
01/04/2014  12:05:00       -8.693       51.792       75.908       15.343       38.994       25.128      235.393     1520.554      631.394        0.545        0.119       52.516       27.695        0.278      335.934        6.899      866.480
01/04/2014  12:06:00       -3.866      -16.121       27.306       21.476       41.205       30.336      461.205     1697.844      920.277        0.205        0.154       16.578       30.048        3.285      336.107        7.189      866.481
01/04/2014  12:07:00       37.322       51.609       40.975       50.190       40.637       28.631     2519.006     1651.382      819.732        0.536        0.250       63.690       15.441        0.059      335.734        6.564      866.469
01/04/2014  12:08:00      120.348       91.714       -0.380       63.285       42.511       31.651     4005.006     1807.185     1001.792        1.485        0.341      151.311       14.450        0.009      335.477        6.137      866.452
01/04/2014  12:09:00       18.548       71.377        8.706       38.602       58.792       32.867     1490.092     3456.540     1080.224        0.577        0.301       73.748       30.723        0.174      335.570        6.292      866.454
01/04/2014  12:10:00        7.026      -11.675       17.168       16.146       24.862       17.757      260.705      618.102      315.320        0.084        0.060       13.626       11.202        0.676      335.703        6.513      866.448
01/04/2014  12:11:00       87.333       33.906       24.038       30.541       26.302       34.378      932.741      691.776     1181.826        0.608        0.140       93.684       24.571        0.069      335.259        5.774      866.423
01/04/2014  12:12:00       31.065       20.377       26.522       43.635       31.492       26.252     1903.991      991.718      689.192        0.283        0.179       37.151        7.719        0.043      335.706        6.518      866.396
01/04/2014  12:13:00       73.031       52.083       50.690       55.985       44.605       39.122     3134.268     1989.588     1530.530        0.863        0.333       89.701       29.963        0.112      335.941        6.910      866.382
01/04/2014  12:14:00      140.082       86.207       13.512       51.727       59.500       37.259     2675.642     3540.268     1388.201        1.742        0.380      164.483       16.656        0.010      335.650        6.424      866.357
01/04/2014  12:15:00       13.797       79.858       90.994       49.054       61.796       47.609     2406.295     3818.707     2266.615        1.167        0.425       81.041       34.988        0.186      335.941        6.910      866.330
01/04/2014  12:16:00       19.992       69.831       95.970       49.530       71.279       47.895     2453.189     5080.651     2293.950        1.216        0.491       72.637       47.668        0.431      335.965        6.949      866.320
01/04/2014  12:17:00      174.330      132.494       83.277       60.793       58.819       62.177     3695.828     3459.633     3865.935        3.295        0.551      218.965       44.860        0.042      335.232        5.725      866.313
01/04/2014  12:18:00       97.277       27.524       45.610       68.891       53.237       54.995     4746.032     2834.214     3024.415        1.145        0.530      101.096       50.077        0.245      335.443        6.079      866.318
01/04/2014  12:19:00      147.095       53.350       31.198       92.454       71.286       66.038     8547.653     5081.752     4361.075        2.172        0.900      156.471       39.188        0.063      335.428        6.054      866.320
01/04/2014  12:20:00      128.859       60.943       20.547       48.701       59.090       41.382     2371.820     3491.684     1712.447        1.416        0.379      142.544       14.625        0.011      335.438        6.072      866.316
01/04/2014  12:21:00        2.831       31.299       24.996       59.165       49.631       41.453     3500.459     2463.263     1718.327        0.465        0.384       31.427       18.852        0.360      335.947        6.922      866.293
01/04/2014  12:22:00       96.836       46.683       45.102       55.310       69.594       46.292     3059.240     4843.270     2142.961        1.182        0.502      107.501       30.433        0.080      335.607        6.354      866.286
01/04/2014  12:23:00       42.031       -4.834       35.363       34.977       38.799       32.787     1223.422     1505.349     1074.970        0.342        0.190       42.308       23.354        0.305      335.757        6.604      866.253
01/04/2014  12:24:00       51.493       24.765       18.610       71.513       59.750       47.412     5114.078     3570.033     2247.892        0.727        0.547       57.138       31.999        0.314      335.670        6.459      866.223
01/04/2014  12:25:00       91.835       89.499       25.040       82.086       54.930       41.280     6738.065     3017.267     1704.075        1.426        0.573      128.233       29.511        0.053      335.651        6.427      866.200
01/04/2014  12:26:00       42.011       39.730       39.996       49.222       50.775       30.818     2422.765     2578.120      949.728        0.545        0.298       57.822       20.580        0.127      335.969        6.958      866.168
01/04/2014  12:27:00       82.404       88.082       97.899       75.477       69.574       65.432     5696.719     4840.536     4281.364        1.947        0.741      120.618       43.813        0.132      335.670        6.457      866.135
01/04/2014  12:28:00       89.613      148.012      119.752       83.028       71.271       66.193     6893.708     5079.606     4381.459        3.031        0.818      173.026       55.993        0.105      335.471        6.124      866.131
01/04/2014  12:29:00      125.233      112.237       53.004       65.537       37.976       45.352     4295.159     1442.199     2056.770        1.944        0.390      168.168       41.205        0.060      335.366        5.952      866.157
01/04/2014  12:30:00        9.390       43.605       63.715       33.250       32.682       26.045     1105.563     1068.103      678.365        0.445        0.143       44.605       22.811        0.262      335.723        6.547      866.154
01/04/2014  12:31:00       17.429       62.502        8.581       27.366       40.262       35.269      748.921     1621.067     1243.927        0.395        0.181       64.886       30.939        0.227      335.783        6.646      866.151
01/04/2014  12:32:00       31.834       50.268        5.595       43.613       43.863       35.901     1902.091     1923.938     1288.894        0.434        0.256       59.500       30.450        0.262      335.745        6.582      866.139
01/04/2014  12:33:00       27.728       31.928        3.134       41.671       27.980       25.903     1736.482      782.857      670.949        0.249        0.160       42.288       21.552        0.260      335.794        6.666      866.117
01/04/2014  12:34:00       29.754       51.316       65.109       52.168       50.827       46.340     2721.489     2583.393     2147.358        0.760        0.373       59.318       38.023        0.411      335.957        6.935      866.078
01/04/2014  12:35:00       28.535      -37.433       29.613       43.824       93.243       52.742     1920.556     8694.245     2781.687        0.824        0.670       47.069       63.564        1.824      335.933        6.897      866.062
01/04/2014  12:36:00       96.007       70.679       25.788       73.765       42.264       43.794     5441.253     1786.241     1917.891        1.201        0.457      119.217       32.052        0.072      335.663        6.448      866.063
01/04/2014  12:37:00      107.531       78.056       23.445       73.116       51.840       35.967     5345.934     2687.403     1293.597        1.376        0.466      132.875       34.870        0.069      335.699        6.504      866.035
01/04/2014  12:38:00      101.907       80.396       27.857       75.512       56.057       38.479     5702.075     3142.424     1480.600        1.397        0.516      129.802       29.617        0.052      335.690        6.491      866.015
01/04/2014  12:39:00       89.120       67.909       30.055       72.377       49.160       46.468     5238.358     2416.716     2159.298        1.163        0.491      112.044       34.512        0.095      335.753        6.597      866.005
01/04/2014  12:40:00       93.147       61.689       15.859       67.906       48.417       44.772     4611.193     2344.183     2004.535        1.084        0.448      111.723       31.079        0.077      336.003        7.014      865.997
01/04/2014  12:41:00      179.672      125.451       44.230       57.303       31.292       49.260     3283.597      979.216     2426.536        2.833        0.334      219.135       29.970        0.019      335.423        6.044      865.999
01/04/2014  12:42:00      169.780      115.752       21.810       55.057       45.140       40.327     3031.315     2037.620     1626.275        2.470        0.335      205.484       17.053        0.007      335.486        6.150      866.006
01/04/2014  12:43:00      159.720       66.893       24.543       77.617       55.895       49.623     6024.432     3124.275     2462.425        2.110        0.581      173.162       34.133        0.039      335.637        6.403      866.000
01/04/2014  12:44:00       48.705       78.529       54.903       76.215       51.184       49.590     5808.733     2619.814     2459.168        1.122        0.544       92.407       53.630        0.337      335.909        6.857      865.989
01/04/2014  12:45:00       71.000      -37.935       38.626       66.191       89.582       44.569     4381.242     8024.927     1986.361        1.118        0.720       80.499       55.236        0.471      335.757        6.603      865.989
01/04/2014  12:46:00       21.965       60.906       86.624       39.975       37.992       25.092     1597.969     1443.386      629.623        0.768        0.184       64.745       18.438        0.081      335.987        6.985      865.980
01/04/2014  12:47:00        8.623      -19.966       10.202       33.937       54.214       38.604     1151.740     2939.129     1490.233        0.308        0.279       21.748       42.215        3.768      335.649        6.421      865.996
01/04/2014  12:48:00      -26.793      -48.782        3.628       23.388       33.722       21.657      546.993     1137.184      469.007        0.263        0.108       55.656       20.069        0.130      335.656        6.435      865.977
01/04/2014  12:49:00       22.219        3.830       17.097       41.532       32.062       32.719     1724.876     1027.994     1070.546        0.231        0.191       22.547       30.527        1.833      336.079        7.140      865.964
01/04/2014  12:50:00       76.738       25.179       18.741       39.700       64.679       47.045     1576.063     4183.349     2213.199        0.742        0.399       80.763       39.946        0.245      335.853        6.762      865.952
01/04/2014  12:51:00       -6.848       75.721      -24.010       37.213       41.409       28.559     1384.775     1714.714      815.601        0.514        0.196       76.030       16.421        0.047      335.725        6.550      865.927
01/04/2014  12:52:00       30.210       58.208       17.594       42.961       53.680       32.447     1845.661     2881.556     1052.839        0.519        0.289       65.580       23.647        0.130      336.073        7.131      865.903
01/04/2014  12:53:00        4.655        9.832       18.806       32.331       75.987       28.926     1045.284     5773.980      836.727        0.406        0.383       10.879       24.500        5.072      336.337        7.572      865.897
01/04/2014  12:54:00       56.477       59.647       41.528       64.947       61.540       50.666     4218.159     3787.219     2567.058        0.952        0.529       82.143       33.532        0.167      336.221        7.378      865.899
01/04/2014  12:55:00       90.798       98.023      110.375      100.060       62.756       62.717    10012.082     3938.330     3933.426        2.396        0.894      133.614       61.406        0.211      336.238        7.405      865.900
01/04/2014  12:56:00      175.878      112.497       63.556       71.521       68.110       68.287     5115.199     4638.967     4663.135        3.102        0.721      208.778       41.898        0.040      335.919        6.869      865.898
01/04/2014  12:57:00      173.460      101.407       52.195       69.114       51.267       53.743     4776.712     2628.266     2888.300        2.669        0.515      200.927       31.141        0.024      335.761        6.608      865.892
01/04/2014  12:58:00       81.073       40.578       25.088       91.600       76.337       36.584     8390.545     5827.405     1338.418        1.220        0.778       90.661       30.069        0.110      335.882        6.812      865.892
01/04/2014  12:59:00       -4.004       66.759       95.585       45.605       68.841       59.340     2079.793     4739.092     3521.229        1.197        0.517       66.878       56.845        0.722      336.526        7.886      865.892
01/04/2014  13:00:00       56.437       72.814       52.359       66.430       72.783       48.798     4412.882     5297.437     2381.237        1.166        0.605       92.125       39.724        0.186      336.136        7.235      865.881
01/04/2014  13:01:00      105.761     -106.285        6.112      108.519       99.082       64.267    11776.451     9817.266     4130.230        2.412        1.286      149.939       68.698        0.210      336.081        7.141      865.874
01/04/2014  13:02:00       36.737       32.205       80.436       63.884       86.929       66.583     4081.116     7556.707     4433.254        1.246        0.804       48.855       70.639        2.091      336.108        7.188      865.903
01/04/2014  13:03:00       82.276     -102.853       -2.616       74.198       67.561       41.527     5505.382     4564.495     1724.506        1.457        0.590      131.712       39.026        0.088      336.001        7.010      865.896
01/04/2014  13:04:00      140.565     -152.951      -14.430       73.655      110.204       46.322     5425.036    12144.947     2145.738        3.153        0.986      207.732       58.043        0.078      335.906        6.849      865.896
01/04/2014  13:05:00      108.123     -153.278      -32.943       69.253       73.289       29.039     4795.970     5371.283      843.262        2.364        0.551      187.576       34.119        0.033      335.806        6.682      865.905
01/04/2014  13:06:00       21.899       40.586       92.118       47.053       61.850       39.357     2214.028     3825.448     1548.972        0.910        0.379       46.117       32.561        0.499      336.262        7.444      865.914
01/04/2014  13:07:00       73.568       16.636       63.691       86.983       57.390       54.601     7566.027     3293.663     2981.272        1.179        0.692       75.425       56.313        0.557      336.164        7.282      865.929
01/04/2014  13:08:00       66.159       61.103       85.461       67.081       80.257       49.598     4499.924     6441.113     2459.934        1.440        0.670       90.059       54.815        0.370      336.019        7.041      865.923
01/04/2014  13:09:00       67.832       47.830       66.873       66.454       59.172       31.845     4416.080     3501.271     1014.131        1.014        0.447       82.999       29.777        0.129      336.037        7.071      865.911
01/04/2014  13:10:00       41.812      -10.955       42.997       45.303       43.200       23.948     2052.349     1866.262      573.488        0.410        0.225       43.223       27.518        0.405      336.315        7.534      865.907
01/04/2014  13:11:00       -8.570       -2.579        6.413       28.765       25.113       20.167      827.439      630.655      406.720        0.099        0.093        8.950       16.991        3.604      336.391        7.662      865.900
01/04/2014  13:12:00       15.055        9.573       39.562       55.114       49.326       38.619     3037.553     2433.068     1491.455        0.442        0.348       17.841       38.828        4.736      336.521        7.879      865.910
01/04/2014  13:13:00      139.360      112.320       72.108      124.458       77.114       88.626    15489.915     5946.627     7854.550        3.326        1.465      178.989       89.484        0.250      336.101        7.175      865.900
01/04/2014  13:14:00      133.771       57.206       68.114       89.055       61.401       59.668     7930.847     3770.137     3560.212        2.053        0.763      145.490       50.102        0.119      336.047        7.086      865.905
01/04/2014  13:15:00       58.313       69.431       60.772       68.144       60.422       58.520     4643.582     3650.791     3424.600        1.181        0.586       90.670       55.538        0.375      336.079        7.141      865.921
01/04/2014  13:16:00       75.514      -35.031       21.296       50.869       81.568       51.625     2587.680     6653.281     2665.136        0.964        0.595       83.244       59.883        0.517      336.208        7.355      865.928
01/04/2014  13:17:00       63.569      -17.790       26.141       53.254       43.055       35.035     2835.938     1853.728     1227.471        0.548        0.296       66.011       36.845        0.312      336.245        7.416      865.929
01/04/2014  13:18:00       40.183       38.619       61.875       54.806       82.599       41.649     3003.652     6822.646     1734.674        0.925        0.578       55.732       48.345        0.752      336.513        7.864      865.924
01/04/2014  13:19:00      114.243       64.616       48.601       77.992       61.349       61.453     6082.769     3763.656     3776.467        1.660        0.681      131.250       38.358        0.085      336.379        7.640      865.928
01/04/2014  13:20:00      101.226       54.702       54.876       74.740       53.686       47.262     5586.113     2882.164     2233.736        1.347        0.535      115.061       43.316        0.142      336.214        7.365      865.916
01/04/2014  13:21:00       68.253      102.400       92.097       94.757       67.364       71.334     8978.933     4537.936     5088.604        2.111        0.930      123.062       69.527        0.319      336.330        7.557      865.914
01/04/2014  13:22:00       55.290       58.839       84.456       77.370       92.109       63.772     5986.069     8484.018     4066.845        1.609        0.927       80.741       62.396        0.597      336.454        7.766      865.909
01/04/2014  13:23:00       91.212       79.442       70.865       66.234       50.818       45.677     4386.928     2582.502     2086.433        1.435        0.453      120.958       35.313        0.085      336.109        7.190      865.932
01/04/2014  13:24:00       42.456      -13.559       41.991       56.684       44.924       38.795     3213.027     2018.139     1505.018        0.524        0.337       44.569       26.315        0.349      336.319        7.541      865.928
01/04/2014  13:25:00       27.012       64.384       49.012       56.633       53.423       47.789     3207.338     2854.060     2283.806        0.781        0.417       69.821       40.407        0.335      336.415        7.702      865.916
01/04/2014  13:26:00       86.972       91.342        7.940       54.405       51.802       45.737     2959.886     2683.487     2091.873        1.185        0.387      126.125       34.909        0.077      336.147        7.254      865.917
01/04/2014  13:27:00       91.128       73.378        7.375       88.033       57.895       38.625     7749.871     3351.861     1491.857        1.317        0.630      116.998       20.824        0.032      336.183        7.312      865.911
01/04/2014  13:28:00      145.049      102.517       49.236       78.365       68.590       55.329     6141.139     4704.591     3061.335        2.394        0.695      177.620       41.578        0.055      336.331        7.558      865.914
01/04/2014  13:29:00      200.105       98.558       -1.835      113.079       82.822       52.886    12786.758     6859.501     2796.900        3.610        1.122      223.060       29.119        0.017      336.386        7.649      865.925
01/04/2014  13:30:00       67.508       84.580       56.451       80.570       60.945       55.543     6491.532     3714.291     3085.036        1.409        0.665      108.218       36.765        0.115      336.445        7.751      865.931
01/04/2014  13:31:00       47.256       76.956       51.687       61.622       45.324       52.609     3797.275     2054.269     2767.691        0.972        0.431       90.307       42.651        0.223      336.571        7.963      865.927
01/04/2014  13:32:00      106.972       70.371       63.561      105.748       76.420       65.651    11182.744     5839.987     4310.037        2.088        1.067      128.043       58.894        0.212      336.480        7.808      865.923
01/04/2014  13:33:00      161.450       80.325       31.788       61.564       55.639       37.611     3790.069     3095.665     1414.608        2.091        0.415      180.328       32.429        0.032      336.178        7.305      865.931
01/04/2014  13:34:00       96.990       60.823       15.359       47.135       28.818       26.820     2221.701      830.470      719.307        0.856        0.189      114.484       15.235        0.018      336.138        7.239      865.936
01/04/2014  13:35:00       47.267       44.291       33.210       46.195       31.227       26.509     2134.010      975.145      702.745        0.455        0.191       64.775       20.208        0.097      336.482        7.813      865.930
01/04/2014  13:36:00       33.354       75.279       -4.633       43.000       54.778       34.197     1848.985     3000.624     1169.459        0.641        0.301       82.338       33.518        0.166      336.306        7.519      865.928
01/04/2014  13:37:00       74.035       71.090       -8.128       47.245       34.893       21.166     2232.123     1217.503      448.001        0.725        0.195      102.640       14.847        0.021      336.196        7.335      865.952
01/04/2014  13:38:00       46.276       37.624       19.115       47.941       31.103       30.695     2298.314      967.412      942.162        0.406        0.210       59.640       31.160        0.273      336.270        7.460      865.974
01/04/2014  13:39:00       64.992       54.781        3.143       25.603       35.683       35.759      655.521     1273.262     1278.672        0.522        0.160       84.999       17.538        0.043      336.252        7.429      865.992
01/04/2014  13:40:00       14.181       20.034        0.369       15.891       27.307       18.895      252.536      745.668      357.030        0.098        0.068       24.545       19.550        0.634      336.410        7.693      866.005
01/04/2014  13:41:00        4.298       80.395      -18.673       48.609       21.773       25.162     2362.820      474.057      633.107        0.515        0.173       80.510       21.467        0.071      336.159        7.272      866.004
01/04/2014  13:42:00        7.592       39.104       14.744       64.425       41.069       32.828     4150.635     1686.626     1077.666        0.436        0.346       39.834       38.256        0.922      336.496        7.837      866.009
01/04/2014  13:43:00       28.609       74.349       71.410       60.006       47.236       60.292     3600.675     2231.246     3635.134        1.045        0.473       79.663       49.832        0.391      336.542        7.914      866.003
01/04/2014  13:44:00       62.273       39.089       75.697       49.197       50.637       35.806     2420.350     2564.155     1282.092        0.870        0.313       73.525       35.245        0.230      336.337        7.571      866.022
01/04/2014  13:45:00       58.040       68.897       81.396       63.015       63.262       53.760     3970.856     4002.137     2890.093        1.280        0.543       90.086       48.570        0.291      336.451        7.760      866.011
01/04/2014  13:46:00       31.832      100.158      100.152       77.390       64.297       77.149     5989.228     4134.135     5951.997        1.857        0.804      105.095       68.606        0.426      336.531        7.893      866.001
01/04/2014  13:47:00       79.998       66.109       39.067       56.769       40.218       33.093     3222.663     1617.467     1095.180        0.911        0.297      103.779       25.192        0.059      336.561        7.946      865.969
01/04/2014  13:48:00       92.901       73.427       10.745       48.130       52.122       40.325     2316.536     2716.672     1626.079        1.040        0.333      118.415       33.618        0.081      336.444        7.750      865.999
01/04/2014  13:49:00       48.394       76.878       -7.647       43.342       64.862       40.126     1878.542     4207.084     1610.093        0.800        0.385       90.842       37.986        0.175      336.336        7.568      865.998
01/04/2014  13:50:00       92.640       86.090       -0.000       62.846       49.335       45.724     3949.646     2433.939     2090.703        1.223        0.424      126.466       38.315        0.092      336.333        7.563      866.004
01/04/2014  13:51:00       78.851       79.429       -5.211       57.423       55.209       42.474     3297.401     3048.078     1804.003        1.035        0.407      111.921       38.319        0.117      336.278        7.471      866.009
01/04/2014  13:52:00       51.732       77.248       -1.852       63.813       54.423       40.481     4072.157     2961.829     1638.689        0.866        0.434       92.970       29.262        0.099      336.370        7.626      866.021
01/04/2014  13:53:00       43.215      116.249        0.989       55.506       79.614       44.683     3080.861     6338.454     1996.584        1.340        0.571      124.022       37.521        0.092      336.415        7.701      866.039
01/04/2014  13:54:00       45.683      139.886      -16.033       39.406       64.210       41.227     1552.865     4122.964     1699.658        1.464        0.369      147.156       36.813        0.063      336.307        7.519      866.058
01/04/2014  13:55:00       45.519       69.563       -9.894       28.937       44.908       28.418      837.373     2016.773      807.556        0.533        0.183       83.133       29.037        0.122      336.344        7.582      866.069
01/04/2014  13:56:00       15.848      -11.068       -5.993       15.398       16.346       16.559      237.092      267.175      274.194        0.059        0.039       19.330        7.863        0.165      336.379        7.642      866.053
01/04/2014  13:57:00       33.181       73.291       -9.804       24.688       42.052       22.782      609.508     1768.406      519.009        0.473        0.145       80.452       23.184        0.083      336.361        7.611      866.027
01/04/2014  13:58:00       12.487      113.514       -5.816       37.109       58.591       32.330     1377.063     3432.929     1045.234        0.946        0.293      114.199       34.233        0.090      336.519        7.875      866.008
01/04/2014  13:59:00       72.610       86.001        4.956       59.467       59.656       43.289     3536.318     3558.824     1873.940        1.083        0.448      112.554       35.653        0.100      336.481        7.811      866.014
01/04/2014  14:00:00       -3.318       70.583       -9.158       41.288       60.431       23.344     1704.707     3651.876      544.920        0.549        0.295       70.661       20.416        0.083      336.453        7.765      866.018
01/04/2014  14:01:00       57.817       61.166       17.187       44.551       36.191       36.883     1984.754     1309.823     1360.347        0.602        0.233       84.167       31.862        0.143      336.465        7.787      866.009
01/04/2014  14:02:00       45.699       61.514       22.235       54.127       37.776       33.979     2929.707     1427.028     1154.600        0.594        0.276       76.632       23.027        0.090      336.762        8.281      866.013
01/04/2014  14:03:00       56.222       63.809       27.118       81.785       61.624       51.070     6688.806     3797.550     2608.101        1.053        0.655       85.044       41.536        0.239      336.844        8.418      866.023
01/04/2014  14:04:00      115.402       57.914       15.401       70.788       52.593       42.162     5010.959     2765.989     1777.668        1.323        0.478      129.119       26.818        0.043      336.618        8.042      866.028
01/04/2014  14:05:00       31.034      130.065      -19.412       54.635       53.055       33.307     2985.015     2814.867     1109.327        1.258        0.345      133.716       34.279        0.066      336.427        7.722      866.043
01/04/2014  14:06:00       25.478      179.550      -34.399       37.106       44.312       22.850     1376.848     1963.572      522.100        1.897        0.193      181.349       24.220        0.018      336.335        7.566      866.037
01/04/2014  14:07:00       36.197      127.144      -12.456       41.373       60.727       39.005     1711.748     3687.728     1521.401        1.227        0.346      132.196       37.562        0.081      336.578        7.974      866.042
01/04/2014  14:08:00       46.886       85.044        6.043       50.307       37.381       40.883     2530.745     1397.330     1671.448        0.753        0.280       97.112       29.308        0.091      336.590        7.995      866.056
01/04/2014  14:09:00       23.247      143.512      -20.141       32.784       50.721       29.372     1074.822     2572.663      862.716        1.303        0.226      145.383       24.800        0.029      336.513        7.863      866.063
01/04/2014  14:10:00       21.939      133.320      -18.231       40.807       67.143       36.994     1665.243     4508.214     1368.529        1.306        0.377      135.113       31.165        0.053      336.597        8.006      866.066
01/04/2014  14:11:00       28.649       35.327        3.598       41.880       41.447       26.435     1753.940     1717.886      698.809        0.313        0.209       45.484       17.782        0.153      336.761        8.280      866.083
01/04/2014  14:12:00       53.461       80.646       47.724       44.585       35.641       60.649     1987.842     1270.252     3678.244        0.929        0.347       96.756       37.889        0.153      336.685        8.153      866.096
01/04/2014  14:13:00       88.981       70.661       54.416       57.532       49.296       42.982     3309.965     2430.089     1847.491        1.173        0.379      113.625       33.094        0.085      336.910        8.529      866.108
01/04/2014  14:14:00       68.922       52.665        2.851       63.362       52.745       49.765     4014.695     2782.052     2476.572        0.840        0.464       86.740       38.971        0.202      336.781        8.313      866.113
01/04/2014  14:15:00      132.725       58.370       22.885       71.632       64.025       33.396     5131.178     4099.164     1115.282        1.594        0.517      144.993       31.488        0.047      336.750        8.261      866.115
01/04/2014  14:16:00      111.699       66.210       13.134       49.068       44.870       25.862     2407.636     2013.337      668.825        1.106        0.254      129.848       13.705        0.011      336.427        7.722      866.127
01/04/2014  14:17:00       43.449       34.999        0.620       21.715       18.626       12.995      471.548      346.936      168.875        0.205        0.049       55.792       10.799        0.037      336.569        7.960      866.128
01/04/2014  14:18:00       -9.214       25.124      -14.546       22.244       28.491       15.679      494.779      811.727      245.821        0.124        0.078       26.761       15.908        0.353      336.716        8.207      866.113
01/04/2014  14:19:00       -7.251       56.279       -8.797       20.286       20.256       20.503      411.541      410.300      420.370        0.227        0.062       56.744       13.267        0.055      336.666        8.123      866.106
01/04/2014  14:20:00        7.483       24.737        5.793       20.414       23.313       24.112      416.734      543.501      581.390        0.112        0.077       25.844       10.922        0.179      336.804        8.354      866.096
01/04/2014  14:21:00       21.437      -15.767       30.676       41.119       33.845       25.916     1690.765     1145.457      671.616        0.258        0.175       26.611        6.527        0.060      336.989        8.662      866.096
01/04/2014  14:22:00       64.864       60.327        4.921       37.974       33.653       32.233     1442.018     1132.534     1038.973        0.574        0.181       88.582       23.762        0.072      336.721        8.214      866.113
01/04/2014  14:23:00      101.272       70.650        4.580       63.269       42.789       30.562     4002.997     1830.858      934.030        1.102        0.338      123.480       15.247        0.015      336.714        8.202      866.125
01/04/2014  14:24:00       54.288       77.513       80.796       68.309       84.023       75.860     4666.127     7059.927     5754.715        1.648        0.874       94.633       67.138        0.503      336.951        8.595      866.110
01/04/2014  14:25:00       10.414      106.889      131.855       48.192       56.705       39.934     2322.472     3215.479     1594.726        1.802        0.357      107.395       37.892        0.124      336.847        8.421      866.110
01/04/2014  14:26:00       40.985       10.519       64.278       60.790       84.533       57.353     3695.482     7145.811     3289.347        1.002        0.707       42.313       66.733        2.487      336.800        8.345      866.121
01/04/2014  14:27:00       18.455      -22.278       27.018       33.863       90.118       27.934     1146.704     8121.316      780.303        0.581        0.502       28.929       39.885        1.901      336.970        8.629      866.114
01/04/2014  14:28:00       17.444       80.326       93.923       42.139       50.464       32.143     1775.685     2546.637     1033.141        1.047        0.268       82.198       28.986        0.124      337.086        8.822      866.103
01/04/2014  14:29:00       66.798       90.912       80.997       78.791       50.479       51.689     6208.007     2548.100     2671.744        1.536        0.571      112.814       47.071        0.174      336.898        8.507      866.107
01/04/2014  14:30:00      116.474       59.814       55.783       60.907       48.551       49.117     3709.689     2357.231     2412.466        1.437        0.424      130.934       23.943        0.033      336.666        8.120      866.117
01/04/2014  14:31:00      137.416       72.639        9.275       81.954       39.369       40.066     6716.475     1549.884     1605.271        1.706        0.494      155.433       39.498        0.065      336.684        8.149      866.136
01/04/2014  14:32:00      121.657       77.015       13.080       71.165       41.622       37.338     5064.434     1732.380     1394.159        1.455        0.410      143.985       21.377        0.022      336.818        8.373      866.138
01/04/2014  14:33:00       85.756       61.329        5.830       64.090       46.820       28.101     4107.528     2192.073      789.662        0.912        0.354      105.429       20.118        0.036      336.689        8.159      866.143
01/04/2014  14:34:00       68.358       64.942        1.972       49.219       40.629       36.885     2422.525     1650.748     1360.500        0.716        0.272       94.288       28.848        0.094      336.945        8.587      866.136
01/04/2014  14:35:00       79.455        7.553        7.946       36.073       51.578       39.008     1301.269     2660.267     1521.626        0.596        0.274       79.813       26.014        0.106      336.782        8.315      866.140
01/04/2014  14:36:00       80.151       87.621       81.933       50.857       50.886       42.229     2586.470     2589.335     1783.329        1.389        0.348      118.750       26.423        0.050      336.872        8.464      866.137
01/04/2014  14:37:00       20.437      -19.569       47.540       32.612       68.597       36.905     1063.545     4705.607     1362.011        0.509        0.357       28.295       41.687        2.171      337.020        8.713      866.149
01/04/2014  14:38:00       13.708      -26.926       27.028       39.440       37.697       21.786     1555.524     1421.073      474.609        0.255        0.173       30.215       24.525        0.659      337.127        8.892      866.146
01/04/2014  14:39:00       55.247       29.575       53.038       68.816       37.698       30.505     4735.620     1421.145      930.567        0.691        0.354       62.665       34.833        0.309      337.021        8.715      866.143
01/04/2014  14:40:00       61.096       58.900       58.901       37.448       37.787       26.309     1402.382     1427.883      692.182        0.710        0.176       84.864       17.814        0.044      336.729        8.226      866.146
01/04/2014  14:41:00       62.809       48.036       58.722       50.367       37.542       32.429     2536.848     1409.432     1051.663        0.735        0.250       79.072       23.301        0.087      336.774        8.302      866.127
01/04/2014  14:42:00      126.095       67.240       16.624       56.256       45.888       37.081     3164.724     2105.710     1374.996        1.367        0.332      142.903       14.787        0.011      336.748        8.258      866.116
01/04/2014  14:43:00       76.089       46.230        7.213       48.600       48.050       27.538     2361.948     2308.792      758.342        0.670        0.271       89.032       12.214        0.019      336.720        8.212      866.111
01/04/2014  14:44:00       55.589       43.043       15.969       35.063       26.507       24.224     1229.423      702.623      586.787        0.386        0.126       70.306       15.157        0.046      336.748        8.259      866.112
01/04/2014  14:45:00       62.533       33.440        8.852       27.539       23.920       18.103      758.387      572.160      327.727        0.338        0.083       70.913       17.610        0.062      336.800        8.345      866.111
01/04/2014  14:46:00       13.820       -0.499       20.811       32.898       34.686       22.718     1082.274     1203.086      516.087        0.171        0.140       13.829       14.654        1.123      337.122        8.883      866.126
01/04/2014  14:47:00       40.649      -62.029       30.598       41.099       35.465       36.411     1689.153     1257.758     1325.785        0.535        0.214       74.161       18.506        0.062      336.966        8.622      866.134
01/04/2014  14:48:00       61.384     -183.899       -0.446       45.040       42.877       28.768     2028.626     1838.439      827.597        2.114        0.235      193.874       24.943        0.017      336.721        8.213      866.121
01/04/2014  14:49:00       44.986      -83.958       -7.553       37.319       50.700       32.953     1392.714     2570.456     1085.908        0.709        0.252       95.251       21.775        0.052      336.795        8.337      866.131
01/04/2014  14:50:00       20.999     -109.681       -4.403       30.102       28.739       28.499      906.160      825.943      812.214        0.752        0.127      111.673       19.891        0.032      336.945        8.586      866.133
01/04/2014  14:51:00        8.596        3.929       33.365       15.530       38.075       22.865      241.194     1449.671      522.828        0.171        0.111        9.452       23.301        6.078      337.231        9.065      866.137
01/04/2014  14:52:00       49.903        9.664       24.034       44.465       22.553       23.212     1977.097      508.618      538.818        0.309        0.151       50.830       24.721        0.237      337.094        8.835      866.149
01/04/2014  14:53:00       32.016       68.221       -3.706       39.325       51.598       27.027     1546.459     2662.304      730.485        0.532        0.247       75.360       21.587        0.082      336.947        8.590      866.158
01/04/2014  14:54:00       69.945       83.324        3.306       68.490       48.548       36.866     4690.821     2356.888     1359.132        1.012        0.420      108.790       33.724        0.096      336.901        8.514      866.155
01/04/2014  14:55:00      131.355       88.503        9.743       62.563       52.373       50.746     3914.126     2742.897     2575.165        1.721        0.462      158.389       37.274        0.055      336.893        8.499      866.145
01/04/2014  14:56:00       56.764       77.291       -0.913       54.891       67.348       29.670     3013.018     4535.696      880.321        0.881        0.421       95.896       24.181        0.064      336.863        8.450      866.141
01/04/2014  14:57:00       84.975       75.584       11.350       65.030       50.224       38.213     4228.906     2522.439     1460.204        1.064        0.411      113.727       29.567        0.068      336.893        8.498      866.142
01/04/2014  14:58:00       16.847       53.355       72.803       51.588       61.047       48.543     2661.326     3726.742     2356.454        0.859        0.437       55.952       42.873        0.587      337.063        8.785      866.141
01/04/2014  14:59:00       53.596       51.749       58.799       57.244       45.790       41.078     3276.821     2096.770     1687.424        0.803        0.353       74.502       35.575        0.228      336.879        8.477      866.146
01/04/2014  15:00:00       70.133       12.632       22.438       45.332       37.668       30.793     2054.972     1418.876      948.237        0.500        0.221       71.261       23.950        0.113      336.850        8.429      866.143
01/04/2014  15:01:00      138.491       76.345       30.684       58.969       44.342       42.963     3477.339     1966.213     1845.821        1.662        0.364      158.141       38.073        0.058      336.808        8.359      866.133
01/04/2014  15:02:00       30.100       64.907       93.634       46.971       61.792       45.373     2206.246     3818.244     2058.730        1.098        0.404       71.547       41.197        0.332      336.918        8.541      866.130
01/04/2014  15:03:00       76.456      -86.230        3.399       46.156       63.035       37.198     2130.367     3973.418     1383.714        1.039        0.374      115.244       42.990        0.139      336.762        8.281      866.140
01/04/2014  15:04:00        6.934       37.842       62.799       30.022       47.621       37.468      901.299     2267.781     1403.882        0.500        0.229       38.472       36.796        0.915      337.004        8.686      866.141
01/04/2014  15:05:00       46.374       13.149       17.996       22.269       44.551       26.762      495.905     1984.768      716.199        0.292        0.160       48.202       24.956        0.268      336.879        8.477      866.144
01/04/2014  15:06:00        8.808       30.260       46.061       29.485       33.025       25.600      869.368     1090.633      655.338        0.286        0.131       31.516       18.499        0.345      337.096        8.839      866.148
01/04/2014  15:07:00       49.590       44.191        9.033       40.104       32.860       26.756     1608.313     1079.798      715.904        0.395        0.170       66.423       22.260        0.112      336.911        8.530      866.143
01/04/2014  15:08:00       72.172       75.028        7.903       89.814       59.668       47.213     8066.597     3560.286     2229.051        1.238        0.693      104.106       39.544        0.144      336.880        8.478      866.124
01/04/2014  15:09:00       52.988      138.416       -5.191       56.716       71.838       45.325     3216.737     5160.673     2054.358        1.621        0.522      148.212       44.011        0.088      336.775        8.302      866.108
01/04/2014  15:10:00       35.689      117.853      -23.109       33.096       49.176       30.403     1095.348     2418.295      924.328        1.007        0.222      123.139       21.563        0.031      336.824        8.384      866.084
01/04/2014  15:11:00       68.197       63.457       53.887       48.066       43.414       40.102     2310.310     1884.748     1608.151        0.869        0.290       93.154       27.397        0.086      336.929        8.560      866.063
01/04/2014  15:12:00      102.923       62.598       23.860       40.557       42.473       32.722     1644.888     1803.942     1070.715        0.980        0.226      120.464       22.622        0.035      336.752        8.267      866.048
01/04/2014  15:13:00       58.762       54.934       26.942       33.621       28.516       22.680     1130.363      813.171      514.392        0.483        0.123       80.441       15.555        0.037      336.935        8.569      866.044
01/04/2014  15:14:00       65.485       59.786       48.825       62.432       51.864       33.195     3897.743     2689.845     1101.937        0.897        0.384       88.672       28.903        0.106      336.954        8.602      866.047
01/04/2014  15:15:00       70.114       58.578       16.643       45.024       23.231       33.584     2027.120      539.678     1127.879        0.616        0.185       91.364       32.290        0.125      336.790        8.327      866.051
01/04/2014  15:16:00       31.095       13.932        1.558       18.582       16.960       17.274      345.273      287.643      298.403        0.105        0.047       34.074        9.317        0.075      336.854        8.436      866.053
01/04/2014  15:17:00       61.751       60.342       26.518       36.900       31.401       31.351     1361.623      986.011      982.875        0.574        0.167       86.339       14.687        0.029      336.872        8.465      866.058
01/04/2014  15:18:00       95.829       67.221        7.039       46.498       34.724       32.534     2162.037     1205.765     1058.451        0.909        0.221      117.055       16.402        0.020      336.888        8.491      866.060
01/04/2014  15:19:00       97.649       49.204       44.663       54.214       50.483       39.379     2939.111     2548.546     1550.733        1.049        0.352      109.345       29.891        0.075      336.859        8.444      866.070
01/04/2014  15:20:00       48.853       75.672       52.265       39.101       30.738       36.651     1528.885      944.806     1343.309        0.733        0.191       90.071       27.580        0.094      336.907        8.523      866.072
01/04/2014  15:21:00       14.888       43.404       31.535       24.730       33.897       29.240      611.551     1149.017      854.979        0.286        0.131       45.886       24.137        0.277      336.955        8.602      866.080
01/04/2014  15:22:00       71.567       40.349        9.471       26.405       37.266       29.295      697.238     1388.742      858.206        0.489        0.147       82.158       11.530        0.020      336.842        8.415      866.088
01/04/2014  15:23:00       26.894       70.783        2.004       42.767       39.340       31.928     1829.005     1547.641     1019.388        0.507        0.220       75.720       23.799        0.099      336.900        8.511      866.095
01/04/2014  15:24:00       -3.140       54.281       -0.957       20.136       27.297       18.021      405.470      745.111      324.751        0.222        0.074       54.372       16.918        0.097      336.922        8.547      866.102
01/04/2014  15:25:00       35.436       62.610       -3.318       29.937       52.463       28.513      896.233     2752.338      813.011        0.482        0.223       71.942       27.873        0.150      336.903        8.516      866.121
01/04/2014  15:26:00       54.867       40.786       33.704       44.750       51.975       36.400     2002.523     2701.442     1324.939        0.592        0.301       68.366       28.335        0.172      336.946        8.587      866.129
01/04/2014  15:27:00       64.832       50.112       34.741       39.117       41.852       38.289     1530.135     1751.568     1466.069        0.633        0.237       81.942       20.787        0.064      337.029        8.727      866.138
01/04/2014  15:28:00       18.113       66.233       77.981       43.706       54.240       38.328     1910.257     2941.999     1469.002        0.856        0.316       68.665       32.429        0.223      337.038        8.741      866.145
01/04/2014  15:29:00       44.700       77.028       90.687       54.925       56.561       42.875     3016.781     3199.193     1838.238        1.210        0.403       89.058       40.045        0.202      336.949        8.592      866.152
01/04/2014  15:30:00       18.422       64.472       53.677       34.916       26.987       31.025     1219.154      728.315      962.526        0.514        0.145       67.053       20.747        0.096      336.973        8.635      866.156
01/04/2014  15:31:00       63.750       66.588       52.913       41.419       40.861       35.574     1715.574     1669.651     1265.524        0.797        0.233       92.184       31.643        0.118      337.003        8.683      866.161
01/04/2014  15:32:00       39.768       31.728       50.329       37.048       27.391       25.114     1372.541      750.254      630.720        0.394        0.138       50.874       19.476        0.147      337.063        8.784      866.164
01/04/2014  15:33:00       14.095       26.132       19.347       37.677       66.226       30.539     1419.524     4385.865      932.645        0.400        0.337       29.691       20.117        0.459      337.080        8.812      866.167
01/04/2014  15:34:00       84.072       66.911        1.297       39.944       31.534       21.756     1595.536      994.389      473.323        0.730        0.153      107.448       15.894        0.022      336.939        8.576      866.186
01/04/2014  15:35:00      103.800       69.991       14.161       52.650       37.591       33.272     2772.011     1413.057     1107.006        1.058        0.265      125.193       18.779        0.023      336.941        8.579      866.212
01/04/2014  15:36:00      157.693      108.183       12.527       60.824       50.390       49.545     3699.522     2539.105     2454.717        2.271        0.435      191.235       23.590        0.015      336.908        8.523      866.215
01/04/2014  15:37:00      164.203      110.914       53.619       71.450       56.823       57.434     5105.052     3228.892     3298.610        2.688        0.582      198.153       30.527        0.024      336.909        8.524      866.212
01/04/2014  15:38:00       96.251       38.463       28.755       54.200       46.878       47.720     2937.606     2197.523     2277.232        0.949        0.371      103.652       22.924        0.049      336.928        8.558      866.216
01/04/2014  15:39:00       65.005       50.631       18.316       53.229       37.158       36.866     2833.344     1380.687     1359.075        0.635        0.279       82.396       21.170        0.066      336.935        8.568      866.212
01/04/2014  15:40:00       33.715       48.611        2.446       67.575       63.326       37.649     4566.363     4010.151     1417.421        0.675        0.500       59.158       20.827        0.124      336.952        8.596      866.226
01/04/2014  15:41:00       52.020      101.387        5.783       49.401       58.605       54.663     2440.463     3434.488     2988.076        1.094        0.443      113.954       39.531        0.120      336.825        8.385      866.230
01/04/2014  15:42:00      134.270      116.234        2.905       66.865       59.368       46.470     4470.894     3524.535     2159.470        2.085        0.508      177.592       32.461        0.033      336.764        8.283      866.229
01/04/2014  15:43:00      129.901       94.093       15.618       57.724       48.232       32.329     3332.030     2326.368     1045.147        1.634        0.335      160.399       25.425        0.025      336.746        8.253      866.229
01/04/2014  15:44:00       66.159       98.896        5.904       66.482       57.367       44.152     4419.916     3290.986     1949.382        1.192        0.483      118.985       35.613        0.090      336.851        8.429      866.221
01/04/2014  15:45:00      114.669       76.813        9.823       69.069       46.818       34.668     4770.546     2191.954     1201.844        1.365        0.408      138.019       23.357        0.029      336.833        8.399      866.219
01/04/2014  15:46:00       21.572       98.041       -4.010       33.600       50.617       27.476     1128.979     2562.117      754.915        0.727        0.222      100.386       27.727        0.076      336.875        8.470      866.224
01/04/2014  15:47:00       44.436      110.818       -4.803       43.022       47.598       35.260     1850.929     2265.601     1243.265        0.982        0.268      119.395       28.513        0.057      336.863        8.450      866.229
01/04/2014  15:48:00       66.884      110.980      -15.245       39.296       59.284       34.032     1544.169     3514.593     1158.189        1.162        0.311      129.576       29.570        0.052      336.868        8.456      866.232
01/04/2014  15:49:00       42.158       62.342        7.539       45.655       34.569       30.241     2084.404     1195.030      914.530        0.496        0.210       75.259       16.416        0.048      336.881        8.480      866.221
01/04/2014  15:50:00       32.759       19.043       24.237       59.457       40.455       23.848     3535.121     1636.586      568.730        0.388        0.287       37.891        9.964        0.069      336.977        8.641      866.224
01/04/2014  15:51:00       62.953       89.324       -0.166       56.456       69.086       33.960     3187.262     4772.902     1153.292        1.053        0.456      109.279       32.482        0.088      336.860        8.445      866.234
01/04/2014  15:52:00       75.164       75.692        1.113       77.470       52.696       44.345     6001.669     2776.914     1966.456        1.106        0.537      106.673       27.880        0.068      336.865        8.453      866.244
01/04/2014  15:53:00      118.405      101.198       13.191       87.318       54.109       47.397     7624.477     2927.808     2246.504        1.861        0.640      155.758       33.085        0.045      336.788        8.323      866.258
01/04/2014  15:54:00       21.364      143.026        1.595       54.261       86.895       46.858     2944.220     7550.788     2195.645        1.680        0.635      144.613       42.854        0.088      336.800        8.343      866.272
01/04/2014  15:55:00      187.121       80.639       22.376       60.665       42.412       35.723     3680.219     1798.804     1276.154        2.438        0.338      203.757       18.342        0.008      336.810        8.358      866.283
01/04/2014  15:56:00      137.241      102.144       26.356       65.951       47.293       42.611     4349.547     2236.628     1815.731        1.918        0.420      171.080       34.873        0.042      336.770        8.293      866.299
01/04/2014  15:57:00      197.312      142.782       30.856       94.878       61.209       55.473     9001.809     3746.482     3077.303        3.805        0.791      243.554       33.691        0.019      336.747        8.254      866.308
01/04/2014  15:58:00      107.614       97.048       23.493       93.294       73.459       56.727     8703.745     5396.271     3217.896        1.943        0.866      144.910       34.927        0.058      336.789        8.325      866.303
01/04/2014  15:59:00       94.950       41.977       13.367       51.821       40.154       39.442     2685.385     1612.373     1555.671        0.840        0.293      103.815       29.119        0.079      336.777        8.308      866.283
01/04/2014  16:00:00       90.691       46.664       20.901       52.756       41.467       33.514     2783.190     1719.519     1123.178        0.823        0.281      101.993       14.068        0.019      336.753        8.268      866.275
01/04/2014  16:01:00      154.869      105.484       11.129       64.414       59.304       45.701     4149.175     3517.021     2088.577        2.249        0.488      187.380       33.039        0.031      336.726        8.220      866.278
01/04/2014  16:02:00       71.455       65.792        5.698       58.928       41.266       29.078     3472.456     1702.849      845.517        0.774        0.301       97.131       21.093        0.047      336.713        8.201      866.283
01/04/2014  16:03:00       49.258       61.589        9.070       48.935       35.625       25.538     2394.651     1269.146      652.197        0.531        0.216       78.864       21.077        0.071      336.731        8.229      866.284
01/04/2014  16:04:00       41.944       84.411        0.358       50.991       66.465       44.444     2600.094     4417.612     1975.313        0.894        0.450       94.258       39.290        0.174      336.746        8.255      866.270
01/04/2014  16:05:00       57.364       64.204        5.276       53.804       47.677       46.421     2894.921     2273.053     2154.883        0.738        0.366       86.098       33.259        0.149      336.699        8.176      866.258
01/04/2014  16:06:00       70.297       59.250       18.791       56.910       41.998       34.329     3238.791     1763.849     1178.507        0.749        0.309       91.936       30.514        0.110      336.666        8.123      866.262
01/04/2014  16:07:00      116.720       75.575       18.233       55.221       42.820       26.304     3049.330     1833.581      691.919        1.262        0.279      139.051       22.988        0.027      336.645        8.087      866.261
01/04/2014  16:08:00      127.961      103.835       15.789       55.677       38.032       35.785     3099.919     1446.466     1280.532        1.661        0.291      164.790       14.938        0.008      336.636        8.072      866.255
01/04/2014  16:09:00      200.847      147.373       31.952       94.529       54.781       43.032     8935.711     3000.984     1851.720        3.843        0.689      249.115       21.377        0.007      336.633        8.065      866.250
01/04/2014  16:10:00       74.610       62.787       -3.629       55.342       59.358       40.381     3062.683     3523.339     1630.634        0.887        0.411       97.514       39.494        0.164      336.619        8.042      866.274
01/04/2014  16:11:00      133.796      110.709       16.146       81.945       86.267       65.321     6714.904     7442.019     4266.818        2.442        0.921      173.661       53.051        0.093      336.593        8.000      866.274
01/04/2014  16:12:00      241.394      176.435       32.635      117.641       79.546       75.608    13839.362     6327.528     5716.527        5.817        1.294      298.999       41.351        0.019      336.547        7.919      866.268
01/04/2014  16:13:00      247.472      177.708       37.489      120.442       80.711       56.940    14506.313     6514.206     3242.214        5.924        1.213      304.668       35.778        0.014      336.518        7.871      866.285
01/04/2014  16:14:00      167.367      128.156       26.018      111.354       80.615       63.564    12399.652     6498.709     4040.354        3.402        1.147      210.798       44.511        0.045      336.512        7.861      866.292
01/04/2014  16:15:00      197.926      150.128       31.174      133.710       78.847       64.086    17878.284     6216.840     4106.955        4.544        1.410      248.421       36.289        0.021      336.488        7.821      866.294
01/04/2014  16:16:00      119.459      116.192       21.611       86.807       77.919       76.415     7535.535     6071.358     5839.279        2.384        0.972      166.646       60.453        0.132      336.473        7.797      866.296
01/04/2014  16:17:00      182.765      128.035       22.704       88.795       67.302       51.420     7884.522     4529.612     2643.983        3.268        0.753      223.150       28.714        0.017      336.455        7.764      866.283
01/04/2014  16:18:00      155.455      109.936       23.290       95.459       69.218       51.126     9112.491     4791.143     2613.902        2.665        0.826      190.400       33.331        0.031      336.483        7.812      866.287
01/04/2014  16:19:00      204.640      122.507       31.435       88.141       68.689       46.441     7768.838     4718.119     2156.724        3.626        0.732      238.507       22.567        0.009      336.456        7.766      866.264
01/04/2014  16:20:00      196.040      144.393       19.212       64.401       50.677       41.341     4147.430     2568.208     1709.041        3.404        0.421      243.477       11.388        0.002      336.439        7.736      866.261
01/04/2014  16:21:00      191.869      134.174       23.287      110.236       78.805       53.894    12152.049     6210.204     2904.608        3.831        1.063      234.129       32.045        0.019      336.432        7.727      866.236
01/04/2014  16:22:00      144.635       84.033       52.045       82.467       73.500       54.451     6800.847     5402.309     2964.956        2.293        0.758      167.275       39.085        0.055      336.448        7.753      866.219
01/04/2014  16:23:00      134.207      106.863       24.435       79.539       74.944       50.513     6326.531     5616.663     2551.591        2.226        0.725      171.555       34.351        0.040      336.360        7.606      866.221
01/04/2014  16:24:00      173.151      119.921       32.003      113.601       79.693       63.420    12905.079     6350.943     4022.086        3.433        1.164      210.624       57.855        0.075      336.334        7.563      866.228
01/04/2014  16:25:00      185.747      104.383       36.256       87.175       81.122       48.570     7599.549     6580.799     2359.012        3.162        0.827      213.067       27.234        0.016      336.289        7.488      866.235
01/04/2014  16:26:00      252.159      152.352       29.498       83.807       85.152       46.260     7023.577     7250.923     2139.983        5.204        0.821      294.611       34.745        0.014      336.272        7.459      866.229
01/04/2014  16:27:00      205.664      127.378       24.020       72.192       55.587       42.174     5211.723     3089.873     1778.615        3.459        0.504      241.915       21.463        0.008      336.251        7.422      866.211
01/04/2014  16:28:00      173.369       97.991       14.131       83.648       74.003       53.098     6996.906     5476.488     2819.370        2.757        0.765      199.146       24.117        0.015      336.202        7.343      866.212
01/04/2014  16:29:00      205.008       91.171       41.285       74.612       57.919       49.368     5567.021     3354.567     2437.195        3.170        0.568      224.366       34.934        0.024      336.187        7.318      866.210
01/04/2014  16:30:00      122.585       86.320       68.547       77.756       54.961       43.167     6045.978     3020.763     1863.372        1.905        0.547      149.928       36.464        0.059      336.134        7.230      866.214
01/04/2014  16:31:00      146.741       71.231       38.451       59.651       48.384       47.849     3558.230     2340.965     2289.521        1.814        0.409      163.116       33.960        0.043      336.130        7.223      866.218
01/04/2014  16:32:00      109.301       46.936       35.988       72.181       57.623       52.025     5210.151     3320.394     2706.652        1.334        0.562      118.953       35.752        0.090      336.123        7.213      866.208
01/04/2014  16:33:00      117.282       53.079       24.525       65.498       39.146       45.984     4290.053     1532.379     2114.559        1.255        0.397      128.734       25.136        0.038      336.080        7.141      866.223
01/04/2014  16:34:00      166.972       93.623       27.457       76.812       42.017       50.487     5900.155     1765.436     2548.928        2.380        0.511      191.429       39.004        0.042      336.054        7.096      866.239
01/04/2014  16:35:00      191.451      117.786       31.435       65.025       60.530       54.583     4228.309     3663.906     2979.303        3.119        0.544      224.783       34.997        0.024      336.008        7.019      866.253
01/04/2014  16:36:00      105.076       67.442       53.815       59.513       44.663       39.844     3541.856     1994.796     1587.538        1.280        0.356      124.857       30.214        0.059      335.961        6.942      866.267
01/04/2014  16:37:00      135.988       77.563       42.437       99.201       69.852       45.930     9840.902     4879.351     2109.522        2.157        0.841      156.553       19.342        0.015      335.957        6.935      866.283
01/04/2014  16:38:00      112.745       93.164       49.013       77.160       57.641       49.907     5953.690     3322.488     2490.719        1.778        0.588      146.256       47.430        0.105      335.956        6.933      866.280
01/04/2014  16:39:00      130.932       74.753       30.240       46.268       47.287       41.222     2140.683     2236.086     1699.259        1.486        0.304      150.768       31.365        0.043      335.924        6.882      866.259
01/04/2014  16:40:00       81.935       68.720       42.851       43.583       32.495       33.588     1899.478     1055.910     1128.124        0.868        0.204      106.938       27.351        0.065      335.865        6.781      866.258
01/04/2014  16:41:00      101.048       66.679       31.368       57.071       37.335       40.518     3257.116     1393.909     1641.708        1.097        0.315      121.065       37.783        0.097      335.865        6.783      866.261
01/04/2014  16:42:00      126.295       82.254       20.238       40.314       28.777       24.620     1625.192      828.092      606.130        1.309        0.153      150.719       13.578        0.008      335.843        6.748      866.283
01/04/2014  16:43:00       86.852       47.640       18.511       56.504       29.748       25.671     3192.664      884.932      658.983        0.745        0.237       99.059        8.289        0.007      335.773        6.630      866.298
01/04/2014  16:44:00       64.764       51.107        6.518       50.653       29.915       31.227     2565.776      894.933      975.109        0.564        0.222       82.500       20.771        0.063      335.791        6.660      866.314
01/04/2014  16:45:00      110.415      103.678        0.098       71.170       54.849       48.000     5065.230     3008.386     2304.026        1.666        0.519      151.462       37.561        0.061      335.766        6.619      866.336
01/04/2014  16:46:00      137.549       95.925       32.411       89.514       47.191       47.662     8012.677     2227.012     2271.631        2.084        0.626      167.694       42.038        0.063      335.727        6.551      866.368
01/04/2014  16:47:00       83.595       93.017       14.256       67.132       56.813       52.953     4506.753     3227.687     2804.038        1.319        0.527      125.061       32.480        0.067      335.658        6.437      866.397
01/04/2014  16:48:00       84.625       69.355       19.918       50.565       49.127       38.155     2556.858     2413.503     1455.818        0.940        0.321      109.414       25.781        0.056      335.584        6.315      866.408
01/04/2014  16:49:00       82.408      106.052       -5.319       54.333       68.459       40.956     2952.046     4686.675     1677.399        1.369        0.466      134.306       36.088        0.072      335.571        6.293      866.409
01/04/2014  16:50:00       92.240       93.962       -4.087       69.359       56.425       43.184     4810.622     3183.824     1864.837        1.360        0.493      131.671       33.259        0.064      335.579        6.306      866.397
01/04/2014  16:51:00       58.026       65.418        4.509       48.635       37.801       30.382     2365.376     1428.912      923.045        0.619        0.236       87.444       18.177        0.043      335.522        6.212      866.389
01/04/2014  16:52:00       47.974       66.981        3.650       46.308       52.644       33.572     2144.422     2771.425     1127.074        0.642        0.302       82.389       23.577        0.082      335.492        6.161      866.383
01/04/2014  16:53:00      100.857      112.562        4.022       71.844       64.164       57.414     5161.586     4116.995     3296.423        1.771        0.629      151.137       43.408        0.082      335.497        6.170      866.375
01/04/2014  16:54:00       24.788       71.203       -4.117       39.684       41.432       26.542     1574.804     1716.650      704.480        0.485        0.200       75.395       16.854        0.050      335.407        6.021      866.377
01/04/2014  16:55:00       91.099       68.294       13.474       42.691       30.484       26.890     1822.503      929.261      723.083        0.831        0.174      113.855       14.545        0.016      335.443        6.079      866.384
01/04/2014  16:56:00       63.834       67.501        1.868       68.644       38.901       29.296     4712.013     1513.297      858.259        0.786        0.354       92.904       25.223        0.074      335.375        5.966      866.408
01/04/2014  16:57:00      121.423      112.554       11.491       61.442       46.906       38.598     3775.144     2200.175     1489.815        1.750        0.373      165.565       28.685        0.030      335.394        5.996      866.427
01/04/2014  16:58:00       81.524       71.337        9.367       77.280       47.010       41.666     5972.129     2209.936     1736.070        1.087        0.496      108.329       32.839        0.092      335.342        5.910      866.446
01/04/2014  16:59:00       75.108      101.725        5.632       59.114       59.008       48.366     3494.416     3481.902     2339.281        1.267        0.466      126.448       38.808        0.094      335.353        5.929      866.457
01/04/2014  17:00:00      105.883       90.271       14.378       66.274       51.975       42.192     4392.209     2701.354     1780.178        1.422        0.444      139.140       31.957        0.053      335.364        5.949      866.469
01/04/2014  17:01:00       72.830       71.259        5.635       55.197       45.287       42.920     3046.665     2050.877     1842.141        0.868        0.347      101.893       30.728        0.091      335.327        5.886      866.479
01/04/2014  17:02:00       70.165       96.040        8.916       76.518       40.934       37.586     5855.044     1675.585     1412.704        1.158        0.447      118.940       39.107        0.108      335.312        5.862      866.489
01/04/2014  17:03:00       34.106      143.143       -6.344       36.945       60.417       34.060     1364.954     3650.270     1160.067        1.393        0.309      147.150       37.669        0.066      335.194        5.666      866.492
01/04/2014  17:04:00       49.409      123.762       -5.286       55.693       59.632       45.715     3101.701     3555.918     2089.898        1.327        0.437      133.260       40.555        0.093      335.185        5.650      866.495
01/04/2014  17:05:00       46.276      122.864      -10.880       46.521       77.959       47.670     2164.203     6077.655     2272.420        1.393        0.526      131.290       47.939        0.133      335.181        5.643      866.512
01/04/2014  17:06:00       49.247      116.499       -8.715       52.797       69.026       47.471     2787.553     4764.529     2253.458        1.294        0.490      126.480       40.714        0.104      335.150        5.593      866.510
01/04/2014  17:07:00       33.183       88.568        2.476       45.891       56.936       40.657     2106.019     3241.706     1652.960        0.797        0.350       94.580       39.691        0.176      335.109        5.525      866.514
01/04/2014  17:08:00       36.663       99.889      -10.293       38.222       55.959       35.352     1460.909     3131.436     1249.783        0.863        0.292      106.405       35.006        0.108      335.070        5.461      866.513
01/04/2014  17:09:00       68.365       82.624       -0.546       47.338       43.674       35.381     2240.878     1907.424     1251.819        0.845        0.270      107.240       27.767        0.067      335.098        5.507      866.512
01/04/2014  17:10:00       55.606       77.195        4.613       40.879       51.051       40.961     1671.080     2606.192     1677.769        0.751        0.298       95.137       36.196        0.145      335.053        5.433      866.513
01/04/2014  17:11:00       38.927       84.373       -1.922       42.927       48.537       32.851     1842.701     2355.819     1079.211        0.696        0.264       92.920       28.817        0.096      335.028        5.391      866.526
01/04/2014  17:12:00       42.082      103.849       -8.027       49.364       56.622       42.452     2436.762     3206.009     1802.169        1.003        0.372      112.051       38.618        0.119      335.027        5.389      866.547
01/04/2014  17:13:00       71.774      126.539      -15.478       56.143       60.915       42.199     3152.044     3710.630     1780.771        1.502        0.432      145.477       39.419        0.073      335.014        5.367      866.563
01/04/2014  17:14:00       50.743      133.878       -7.797       41.935       68.564       44.391     1758.527     4701.079     1970.521        1.449        0.422      143.171       49.114        0.118      334.979        5.309      866.569
01/04/2014  17:15:00       66.524      137.150       -9.940       66.732       87.309       46.951     4453.131     7622.810     2204.430        1.880        0.714      152.432       44.898        0.087      334.979        5.308      866.571
01/04/2014  17:16:00       50.241       64.974        8.274       56.907       46.539       41.511     3238.453     2165.899     1723.181        0.697        0.356       82.132       21.188        0.067      334.930        5.227      866.555
01/04/2014  17:17:00       74.145      101.852       -1.819       53.305       65.061       50.834     2841.431     4232.961     2584.074        1.276        0.483      125.981       28.978        0.053      334.919        5.208      866.547
01/04/2014  17:18:00       81.520      112.252       -0.822       70.325       91.790       59.332     4945.537     8425.322     3520.232        1.807        0.845      138.730       48.825        0.124      334.938        5.240      866.543
01/04/2014  17:19:00       70.027      118.192       -4.663       78.487       71.770       53.788     6160.194     5150.983     2893.099        1.655        0.710      137.380       37.468        0.074      334.893        5.166      866.540
01/04/2014  17:20:00       77.638      114.786       -8.828       68.810       89.266       61.531     4734.854     7968.414     3786.108        1.788        0.824      138.576       49.271        0.126      334.874        5.134      866.542
01/04/2014  17:21:00       68.954       75.070       18.773       68.446       46.440       50.390     4684.795     2156.657     2539.139        1.006        0.469      101.932       37.048        0.132      334.822        5.049      866.548
01/04/2014  17:22:00       57.821       94.546        5.144       64.651       63.163       49.148     4179.743     3989.591     2415.510        1.144        0.529      110.825       42.420        0.147      334.862        5.115      866.562
01/04/2014  17:23:00       84.648       86.434        5.997       55.789       51.944       41.096     3112.391     2698.169     1688.845        1.108        0.375      120.980       35.153        0.084      334.815        5.036      866.569
01/04/2014  17:24:00      108.802       94.901       22.950       69.509       55.649       56.573     4831.444     3096.790     3200.510        1.625        0.556      144.375       42.015        0.085      334.829        5.059      866.596
01/04/2014  17:25:00       78.132       72.015       15.977       76.200       52.440       33.355     5806.461     2749.992     1112.565        1.061        0.483      106.258       29.277        0.076      334.787        4.990      866.620
01/04/2014  17:26:00       63.877       74.897        2.342       49.796       50.494       42.568     2479.646     2549.623     1812.051        0.827        0.342       98.437       32.267        0.107      334.748        4.925      866.631
01/04/2014  17:27:00       76.518       80.687       17.690       55.877       38.965       48.423     3122.229     1518.264     2344.769        0.983        0.349      111.200       25.386        0.052      334.750        4.929      866.628
01/04/2014  17:28:00       81.520       97.948        5.084       88.021       73.425       58.525     7747.633     5391.302     3425.164        1.641        0.828      127.434       47.277        0.138      334.745        4.919      866.630
01/04/2014  17:29:00       80.174       75.938        9.280       56.468       42.865       37.358     3188.589     1837.407     1395.590        0.935        0.321      110.429       29.881        0.073      334.693        4.833      866.641
01/04/2014  17:30:00       65.661       57.504       22.494       45.635       35.827       35.516     2082.551     1283.559     1261.387        0.637        0.231       87.281       20.390        0.055      334.679        4.811      866.641
01/04/2014  17:31:00       85.474       86.634       -1.068       81.881       44.739       40.682     6704.508     2001.582     1654.993        1.258        0.518      121.701       36.481        0.090      334.654        4.768      866.645
01/04/2014  17:32:00       88.639      107.962       -7.812       64.769       61.991       43.949     4194.982     3842.900     1931.512        1.477        0.498      139.688       36.160        0.067      334.666        4.787      866.653
01/04/2014  17:33:00       89.136       66.275       18.962       56.572       40.756       37.426     3200.380     1661.025     1400.682        0.948        0.313      111.075       23.312        0.044      334.666        4.789      866.664
01/04/2014  17:34:00      155.251      118.872       28.979       84.331       52.627       57.454     7111.732     2769.638     3300.961        2.613        0.659      195.534       26.910        0.019      334.793        4.998      866.660
01/04/2014  17:35:00      144.891      101.542       22.713       67.134       50.555       43.099     4506.997     2555.801     1857.563        2.037        0.446      176.930       33.315        0.035      334.746        4.920      866.667
01/04/2014  17:36:00      126.807      103.228       12.943       64.119       44.405       43.155     4111.218     1971.820     1862.327        1.742        0.397      163.512       26.231        0.026      334.759        4.943      866.669
01/04/2014  17:37:00      136.132       86.121       12.090       58.593       37.283       28.539     3433.092     1390.031      814.473        1.587        0.282      161.086       15.444        0.009      334.671        4.795      866.680
01/04/2014  17:38:00      149.631       93.692       23.018       53.229       42.696       34.069     2833.302     1822.953     1160.663        1.876        0.291      176.543       16.319        0.009      334.699        4.841      866.686
01/04/2014  17:39:00      149.909       97.529       29.200       64.678       38.884       39.188     4183.298     1511.934     1535.703        2.003        0.362      178.843       15.219        0.007      334.723        4.881      866.688
01/04/2014  17:40:00      126.562       88.381        8.196       57.100       42.755       48.600     3260.360     1827.955     2361.939        1.567        0.373      154.367       28.361        0.034      334.683        4.816      866.699
01/04/2014  17:41:00      113.740       85.928       16.915       67.159       42.236       46.887     4510.380     1783.906     2198.348        1.455        0.425      142.549       35.036        0.060      334.686        4.822      866.695
01/04/2014  17:42:00      103.496       86.758       10.626       84.889       48.490       49.752     7206.198     2351.298     2475.272        1.519        0.602      135.050       30.920        0.052      334.706        4.855      866.686
01/04/2014  17:43:00       69.984       94.878       -0.765       59.601       57.253       34.363     3552.230     3277.916     1180.807        1.095        0.401      117.897       26.616        0.051      334.627        4.723      866.703
01/04/2014  17:44:00       90.496       95.072       -4.200       60.534       51.850       52.188     3664.399     2688.474     2723.618        1.316        0.454      131.257       41.803        0.101      334.617        4.707      866.709
01/04/2014  17:45:00       74.617       70.149       11.969       56.917       38.054       35.188     3239.506     1448.114     1238.195        0.828        0.296      102.414       21.692        0.045      334.610        4.696      866.709
01/04/2014  17:46:00       75.295       60.007       21.937       34.911       34.115       33.553     1218.768     1163.817     1125.828        0.663        0.175       96.282       24.761        0.066      334.557        4.607      866.716
01/04/2014  17:47:00       93.674       70.800        6.595       43.240       31.261       26.377     1869.664      977.236      695.725        0.869        0.177      117.420       19.556        0.028      334.531        4.564      866.721
01/04/2014  17:48:00       46.773       60.207        3.324       36.072       42.987       29.881     1301.176     1847.921      892.872        0.493        0.202       76.241       26.672        0.122      334.522        4.551      866.713
01/04/2014  17:49:00       44.307       81.444        2.152       34.162       53.559       39.033     1167.018     2868.577     1523.541        0.708        0.278       92.716       36.285        0.153      334.565        4.622      866.710
01/04/2014  17:50:00       27.735       72.257       -0.996       33.817       54.488       34.992     1143.621     2968.926     1224.421        0.566        0.267       77.397       34.572        0.200      334.530        4.564      866.704
01/04/2014  17:51:00       59.028       74.045        5.507       41.354       46.088       36.687     1710.172     2124.130     1345.955        0.709        0.259       94.694       31.170        0.108      334.568        4.625      866.705
01/04/2014  17:52:00       57.715       73.461        0.489       47.676       46.511       41.044     2273.033     2163.231     1684.648        0.742        0.306       93.421       31.450        0.113      334.584        4.652      866.709
01/04/2014  17:53:00       55.455       80.995       -4.946       38.917       45.362       31.852     1514.537     2057.719     1014.558        0.712        0.229       98.160       26.467        0.073      334.546        4.589      866.707
01/04/2014  17:54:00       56.854       51.436        5.467       42.665       35.257       30.731     1820.331     1243.065      944.366        0.496        0.200       76.668       19.746        0.066      334.535        4.571      866.719
01/04/2014  17:55:00       49.195       80.598       -5.007       33.899       50.722       32.594     1149.154     2572.766     1062.397        0.686        0.239       94.425       30.414        0.104      334.491        4.499      866.735
01/04/2014  17:56:00       93.398       65.977       10.890       36.488       35.520       29.051     1331.403     1261.698      843.963        0.832        0.172      114.351       24.358        0.045      334.473        4.469      866.753
01/04/2014  17:57:00      104.307       62.332       14.846       31.166       35.966       31.848      971.309     1293.561     1014.274        0.913        0.164      121.512       24.879        0.042      334.417        4.376      866.765
01/04/2014  17:58:00      104.736       62.055       14.715       40.960       36.239       24.182     1677.729     1313.253      584.778        0.931        0.179      121.739       15.432        0.016      334.390        4.331      866.790
01/04/2014  17:59:00       79.270       55.710       36.737       32.184       24.614       20.445     1035.795      605.870      417.997        0.640        0.103       96.888       12.836        0.018      334.334        4.238      866.796
01/04/2014  18:00:00       50.148       44.309       41.674       29.968       23.648       27.282      898.104      559.205      744.311        0.421        0.110       66.919       19.141        0.082      334.355        4.275      866.807
01/04/2014  18:01:00       36.846       17.976       15.859       43.531       28.404       17.043     1894.905      806.798      290.453        0.246        0.150       40.997       14.142        0.119      334.243        4.088      866.806
01/04/2014  18:02:00       73.400       45.918       22.496       32.902       16.919       18.720     1082.546      286.266      350.429        0.486        0.086       86.580       11.172        0.017      334.312        4.202      866.824
01/04/2014  18:03:00       29.032       30.560       32.411       29.461       18.805       22.330      867.949      353.621      498.625        0.227        0.086       42.151       21.195        0.253      334.291        4.167      866.839
01/04/2014  18:04:00       27.722       36.334       39.194       32.169       19.229       19.266     1034.815      369.742      371.170        0.270        0.089       45.702       19.697        0.186      334.231        4.067      866.870
01/04/2014  18:05:00       70.971       31.318       18.599       18.933       16.315       18.527      358.459      266.183      343.254        0.367        0.048       77.574       14.245        0.034      334.277        4.145      866.890
01/04/2014  18:06:00       48.849       26.677       16.414       28.877       22.786       19.400      833.862      519.189      376.348        0.255        0.086       55.659       10.567        0.036      334.222        4.052      866.903
01/04/2014  18:07:00       47.210       27.253       12.433       14.328       11.542       12.755      205.286      133.223      162.692        0.181        0.025       54.511        7.501        0.019      334.212        4.036      866.913
01/04/2014  18:08:00       15.567       25.375       -1.726       22.830        7.020        8.206      521.201       49.283       67.338        0.076        0.032       29.769        4.971        0.028      334.207        4.030      866.939
01/04/2014  18:09:00      -45.090        8.895       -5.264       18.528       15.338        9.870      343.305      235.268       97.410        0.141        0.034       45.959        3.466        0.006      334.246        4.091      866.951
01/04/2014  18:10:00      -41.361       -4.999       -3.584       15.322       16.980       12.276      234.751      288.309      150.697        0.121        0.034       41.662        7.286        0.031      334.284        4.155      866.972
01/04/2014  18:11:00       -8.338       -0.046       -4.090       12.166       10.160       10.572      148.001      103.216      111.772        0.022        0.018        8.338        8.351        1.003      334.324        4.224      866.990
01/04/2014  18:12:00      -60.834       -9.192       -3.742       14.487        8.070        8.296      209.882       65.121       68.822        0.207        0.017       61.525        7.400        0.014      334.356        4.274      867.005
01/04/2014  18:13:00      -13.021       -2.096       -1.704       25.606       11.370        8.133      655.657      129.271       66.145        0.051        0.043       13.189        8.640        0.429      334.254        4.105      867.025
01/04/2014  18:14:00       -0.310       -0.805        4.725       20.232       11.649       10.563      409.347      135.699      111.577        0.034        0.033        0.862        9.137      112.259      334.271        4.134      867.026
01/04/2014  18:15:00      -54.684       -2.378        1.760       20.404       17.204       11.080      416.337      295.986      122.759        0.192        0.042       54.735        8.473        0.024      334.286        4.158      867.046
01/04/2014  18:16:00      -32.385       -2.248        0.920       22.492       25.257       13.942      505.876      637.934      194.380        0.120        0.067       32.462       13.148        0.164      334.198        4.013      867.049
01/04/2014  18:17:00      -29.539       15.617       -3.628       14.097       17.201        8.387      198.725      295.862       70.348        0.085        0.028       33.413        8.502        0.065      334.113        3.871      867.064
01/04/2014  18:18:00      -16.869       18.494        5.069       25.309       17.916       13.656      640.553      320.992      186.487        0.090        0.057       25.032       15.042        0.361      334.232        4.069      867.068
01/04/2014  18:19:00        0.681       72.739       -9.502       22.833       30.619       16.316      521.339      937.526      266.209        0.355        0.086       72.743       17.434        0.057      334.322        4.219      867.064
01/04/2014  18:20:00       -1.785       94.486      -14.878       18.529       23.271       14.018      343.307      541.528      196.498        0.512        0.054       94.503       10.041        0.011      334.236        4.076      867.056
01/04/2014  18:21:00       11.278      136.137      -22.164       23.646       24.690       17.242      559.120      609.602      297.294        1.031        0.073      136.603       15.798        0.013      334.152        3.935      867.055
01/04/2014  18:22:00       10.710      154.050      -22.200       16.567       23.143       18.290      274.466      535.605      334.511        1.274        0.057      154.421       11.919        0.006      334.118        3.880      867.061
01/04/2014  18:23:00       16.115      184.117      -26.704       32.060       32.198       22.384     1027.874     1036.692      501.060        1.872        0.128      184.821       19.781        0.011      333.996        3.676      867.069
01/04/2014  18:24:00      -13.307      202.690      -28.206       44.779       47.347       21.860     2005.124     2241.740      477.839        2.339        0.236      203.127       15.689        0.006      333.981        3.650      867.097
01/04/2014  18:25:00        7.638      163.385      -21.506       38.934       36.792       24.534     1515.874     1353.669      601.908        1.534        0.174      163.563       18.494        0.013      333.826        3.395      867.108
01/04/2014  18:26:00       -8.078      208.516      -31.534       30.902       32.116       17.901      954.932     1031.417      320.439        2.342        0.115      208.672       15.801        0.006      333.980        3.651      867.100
01/04/2014  18:27:00      -41.851      156.913      -15.969       27.616       38.874       20.071      762.654     1511.215      402.835        1.465        0.134      162.399       16.436        0.010      334.084        3.822      867.099
01/04/2014  18:28:00      -45.107      166.188      -25.227       27.948       32.272       19.405      781.108     1041.514      376.557        1.624        0.110      172.200       14.022        0.007      334.135        3.909      867.097
01/04/2014  18:29:00      -51.924      166.164      -26.244       38.308       39.982       23.193     1467.473     1598.596      537.929        1.730        0.180      174.088       20.086        0.013      334.071        3.801      867.094
01/04/2014  18:30:00      -33.357      156.619      -23.730       28.283       27.542       18.769      799.907      758.576      352.289        1.406        0.096      160.131       11.571        0.005      334.045        3.758      867.116
01/04/2014  18:31:00      -28.208      124.463      -15.024       28.082       44.136       23.721      788.612     1947.979      562.683        0.991        0.165      127.620       22.564        0.031      334.087        3.829      867.125
01/04/2014  18:32:00      -31.961      101.664        1.461       34.473       49.422       27.617     1188.390     2442.506      762.684        0.788        0.220      106.570       28.042        0.069      334.090        3.834      867.145
01/04/2014  18:33:00      -28.464      132.665      -15.968       37.556       40.281       28.383     1410.461     1622.567      805.622        1.125        0.192      135.684       20.755        0.023      334.173        3.971      867.166
01/04/2014  18:34:00      -47.755      136.810      -15.574       39.608       75.310       29.167     1568.830     5671.613      850.724        1.466        0.405      144.905       30.992        0.046      334.158        3.944      867.186
01/04/2014  18:35:00        1.828      144.316      -16.372       38.108       43.902       24.507     1452.233     1927.374      600.574        1.254        0.199      144.328       19.661        0.019      334.206        4.025      867.206
01/04/2014  18:36:00       19.978      168.506      -25.432       26.597       24.423       17.247      707.374      596.492      297.452        1.552        0.080      169.686       12.522        0.005      334.083        3.821      867.209
01/04/2014  18:37:00        0.041      152.606      -23.503       44.077       28.457       21.576     1942.799      809.791      465.536        1.353        0.161      152.606       18.133        0.014      334.139        3.914      867.213
01/04/2014  18:38:00      -34.387      183.191      -26.392       28.759       25.575       15.422      827.085      654.064      237.837        1.858        0.086      186.390       11.820        0.004      334.146        3.925      867.212
01/04/2014  18:39:00      -23.771      178.235      -28.764       32.167       40.954       16.081     1034.705     1677.231      258.610        1.806        0.149      179.813       14.858        0.007      334.138        3.911      867.188
01/04/2014  18:40:00      -21.915      169.082      -18.598       32.939       53.354       20.900     1084.947     2846.675      436.810        1.689        0.218      170.496       25.022        0.022      334.169        3.963      867.175
01/04/2014  18:41:00       -0.187      159.549      -22.534       31.213       36.205       18.109      974.253     1310.774      327.940        1.429        0.131      159.549       13.457        0.007      334.098        3.846      867.176
01/04/2014  18:42:00        1.706      165.711      -22.604       27.388       30.873       16.760      750.077      953.158      280.899        1.498        0.099      165.720       14.645        0.008      334.039        3.749      867.192
01/04/2014  18:43:00       24.205      153.655      -24.095       31.456       28.218       19.320      989.461      796.233      373.266        1.347        0.108      155.549       16.688        0.012      333.957        3.613      867.212
01/04/2014  18:44:00        5.175      205.197      -26.520       18.962       32.147       20.370      359.560     1033.411      414.928        2.232        0.090      205.262       18.484        0.008      333.949        3.596      867.227
01/04/2014  18:45:00       -4.086      192.432      -31.147       23.559       26.244       11.698      555.014      688.761      136.848        1.970        0.069      192.476       11.062        0.003      333.971        3.635      867.246
01/04/2014  18:46:00      -31.099      156.659      -19.013       24.898       33.129       18.181      619.925     1097.564      330.556        1.396        0.102      159.716       17.056        0.011      334.045        3.758      867.264
01/04/2014  18:47:00      -32.329      149.660      -21.772       29.874       32.708       21.085      892.450     1069.807      444.576        1.316        0.120      153.112       19.154        0.016      334.078        3.813      867.272
01/04/2014  18:48:00      -63.645      165.916      -22.428       36.068       47.785       26.812     1300.885     2283.422      718.876        1.819        0.215      177.704       19.577        0.012      334.172        3.967      867.281
01/04/2014  18:49:00      -54.360      111.705      -13.817       40.233       38.055       27.745     1618.729     1448.190      769.764        0.973        0.192      124.230       23.544        0.036      334.120        3.884      867.289
01/04/2014  18:50:00      -61.699      150.336      -17.250       38.994       46.808       30.050     1520.518     2190.950      902.992        1.566        0.231      162.504       29.764        0.034      334.049        3.765      867.285
01/04/2014  18:51:00      -62.669      129.939      -18.152       39.997       28.748       24.224     1599.725      826.429      586.798        1.208        0.151      144.262       18.108        0.016      334.044        3.756      867.286
01/04/2014  18:52:00      -50.913      144.812      -21.441       33.934       30.869       20.455     1151.548      952.893      418.418        1.327        0.126      153.501       15.403        0.010      333.999        3.682      867.304
01/04/2014  18:53:00      -44.165      140.164      -16.175       38.926       36.383       20.083     1515.268     1323.712      403.339        1.255        0.162      146.958       16.687        0.013      334.059        3.782      867.296
01/04/2014  18:54:00      -22.170      166.886      -25.174       43.361       43.520       24.913     1880.163     1893.989      620.678        1.668        0.220      168.353       22.136        0.017      334.079        3.813      867.305
01/04/2014  18:55:00      -29.765      169.203      -26.705       36.637       36.164       18.203     1342.304     1307.801      331.360        1.660        0.149      171.801       10.456        0.004      334.025        3.725      867.300
01/04/2014  18:56:00       -1.310      212.013      -23.933       26.171       46.581       18.411      684.911     2169.758      338.954        2.436        0.160      212.017       19.330        0.008      333.993        3.669      867.318
01/04/2014  18:57:00        9.222      189.096      -22.720       36.181       51.975       28.506     1309.071     2701.398      812.607        2.059        0.241      189.321       29.543        0.024      333.916        3.542      867.331
01/04/2014  18:58:00       22.365      155.865      -25.430       24.371       34.285       20.074      593.933     1175.443      402.977        1.381        0.109      157.462       15.560        0.010      333.767        3.297      867.340
01/04/2014  18:59:00       -8.104      187.963      -29.500       29.741       27.692       14.198      884.543      766.867      201.574        1.906        0.093      188.137       12.299        0.004      333.849        3.432      867.354
01/04/2014  19:00:00      -35.180      179.075      -26.945       30.922       34.428       18.250      956.177     1185.274      333.072        1.825        0.124      182.498       18.634        0.010      333.937        3.578      867.342
01/04/2014  19:01:00       -6.896      184.257      -28.184       28.068       22.734       12.684      787.812      516.827      160.873        1.813        0.073      184.386        9.899        0.003      333.919        3.550      867.329
01/04/2014  19:02:00      -24.369      165.906      -25.142       30.057       38.569       18.050      903.413     1487.554      325.786        1.573        0.136      167.686       17.987        0.012      333.907        3.530      867.331
01/04/2014  19:03:00      -37.718      151.993      -21.820       34.320       42.812       25.774     1177.870     1832.842      664.317        1.434        0.184      156.603       25.248        0.026      334.090        3.832      867.335
01/04/2014  19:04:00      -47.744      195.704      -35.027       29.885       27.129       18.694      893.112      735.981      349.450        2.189        0.099      201.443        8.221        0.002      334.020        3.716      867.352
01/04/2014  19:05:00      -33.113      175.815      -30.061       29.231       44.285       19.420      854.432     1961.173      377.153        1.805        0.160      178.906       17.646        0.010      333.998        3.679      867.388
01/04/2014  19:06:00      -11.780      175.997      -26.286       24.763       35.297       14.292      613.192     1245.865      204.257        1.693        0.103      176.391       16.222        0.008      333.908        3.529      867.406
01/04/2014  19:07:00      -36.342      127.734      -14.743       32.744       44.121       21.213     1072.156     1946.623      449.996        1.066        0.173      132.804       21.755        0.027      333.977        3.644      867.419
01/04/2014  19:08:00      -28.754      159.269      -21.779       24.869       39.802       18.504      618.448     1584.218      342.386        1.461        0.127      161.844       19.437        0.014      333.938        3.581      867.434
01/04/2014  19:09:00      -45.812      125.591      -14.641       27.631       55.261       25.339      763.495     3053.793      642.053        1.127        0.223      133.686       24.116        0.033      333.940        3.584      867.426
01/04/2014  19:10:00      -73.137      112.460      -20.869       49.716       46.818       27.390     2471.657     2191.928      750.198        1.192        0.271      134.150       26.457        0.039      333.848        3.433      867.425
01/04/2014  19:11:00      -18.459      169.712      -13.339       28.532       59.387       29.376      814.067     3526.855      862.943        1.726        0.260      170.712       30.099        0.031      333.894        3.506      867.425
01/04/2014  19:12:00      -33.433      204.019      -27.612       38.562       37.715       21.150     1487.016     1422.440      447.320        2.343        0.168      206.740       16.670        0.007      333.837        3.411      867.420
01/04/2014  19:13:00      -16.652      179.789      -19.174       51.562       49.974       35.995     2658.663     2497.448     1295.653        1.971        0.323      180.558       32.431        0.032      333.758        3.281      867.414
01/04/2014  19:14:00       -9.440      177.194      -24.289       25.428       39.068       18.148      646.569     1526.325      329.349        1.729        0.125      177.445       14.779        0.007      333.746        3.262      867.423
01/04/2014  19:15:00        8.025      171.361      -21.749       38.480       39.751       25.959     1480.747     1580.119      673.862        1.682        0.187      171.548       22.090        0.017      333.630        3.069      867.425
01/04/2014  19:16:00        5.574      185.285      -26.382       36.051       34.177       18.052     1299.701     1168.101      325.859        1.893        0.140      185.369       13.318        0.005      333.629        3.068      867.425
01/04/2014  19:17:00       17.562      177.385      -25.605       25.618       35.240       18.030      656.265     1241.874      325.093        1.733        0.111      178.253       13.599        0.006      333.586        2.998      867.451
01/04/2014  19:18:00       21.380      172.116      -19.948       33.817       35.983       26.075     1143.593     1294.767      679.901        1.680        0.156      173.439       18.468        0.011      333.572        2.974      867.472
01/04/2014  19:19:00       19.750      171.809      -23.568       27.496       32.077       17.610      756.050     1028.920      310.120        1.628        0.105      172.941       13.879        0.006      333.566        2.964      867.482
01/04/2014  19:20:00       20.511      146.016      -22.547       20.187       26.046       17.943      407.516      678.394      321.945        1.183        0.070      147.449       12.078        0.007      333.546        2.931      867.506
01/04/2014  19:21:00       19.447      143.792      -24.390       20.174       21.567       13.565      406.990      465.120      184.007        1.135        0.053      145.101       10.567        0.005      333.573        2.976      867.520
01/04/2014  19:22:00       -0.410      151.857      -26.773       22.964       22.291       11.616      527.336      496.890      134.933        1.247        0.058      151.857        7.545        0.002      333.540        2.921      867.533
01/04/2014  19:23:00       20.653      138.862      -26.149       27.901       29.188       15.295      778.443      851.931      233.930        1.113        0.093      140.389       13.485        0.009      333.547        2.932      867.550
01/04/2014  19:24:00       46.211       69.748       -4.998       33.437       32.509       27.326     1118.037     1056.812      746.716        0.497        0.146       83.668       20.075        0.058      333.438        2.753      867.549
01/04/2014  19:25:00       29.847      107.834      -13.660       29.665       30.395       21.887      880.019      923.837      479.056        0.749        0.114      111.889       19.457        0.030      333.559        2.953      867.533
01/04/2014  19:26:00      -13.592      101.314      -14.630       17.656       21.565       12.836      311.747      465.042      164.771        0.580        0.047      102.221        6.549        0.004      333.580        2.988      867.519
01/04/2014  19:27:00      -27.291       92.459       -8.991       29.630       35.602       21.639      877.908     1267.484      468.235        0.599        0.131       96.402       18.919        0.039      333.816        3.379      867.503
01/04/2014  19:28:00        4.358       91.745       -7.874       29.647       32.426       20.292      878.924     1051.438      411.763        0.542        0.117       91.849       19.465        0.045      333.803        3.357      867.504
01/04/2014  19:29:00      -10.174      134.241      -22.271       20.090       16.054       11.383      403.601      257.744      129.579        0.971        0.040      134.626        7.801        0.003      333.717        3.215      867.514
01/04/2014  19:30:00       -0.366      129.163      -20.731       13.404       17.987       11.357      179.665      323.520      128.988        0.887        0.032      129.163        8.202        0.004      333.673        3.140      867.529
01/04/2014  19:31:00       12.387      149.766      -25.483       12.674       21.042        8.101      160.619      442.770       65.622        1.195        0.033      150.277        7.384        0.002      333.618        3.049      867.544
01/04/2014  19:32:00       -6.867      144.633      -17.904       16.779       32.207        9.626      281.547     1037.314       92.659        1.135        0.071      144.796       12.715        0.008      333.618        3.052      867.558
01/04/2014  19:33:00        8.784      115.684      -20.841       19.021       21.110       12.704      361.786      445.652      161.384        0.743        0.048      116.017        8.666        0.006      333.489        2.837      867.563
01/04/2014  19:34:00       12.033      123.477      -16.788       13.270       21.354       10.418      176.084      456.005      108.539        0.821        0.037      124.062       10.866        0.008      333.486        2.831      867.556
01/04/2014  19:35:00       11.221      118.592      -15.628       16.531       22.116       14.207      273.275      489.098      201.831        0.770        0.048      119.122       11.514        0.009      333.418        2.721      867.555
01/04/2014  19:36:00       -2.681      130.565      -16.671        8.815       20.262       10.121       77.707      410.532      102.428        0.896        0.030      130.593        9.250        0.005      333.491        2.840      867.568
01/04/2014  19:37:00        6.503      149.593      -25.580       18.017       32.746        8.901      324.603     1072.274       79.229        1.228        0.074      149.734        9.138        0.004      333.467        2.800      867.586
01/04/2014  19:38:00       -2.071      134.423      -20.592       17.245       29.184       11.400      297.391      851.677      129.965        0.989        0.064      134.439       12.479        0.009      333.525        2.896      867.592
01/04/2014  19:39:00      -18.059      122.248      -18.969       17.674       15.997       10.322      312.382      255.911      106.544        0.815        0.034      123.574        1.517        0.000      333.598        3.018      867.592
01/04/2014  19:40:00      -14.190      114.531      -16.592       19.334       22.218       16.142      373.809      493.621      260.571        0.736        0.056      115.407       12.496        0.012      333.695        3.179      867.599
01/04/2014  19:41:00       -8.407      128.713      -21.662       16.358       18.171       11.425      267.584      330.194      130.533        0.892        0.036      128.987        6.329        0.002      333.585        2.995      867.598
01/04/2014  19:42:00      -12.775       96.439      -11.357       18.930       24.696       17.448      358.354      609.883      304.430        0.543        0.064       97.281       12.731        0.017      333.601        3.023      867.605
01/04/2014  19:43:00       -2.437      104.420      -15.466       15.555       21.622       15.655      241.964      467.508      245.066        0.605        0.048      104.448       11.745        0.013      333.668        3.135      867.609
01/04/2014  19:44:00      -24.464       50.944       -2.637       19.118       46.738       14.791      365.500     2184.469      218.766        0.298        0.138       56.514       15.630        0.076      333.589        3.004      867.627
01/04/2014  19:45:00      -27.996       10.564       -5.127       21.413       13.887       11.471      458.534      192.844      131.589        0.085        0.039       29.923       12.956        0.187      333.612        3.043      867.644
01/04/2014  19:46:00      -32.660        6.828       -2.367       23.010       11.737        8.814      529.459      137.753       77.681        0.093        0.037       33.367        7.708        0.053      333.582        2.993      867.657
01/04/2014  19:47:00      -44.001        7.721      -14.269       17.761       12.314       10.881      315.468      151.628      118.402        0.139        0.029       44.673        5.151        0.013      333.556        2.948      867.655
01/04/2014  19:48:00      -34.671      -19.896       -7.198       19.898       22.369       19.494      395.929      500.387      380.016        0.146        0.064       39.974       14.980        0.140      333.505        2.864      867.660
01/04/2014  19:49:00      -52.719       -9.317       -8.079       12.091       15.349       14.978      146.187      235.602      224.347        0.177        0.030       53.536        7.200        0.018      333.384        2.664      867.682
01/04/2014  19:50:00       -0.328        5.649       -6.899       15.050       12.692       10.053      226.514      161.075      101.060        0.028        0.024        5.659       10.487        3.435      333.551        2.939      867.703
01/04/2014  19:51:00       24.249        2.765        3.252       15.553       19.579        9.800      241.888      383.337       96.032        0.066        0.036       24.406        3.734        0.023      333.590        3.005      867.707
01/04/2014  19:52:00       33.447       39.314        0.158       17.833       19.541       11.761      318.017      381.835      138.332        0.175        0.042       51.617        7.761        0.023      333.634        3.077      867.710
01/04/2014  19:53:00       19.238       34.617       -8.888       13.981       12.221        7.961      195.456      149.354       63.379        0.103        0.020       39.603        8.496        0.046      333.574        2.978      867.728
01/04/2014  19:54:00       12.901       38.613       -5.093       11.093       14.513        6.029      123.059      210.614       36.348        0.103        0.019       40.711        6.425        0.025      333.529        2.902      867.733
01/04/2014  19:55:00       26.651       48.529       -6.520       17.604       23.990       13.873      309.900      575.529      192.465        0.209        0.054       55.365       12.610        0.052      333.479        2.819      867.737
01/04/2014  19:56:00       26.280       55.239       -3.105       16.597       28.969       17.264      275.472      839.178      298.032        0.258        0.071       61.172       17.540        0.082      333.400        2.688      867.740
01/04/2014  19:57:00       23.983       52.714       -1.821       24.465       39.285       20.486      598.558     1543.317      419.685        0.296        0.128       57.913       20.607        0.127      333.372        2.644      867.746
01/04/2014  19:58:00       32.268       33.638        2.645       24.283       27.534       16.665      589.673      758.113      277.734        0.190        0.081       46.612       14.321        0.094      333.309        2.540      867.762
01/04/2014  19:59:00       47.506       32.139        8.201       19.796       19.464       18.132      391.886      378.863      328.787        0.223        0.055       57.356       10.022        0.031      333.261        2.459      867.770
01/04/2014  20:00:00       37.518       32.510       -3.974       22.168       22.722       14.793      491.422      516.298      218.847        0.185        0.061       49.644       12.127        0.060      333.283        2.496      867.789
01/04/2014  20:01:00       31.021       17.780        0.578       29.398       18.132       16.498      864.254      328.769      272.188        0.137        0.073       35.755       20.040        0.314      333.164        2.299      867.811
01/04/2014  20:02:00       24.005       21.718       12.271       11.284       11.277       12.088      127.319      127.169      146.128        0.080        0.020       32.371        8.085        0.062      333.103        2.199      867.818
01/04/2014  20:03:00       38.929       32.567        2.303       10.413        8.803        7.692      108.432       77.485       59.172        0.141        0.012       50.755        6.471        0.016      333.221        2.393      867.821
01/04/2014  20:04:00       49.240       42.738       10.102       12.262       11.780       11.859      150.349      138.762      140.639        0.239        0.021       65.201        4.588        0.005      333.248        2.436      867.845
01/04/2014  20:05:00       69.414       24.298       11.506       18.436       17.753       22.260      339.874      315.176      495.521        0.335        0.058       73.544       14.473        0.039      333.227        2.403      867.870
01/04/2014  20:06:00       45.252       34.437       17.299       18.160       12.495       17.360      329.789      156.113      301.365        0.216        0.039       56.865       12.184        0.046      333.134        2.251      867.876
01/04/2014  20:07:00       41.993       38.074       45.664       25.924       27.641       21.441      672.066      764.031      459.728        0.360        0.095       56.684       18.898        0.111      333.102        2.198      867.876
01/04/2014  20:08:00       76.723       66.096       32.322       60.273       28.611       29.983     3632.795      818.570      899.006        0.832        0.268      101.268       32.327        0.102      333.080        2.163      867.873
01/04/2014  20:09:00       75.786       61.567       15.718       31.968       26.666       25.255     1021.934      711.077      637.835        0.608        0.119       97.642       19.177        0.039      333.026        2.073      867.870
01/04/2014  20:10:00       21.455       83.372       -7.636       21.787       21.695       18.501      474.653      470.686      342.294        0.438        0.064       86.089       15.745        0.033      332.969        1.978      867.859
01/04/2014  20:11:00       23.427       73.426       -8.360       16.408       22.310       14.415      269.234      497.717      207.798        0.349        0.049       77.073       11.505        0.022      333.019        2.061      867.864
01/04/2014  20:12:00       24.242       65.630       -9.348       21.825       24.063       14.190      476.317      579.039      201.355        0.312        0.063       69.964       13.268        0.036      333.092        2.180      867.871
01/04/2014  20:13:00       17.735       38.548        0.338       27.934       16.093       15.150      780.327      258.971      229.518        0.153        0.063       42.432       13.760        0.105      333.063        2.131      867.880
01/04/2014  20:14:00      -33.814       27.321       -7.437       30.256       17.598       10.628      915.447      309.674      112.945        0.164        0.067       43.472       11.514        0.070      333.097        2.187      867.882
01/04/2014  20:15:00      -92.716       23.587       -8.050       26.521       24.166       19.913      703.378      583.984      396.523        0.545        0.084       95.669       15.522        0.026      333.089        2.177      867.877
01/04/2014  20:16:00      -66.019       27.195      -15.279       14.532       15.285       10.154      211.171      233.640      103.104        0.294        0.027       71.401        5.091        0.005      333.160        2.292      867.887
01/04/2014  20:17:00      -52.732       26.849       -9.835       30.171       24.093       15.712      910.311      580.474      246.853        0.267        0.087       59.174       10.926        0.034      333.236        2.420      867.884
01/04/2014  20:18:00      -62.686       84.170      -23.213       25.923       26.926       15.864      671.989      725.036      251.676        0.660        0.082      104.948       11.210        0.011      333.417        2.716      867.878
01/04/2014  20:19:00      -38.507       73.061      -16.774       26.300       31.511       19.058      691.712      992.952      363.208        0.457        0.102       82.587        8.872        0.012      333.438        2.752      867.885
01/04/2014  20:20:00       -3.316      143.072      -15.088       22.546       26.127       16.279      508.318      682.624      264.997        1.108        0.073      143.110        7.231        0.003      333.374        2.648      867.904
01/04/2014  20:21:00      -23.007      133.829      -22.038       17.076       20.354       11.597      291.604      414.299      134.481        0.988        0.042      135.792        5.309        0.002      333.347        2.601      867.920
01/04/2014  20:22:00      -18.170      117.733      -16.551       23.851       29.270       15.517      568.892      856.747      240.784        0.807        0.083      119.127       10.144        0.007      333.395        2.681      867.937
01/04/2014  20:23:00      -25.914       40.804       -1.436       29.278       32.217       15.988      857.180     1037.930      255.616        0.224        0.108       48.337       13.711        0.080      333.220        2.391      867.935
01/04/2014  20:24:00      -39.763       64.797       -9.598       20.861       61.377       17.614      435.168     3767.095      310.254        0.519        0.226       76.025       24.377        0.103      333.211        2.376      867.935
01/04/2014  20:25:00      -13.778       48.838        2.092       37.503       37.437       15.686     1406.510     1401.519      246.062        0.282        0.153       50.744       15.482        0.093      333.303        2.529      867.944
01/04/2014  20:26:00      -27.943       95.568       -5.469       28.746       42.319       21.025      826.308     1790.908      442.056        0.650        0.153       99.569       17.365        0.030      333.455        2.780      867.957
01/04/2014  20:27:00      -42.961       49.834      -10.414       22.369       42.258       17.750      500.389     1785.716      315.078        0.352        0.130       65.796       18.042        0.075      333.205        2.365      867.991
01/04/2014  20:28:00      -43.145       53.679       -8.134       27.948       28.325       13.891      781.068      802.279      192.966        0.329        0.089       68.869       15.054        0.048      333.263        2.462      868.018
01/04/2014  20:29:00      -44.384       16.524       -9.910       15.045       30.365       12.138      226.360      922.029      147.337        0.182        0.065       47.360       13.213        0.078      333.055        2.121      868.037
01/04/2014  20:30:00      -24.339       69.982       -6.328       38.907       48.852       25.761     1513.735     2386.506      663.644        0.505        0.228       74.093       30.045        0.164      333.198        2.355      868.052
01/04/2014  20:31:00      -45.982        8.331       -5.619       18.394       23.100       13.819      338.335      533.623      190.954        0.164        0.053       46.731       12.998        0.077      332.690        1.519      868.060
01/04/2014  20:32:00      -27.041       55.144       -9.430       29.797       42.387       15.085      887.876     1796.677      227.557        0.339        0.146       61.417        7.759        0.016      333.062        2.132      868.070
01/04/2014  20:33:00      -13.139       81.075       -8.593       37.271       44.147       20.658     1389.157     1948.984      426.762        0.529        0.188       82.133       21.775        0.070      333.086        2.171      868.086
01/04/2014  20:34:00      -47.720       31.232       -6.219       14.990       25.449       16.203      224.711      647.633      262.550        0.221        0.057       57.032        9.673        0.029      333.057        2.124      868.098
01/04/2014  20:35:00       12.866       36.377       -5.684       27.433       28.066       15.873      752.571      787.727      251.957        0.166        0.090       38.585       15.083        0.153      333.141        2.263      868.105
01/04/2014  20:36:00       42.259       27.653        6.191       20.541       20.075       14.605      421.934      402.990      213.294        0.181        0.052       50.503       11.499        0.052      332.829        1.747      868.108
01/04/2014  20:37:00       37.591       50.254       -4.698       16.330       18.408       18.107      266.679      338.850      327.871        0.245        0.047       62.758       13.488        0.046      333.067        2.140      868.111
01/04/2014  20:38:00       29.796       83.111       -7.632       19.037       24.504       10.267      362.400      600.437      105.420        0.446        0.053       88.291        9.830        0.012      333.182        2.330      868.104
01/04/2014  20:39:00       44.049       66.598        0.764       30.582       30.584       23.329      935.255      935.374      544.252        0.440        0.121       79.847       21.613        0.073      333.186        2.337      868.108
01/04/2014  20:40:00       39.158       66.508       -3.415       27.491       25.346       18.095      755.764      642.427      327.422        0.385        0.086       77.179       13.795        0.032      333.208        2.371      868.106
01/04/2014  20:41:00       72.814       56.750        6.325       33.781       22.570       22.760     1141.175      509.426      518.035        0.537        0.108       92.318       16.826        0.033      333.206        2.368      868.109
01/04/2014  20:42:00       54.072       40.355       12.121       27.843       20.846       21.543      775.250      434.545      464.102        0.319        0.084       67.471       11.975        0.032      333.099        2.193      868.121
01/04/2014  20:43:00       36.899       30.639       -0.888       28.807       17.451       16.851      829.850      304.522      283.973        0.186        0.071       47.961       10.069        0.044      333.080        2.162      868.136
01/04/2014  20:44:00        7.460       46.660       -8.707       11.802       30.700        6.845      139.283      942.516       46.854        0.172        0.056       47.252        9.071        0.037      333.162        2.297      868.157
01/04/2014  20:45:00        1.239       51.175      -11.558       19.817       18.040       11.613      392.703      325.452      134.860        0.180        0.043       51.190        9.911        0.037      333.250        2.442      868.174
01/04/2014  20:46:00      -26.320       26.647      -10.134       14.269       20.314        6.581      203.618      412.663       43.308        0.108        0.033       37.454        2.635        0.005      333.054        2.117      868.191
01/04/2014  20:47:00      -32.102        3.276       -0.716       25.389       16.788       12.260      644.588      281.822      150.310        0.106        0.054       32.269        9.033        0.078      332.723        1.571      868.202
01/04/2014  20:48:00      -76.968        2.693      -17.211       12.719       13.088       11.090      161.778      171.290      122.981        0.334        0.023       77.015        4.435        0.003      332.307        0.884      868.202
01/04/2014  20:49:00      -66.912      -11.135      -17.208       15.039       13.310       11.593      226.183      177.156      134.395        0.272        0.027       67.832        7.278        0.012      332.252        0.794      868.196
01/04/2014  20:50:00      -69.602       -4.157       -9.859       21.314       13.474       10.114      454.292      181.554      102.297        0.285        0.037       69.726       10.065        0.021      332.281        0.841      868.185
01/04/2014  20:51:00      -65.751      -14.678      -12.751       10.741       10.805        7.432      115.361      116.749       55.242        0.249        0.014       67.369        6.824        0.010      332.393        1.025      868.181
01/04/2014  20:52:00      -66.320      -14.163      -11.667        9.652        9.960        9.396       93.170       99.205       88.278        0.251        0.014       67.815        5.964        0.008      332.230        0.757      868.172
01/04/2014  20:53:00      -68.997       -9.411      -10.811       26.779       13.258       13.899      717.096      175.787      193.190        0.303        0.054       69.636        7.711        0.012      332.199        0.706      868.160
01/04/2014  20:54:00      -92.907       -7.788      -17.302       22.802       22.887       14.501      519.952      523.796      210.277        0.512        0.063       93.233       14.721        0.025      332.170        0.659      868.156
01/04/2014  20:55:00      -96.161      -12.410      -14.758       22.831       31.955       17.434      521.254     1021.154      303.951        0.573        0.092       96.958       14.037        0.021      332.068        0.491      868.158
01/04/2014  20:56:00      -61.070       -6.780      -12.528       23.660       24.785       14.403      559.804      614.289      207.449        0.266        0.069       61.445       11.487        0.035      332.090        0.526      868.173
01/04/2014  20:57:00      -24.139      -12.344       -7.459       42.588       29.075       18.242     1813.734      845.371      332.788        0.189        0.150       27.112       16.742        0.381      332.052        0.464      868.195
01/04/2014  20:58:00      -68.628       16.175       -1.972       54.778       43.156       30.451     3000.672     1862.477      927.276        0.538        0.290       70.508       31.796        0.203      331.932        0.266      868.218
01/04/2014  20:59:00     -103.921        1.804      -20.962       41.041       26.972       20.548     1684.394      727.494      422.206        0.704        0.142      103.936       18.012        0.030      331.883        0.185      868.236
01/04/2014  21:00:00      -78.740        5.816       -7.692       56.179       33.042       27.293     3156.049     1091.751      744.917        0.564        0.250       78.955       29.199        0.137      331.896        0.205      868.254
01/04/2014  21:01:00      -30.880       -4.604        3.184       41.896       26.774       22.982     1755.304      716.835      528.189        0.199        0.150       31.221       18.687        0.358      331.927        0.258      868.261
01/04/2014  21:02:00      -57.062        5.041       -9.986       47.023       44.893       23.521     2211.167     2015.423      553.241        0.408        0.239       57.284       21.946        0.147      331.978        0.342      868.280
01/04/2014  21:03:00      -98.251       30.517      -14.380       43.274       27.214       19.183     1872.598      740.617      367.985        0.689        0.149      102.882       11.632        0.013      332.012        0.400      868.291
01/04/2014  21:04:00      -71.528       10.706      -16.217       49.781       30.602       22.701     2478.148      936.493      515.326        0.471        0.196       72.325       11.283        0.024      331.982        0.348      868.293
01/04/2014  21:05:00      -88.839        8.466      -12.141       45.490       36.020       26.058     2069.362     1297.433      679.023        0.608        0.202       89.241       23.279        0.068      331.920        0.247      868.298
01/04/2014  21:06:00      -98.816       13.679      -11.315       44.180       34.857       26.929     1951.831     1215.036      725.165        0.699        0.195       99.758       20.606        0.043      331.865        0.155      868.307
01/04/2014  21:07:00     -112.542       14.076      -11.824       50.344       29.191       22.254     2534.533      852.110      495.227        0.844        0.194      113.419       20.672        0.033      331.881        0.182      868.323
01/04/2014  21:08:00     -125.654        0.162      -12.611       41.478       35.139       24.143     1720.421     1234.779      582.904        0.974        0.177      125.654       18.312        0.021      331.836        0.109      868.344
01/04/2014  21:09:00     -114.745       -8.510      -13.215       42.853       39.316       25.009     1836.398     1545.727      625.431        0.871        0.200      115.060       19.469        0.029      331.858        0.144      868.360
01/04/2014  21:10:00      -94.979      -13.782       -7.794       37.047       38.246       22.100     1372.450     1462.733      488.422        0.630        0.166       95.974       20.777        0.047      331.898        0.210      868.374
01/04/2014  21:11:00     -120.817       -9.346      -25.924       21.383       28.510       15.379      457.233      812.808      236.499        0.843        0.075      121.178        9.117        0.006      331.860        0.148      868.380
01/04/2014  21:12:00      -81.660      -33.210      -16.902       15.123       25.585       12.710      228.691      654.578      161.537        0.455        0.052       88.155        8.510        0.009      331.822        0.084      868.383
01/04/2014  21:13:00      -44.841      -18.795      -10.426       24.655       16.808       17.970      607.878      282.501      322.925        0.184        0.061       48.620        9.609        0.039      331.872        0.167      868.387
01/04/2014  21:14:00     -123.815       12.984      -14.580       30.371       12.311       10.509      922.388      151.572      110.439        0.845        0.059      124.494       11.064        0.008      331.870        0.165      868.390
01/04/2014  21:15:00      -98.566       -2.484      -14.692       22.905       14.691       15.338      524.661      215.829      235.269        0.546        0.049       98.597       13.990        0.020      331.856        0.141      868.372
01/04/2014  21:16:00      -90.136       -0.306      -15.051       26.551       15.427       15.332      704.970      238.001      235.070        0.476        0.059       90.136       12.644        0.020      331.822        0.084      868.357
01/04/2014  21:17:00      -81.254       -2.219      -11.744       19.076       10.653        9.291      363.901      113.488       86.331        0.365        0.028       81.284        2.208        0.001      331.870        0.164      868.359
01/04/2014  21:18:00      -72.526      -12.753      -10.109       15.163       14.870       12.379      229.904      221.125      153.232        0.306        0.030       73.639        5.702        0.006      331.954        0.303      868.360
01/04/2014  21:19:00      -56.185        4.044      -10.493       20.257       23.868       11.828      410.351      569.668      139.899        0.220        0.056       56.331       10.657        0.036      331.979        0.344      868.366
01/04/2014  21:20:00      -44.501       18.225       -7.544       21.312       29.085       15.851      454.183      845.945      251.265        0.196        0.078       48.088       12.804        0.071      332.195        0.700      868.376
01/04/2014  21:21:00      -47.900       18.965       -4.144       21.669       28.200       17.283      469.541      795.220      298.706        0.212        0.078       51.517       15.458        0.090      332.201        0.710      868.378
01/04/2014  21:22:00      -38.416        5.155       -4.212       20.214       20.352       16.577      408.586      414.196      274.808        0.131        0.055       38.760       13.008        0.113      332.000        0.379      868.386
01/04/2014  21:23:00      -40.046        5.278       -2.445       22.414       31.271       19.270      502.387      977.845      371.333        0.174        0.093       40.392       19.155        0.225      332.039        0.442      868.394
01/04/2014  21:24:00      -35.141       10.211      -13.201       18.389       35.689       12.750      338.172     1273.702      162.574        0.164        0.089       36.595        4.865        0.018      332.231        0.758      868.392
01/04/2014  21:25:00      -43.181       -8.153       -0.554       22.314       17.178       16.655      497.919      295.082      277.401        0.150        0.054       43.944       10.852        0.061      332.121        0.577      868.384
01/04/2014  21:26:00      -61.223       -7.782      -13.239       20.543       15.041        8.796      422.032      226.246       77.363        0.235        0.036       61.716        6.637        0.012      331.913        0.235      868.395
01/04/2014  21:27:00      -67.908      -31.156      -16.161       13.973       18.212       10.155      195.257      331.681      103.119        0.324        0.032       74.714        8.698        0.014      331.723       -0.077      868.418
01/04/2014  21:28:00      -77.516      -33.894      -13.685       28.305       10.235       12.248      801.169      104.758      150.006        0.420        0.053       84.602       13.268        0.025      331.834        0.104      868.436
01/04/2014  21:29:00     -103.027      -44.183      -14.762       19.925       15.553       10.207      396.997      241.886      104.188        0.676        0.037      112.102        7.372        0.004      331.820        0.082      868.451
01/04/2014  21:30:00     -120.625      -23.030      -19.414       26.334       12.340       10.749      693.481      152.281      115.538        0.821        0.048      122.804        9.223        0.006      331.877        0.176      868.468
01/04/2014  21:31:00     -118.315      -21.964      -18.408       22.924       16.550       12.240      525.498      273.891      149.808        0.788        0.047      120.336       11.672        0.009      331.831        0.101      868.479
01/04/2014  21:32:00     -103.014        5.075      -12.862       52.258       29.502       28.028     2730.898      870.388      785.562        0.759        0.219      103.139       32.679        0.100      331.770       -0.001      868.480
01/04/2014  21:33:00      -85.861        5.103      -25.349       47.565       30.621       24.384     2262.437      937.660      594.565        0.592        0.190       86.012       17.734        0.043      331.807        0.059      868.481
01/04/2014  21:34:00      -81.982       38.457      -31.260       36.459       36.501       27.155     1329.286     1332.319      737.415        0.629        0.170       90.553       19.363        0.046      331.998        0.376      868.472
01/04/2014  21:35:00     -101.000        7.694      -23.404       51.834       47.274       23.649     2686.788     2234.826      559.270        0.814        0.274      101.293       17.123        0.029      332.031        0.427      868.463
01/04/2014  21:36:00      -95.879       11.136      -17.869       44.307       47.090       22.939     1963.117     2217.505      526.216        0.717        0.235       96.523       15.956        0.027      331.900        0.213      868.458
01/04/2014  21:37:00      -67.853       -6.690       -5.770       26.031       26.397       22.060      677.588      696.787      486.634        0.327        0.093       68.182       17.816        0.068      331.693       -0.127      868.461
01/04/2014  21:38:00      -36.609      -12.166        1.324       39.270       28.145       18.629     1542.131      792.122      347.024        0.209        0.134       38.577       20.361        0.279      331.655       -0.188      868.481
01/04/2014  21:39:00      -83.597       -3.577      -17.890       38.528       27.092       19.861     1484.426      733.950      394.454        0.497        0.131       83.674       12.160        0.021      331.674       -0.158      868.484
01/04/2014  21:40:00      -61.232        2.083       -6.759       39.117       30.492       22.174     1530.148      929.751      491.668        0.337        0.148       61.268       22.747        0.138      331.574       -0.323      868.492
01/04/2014  21:41:00      -99.297      -25.147       -2.402       38.783       36.022       22.779     1504.138     1297.585      518.888        0.691        0.166      102.432       21.904        0.046      331.611       -0.264      868.520
01/04/2014  21:42:00      -69.488      -18.126       -7.828       33.824       24.723       17.203     1144.054      611.214      295.936        0.363        0.103       71.813       18.221        0.064      331.657       -0.186      868.559
01/04/2014  21:43:00      -26.122      -51.355        6.850       49.734       16.254       14.038     2473.427      264.204      197.074        0.315        0.147       57.617       13.736        0.057      331.703       -0.111      868.584
01/04/2014  21:44:00      -61.726      -48.514      -11.664       27.659       20.567       13.902      765.047      422.988      193.268        0.384        0.069       78.509        9.950        0.016      331.815        0.073      868.616
01/04/2014  21:45:00     -102.955      -38.436      -13.918       16.988       18.723       14.021      288.585      350.533      196.580        0.655        0.042      109.895       12.087        0.012      331.827        0.095      868.649
01/04/2014  21:46:00     -124.044      -54.311       -8.299       17.249       20.968       14.208      297.541      439.653      201.875        0.967        0.047      135.413       10.956        0.007      331.885        0.189      868.680
01/04/2014  21:47:00     -108.220      -70.815       -3.371       33.962       22.986       24.423     1153.427      528.336      596.463        0.951        0.114      129.330       12.508        0.009      331.894        0.204      868.693
01/04/2014  21:48:00     -117.864      -58.382       -9.309       36.148       25.007       19.277     1306.703      625.328      371.606        0.984        0.115      131.531       19.979        0.023      331.789        0.032      868.709
01/04/2014  21:49:00     -119.795      -58.921      -12.281       75.634       38.998       24.277     5720.547     1520.871      589.363        1.290        0.392      133.501       33.691        0.064      331.797        0.043      868.725
01/04/2014  21:50:00       23.029        4.073       16.284       19.853       20.367       15.418      394.123      414.817      237.728        0.093        0.052       23.386        8.866        0.144      331.894        0.204      868.745
01/04/2014  21:51:00      -75.706      -24.353      -10.570       23.219       11.001       15.363      539.124      121.017      236.032        0.367        0.045       79.527       10.614        0.018      331.929        0.263      868.763
01/04/2014  21:52:00      -94.687      -44.725       -8.340       22.584       19.007       13.087      510.059      361.278      171.278        0.604        0.052      104.719        6.377        0.004      331.842        0.117      868.775
01/04/2014  21:53:00      -18.053      -27.916        9.771       51.490       24.005       25.268     2651.179      576.263      638.460        0.253        0.193       33.245       24.836        0.558      331.766       -0.009      868.808
01/04/2014  21:54:00      -67.770      -16.832       -8.665       14.327       16.251       12.837      205.273      264.089      164.786        0.279        0.032       69.829        9.503        0.019      331.762       -0.012      868.843
01/04/2014  21:55:00      -86.326      -26.037       -7.131       30.255       20.406       13.920      915.365      416.386      193.778        0.485        0.076       90.167       13.749        0.023      331.779        0.013      868.866
01/04/2014  21:56:00     -109.220      -17.494      -20.126       14.702       15.553       12.672      216.154      241.911      160.578        0.663        0.031      110.612        5.187        0.002      331.687       -0.136      868.877
01/04/2014  21:57:00      -72.849      -40.635      -13.533       12.938       12.167        8.198      167.383      148.047       67.205        0.376        0.019       83.416        3.674        0.002      331.708       -0.102      868.883
01/04/2014  21:58:00      -78.770      -31.633      -21.534       21.343       18.015       10.579      455.520      324.539      111.909        0.428        0.045       84.885       10.137        0.014      331.680       -0.147      868.871
01/04/2014  21:59:00      -93.957      -23.977      -12.253       24.533       22.282       17.470      601.880      496.501      305.203        0.548        0.070       96.968       13.185        0.018      331.564       -0.340      868.860
01/04/2014  22:00:00      -41.561        3.210       -8.597       23.291       23.412       12.982      542.454      548.102      168.521        0.154        0.063       41.685       11.153        0.072      331.774        0.007      868.847
01/04/2014  22:01:00      -67.716       -7.996      -12.617       19.508       19.921       12.848      380.558      396.837      165.082        0.288        0.047       68.187       11.816        0.030      331.798        0.044      868.833
01/04/2014  22:02:00      -39.957      -29.620      -10.480       14.941       12.674        8.542      223.230      160.628       72.960        0.152        0.023       49.739        3.622        0.005      331.769       -0.003      868.840
01/04/2014  22:03:00      -30.021      -13.630       -8.164       17.335       16.545       15.863      300.492      273.745      251.633        0.099        0.041       32.970        9.802        0.088      331.710       -0.099      868.854
01/04/2014  22:04:00      -18.474       -0.348       -2.512       23.707       20.359       13.686      562.033      414.470      187.313        0.076        0.058       18.477       10.378        0.315      331.914        0.237      868.860
01/04/2014  22:05:00      -35.796      -14.688       -7.940       10.044       10.306        6.664      100.883      106.219       44.416        0.091        0.013       38.692        3.298        0.007      331.716       -0.088      868.871
01/04/2014  22:06:00      -38.349       -4.033      -10.257        9.616        8.358        7.582       92.475       69.856       57.491        0.091        0.011       38.560        4.902        0.016      331.713       -0.093      868.891
01/04/2014  22:07:00      -19.412       -7.537       -5.802       10.016       11.440        8.534      100.321      130.869       72.821        0.039        0.015       20.824        7.045        0.114      331.836        0.110      868.923
01/04/2014  22:08:00       -5.210       20.639       -7.768       25.257       24.927       12.893      637.907      621.335      166.233        0.097        0.071       21.287       11.308        0.282      331.980        0.345      868.944
01/04/2014  22:09:00        2.450       73.829      -10.622       25.284       20.825       10.357      639.290      433.686      107.266        0.337        0.059       73.870       12.671        0.029      332.263        0.811      868.963
01/04/2014  22:10:00        3.374      101.925      -15.114       15.616       20.963       10.634      243.871      439.428      113.079        0.571        0.040      101.981       11.543        0.013      332.290        0.856      868.980
01/04/2014  22:11:00       10.987       92.139       -9.051       11.733       19.133        7.622      137.673      366.079       58.101        0.463        0.028       92.792        8.144        0.008      332.291        0.856      868.987
01/04/2014  22:12:00        2.812       38.276       -0.392        9.779       21.878       11.374       95.635      478.666      129.376        0.109        0.035       38.379       13.863        0.130      332.110        0.561      868.996
01/04/2014  22:13:00       10.020       -2.787        7.084       10.728       10.220       14.735      115.081      104.451      217.124        0.030        0.022       10.400        7.342        0.498      332.023        0.415      869.011
01/04/2014  22:14:00        1.212        8.258       -1.493        8.889       14.778        9.884       79.017      218.375       97.703        0.023        0.020        8.347       11.076        1.761      332.149        0.625      869.026
01/04/2014  22:15:00      -20.304        1.982       -3.007       18.200       13.499       10.887      331.233      182.214      118.533        0.053        0.032       20.400        8.937        0.192      332.086        0.520      869.039
01/04/2014  22:16:00      -30.041       52.923       -9.261       43.062       28.972       15.706     1854.294      839.403      246.680        0.336        0.147       60.855        8.420        0.019      332.278        0.837      869.046
01/04/2014  22:17:00      -21.221       80.697       -8.431       26.401       21.330       17.970      697.011      454.988      322.909        0.425        0.074       83.441       13.877        0.028      332.506        1.213      869.053
01/04/2014  22:18:00       -8.210       81.172       -7.795       24.368       25.655       17.091      593.799      658.161      292.092        0.413        0.077       81.586       15.493        0.036      332.503        1.207      869.053
01/04/2014  22:19:00      -10.926       85.954       -8.681       21.378       30.798       14.630      457.039      948.487      214.028        0.460        0.081       86.645       13.437        0.024      332.614        1.389      869.050
01/04/2014  22:20:00       10.256      109.134      -14.238       30.581       32.258       15.709      935.200     1040.605      246.765        0.722        0.111      109.615       16.467        0.023      332.664        1.474      869.050
01/04/2014  22:21:00       25.450      116.900      -16.880       20.080       21.916       12.779      403.192      480.294      163.314        0.782        0.052      119.638       11.101        0.009      332.696        1.528      869.046
01/04/2014  22:22:00       -2.195       96.563      -13.880       14.195       20.948        7.616      201.498      438.825       58.005        0.511        0.035       96.588        6.647        0.005      332.616        1.394      869.042
01/04/2014  22:23:00      -11.381       97.290       -9.942       22.711       27.839       12.808      515.792      774.995      164.053        0.557        0.073       97.953       12.603        0.017      332.651        1.453      869.039
01/04/2014  22:24:00      -24.787       20.122       -7.265       32.655       36.144       15.148     1066.349     1306.409      229.475        0.184        0.130       31.927       12.009        0.141      332.232        0.762      869.037
01/04/2014  22:25:00        7.893       27.365       -6.170       37.649       40.140       16.697     1417.449     1611.233      278.789        0.208        0.165       28.481       22.402        0.619      332.355        0.963      869.041
01/04/2014  22:26:00       17.176       39.594       -0.182       27.243       40.675       20.904      742.165     1654.435      436.980        0.235        0.142       43.159       27.080        0.394      332.400        1.038      869.041
01/04/2014  22:27:00        4.752        3.708       12.751       11.954        8.835        7.691      142.909       78.060       59.158        0.024        0.014        6.028        4.485        0.554      332.149        0.623      869.042
01/04/2014  22:28:00       -0.997       -1.194       -0.738       19.725        8.548       10.220      389.090       73.067      104.439        0.028        0.028        1.556       10.027       41.534      332.176        0.670      869.044
01/04/2014  22:29:00       -1.554        5.662        5.215       14.849        9.260        7.503      220.489       85.744       56.295        0.021        0.018        5.872        6.836        1.355      332.092        0.529      869.057
01/04/2014  22:30:00       -4.871       -2.234       -0.347        8.596        8.123        5.224       73.893       65.977       27.290        0.010        0.008        5.359        3.784        0.499      332.118        0.573      869.060
01/04/2014  22:31:00      -12.662      -18.064        3.350       19.637       14.453       10.451      385.631      208.899      109.226        0.060        0.035       22.059        7.575        0.118      332.083        0.517      869.067
01/04/2014  22:32:00      -47.667      -33.802       -8.282       12.952       11.630        8.629      167.758      135.267       74.452        0.193        0.019       58.436        4.331        0.005      331.709       -0.100      869.076
01/04/2014  22:33:00      -60.619      -36.924       -9.912       20.570       19.456       13.703      423.143      378.518      187.781        0.306        0.049       70.979        6.698        0.009      331.576       -0.320      869.092
01/04/2014  22:34:00      -53.982      -54.148        1.551       24.214       26.585       13.695      586.300      706.738      187.558        0.366        0.074       76.459        4.451        0.003      331.839        0.113      869.104
01/04/2014  22:35:00      -92.641      -31.063       -5.593       16.388       24.591       14.032      268.566      604.717      196.891        0.532        0.054       97.710        6.914        0.005      331.845        0.123      869.113
01/04/2014  22:36:00      -39.248      -36.815       -2.907       28.870       24.140       20.921      833.481      582.745      437.703        0.238        0.093       53.812       18.654        0.120      331.662       -0.179      869.120
01/04/2014  22:37:00      -88.454      -45.210       -7.107       29.925       26.924       22.555      895.489      724.915      508.710        0.602        0.106       99.338       10.522        0.011      331.537       -0.385      869.101
01/04/2014  22:38:00     -109.024      -58.029      -10.165       30.393       26.026       15.958      923.727      677.351      254.665        0.861        0.093      123.506       11.330        0.008      331.497       -0.450      869.087
01/04/2014  22:39:00     -117.203      -32.006      -23.951       10.960       13.170        8.384      120.114      173.436       70.291        0.785        0.018      121.495        6.259        0.003      331.487       -0.468      869.060
01/04/2014  22:40:00      -85.395      -17.073      -15.726       18.919       18.662       17.343      357.922      348.287      300.766        0.442        0.050       87.085       12.551        0.021      331.468       -0.500      869.037
01/04/2014  22:41:00      -87.336      -11.051      -15.010       15.710       15.079       11.854      246.809      227.370      140.507        0.429        0.031       88.032        8.332        0.009      331.521       -0.411      869.025
01/04/2014  22:42:00     -101.148      -10.008      -16.752       11.263       14.140       11.421      126.853      199.949      130.435        0.553        0.023      101.642        6.555        0.004      331.507       -0.433      869.019
01/04/2014  22:43:00      -82.665      -20.668      -16.159        8.291       11.200       10.573       68.737      125.441      111.788        0.391        0.015       85.209        6.636        0.006      331.493       -0.457      869.020
01/04/2014  22:44:00      -72.913      -32.905      -19.269        6.544        7.973        5.704       42.819       63.567       32.537        0.345        0.007       79.994        4.768        0.004      331.543       -0.374      869.021
01/04/2014  22:45:00      -77.895      -47.325      -12.527        8.285       10.260        7.238       68.649      105.272       52.394        0.435        0.011       91.144        3.875        0.002      331.533       -0.390      869.018
01/04/2014  22:46:00      -78.364      -30.287      -15.011       10.807        9.889        6.937      116.782       97.785       48.117        0.377        0.013       84.014        3.736        0.002      331.469       -0.497      869.024
01/04/2014  22:47:00      -91.637      -26.969      -17.207       13.007       17.684       12.611      169.180      312.712      159.041        0.503        0.032       95.523        7.658        0.006      331.399       -0.613      869.031
01/04/2014  22:48:00      -94.052      -41.471      -14.144        9.630       11.627       10.627       92.727      135.180      112.942        0.555        0.017      102.789        3.501        0.001      331.300       -0.774      869.031
01/04/2014  22:49:00      -94.127      -52.504      -18.053       15.063       17.999       11.764      226.888      323.961      138.383        0.632        0.034      107.780       11.005        0.010      331.338       -0.711      869.020
01/04/2014  22:50:00     -115.086      -37.610      -13.004        8.568       14.017        8.472       73.408      196.470       71.775        0.758        0.017      121.075        3.750        0.001      331.367       -0.661      869.008
01/04/2014  22:51:00      -96.646      -11.970       -9.812       16.535        9.758       11.956      273.410       95.225      142.941        0.505        0.026       97.385        9.405        0.009      331.398       -0.614      869.011
01/04/2014  22:52:00      -82.687      -20.580      -10.604        7.894        8.564        6.341       62.319       73.341       40.214        0.377        0.009       85.209        2.787        0.001      331.479       -0.478      869.029
01/04/2014  22:53:00      -69.868      -26.286      -13.089       14.493       16.127       12.943      210.040      260.087      167.516        0.319        0.032       74.650        8.991        0.015      331.491       -0.461      869.043
01/04/2014  22:54:00      -99.463      -36.115      -12.360       15.194       13.464       12.718      230.865      181.274      161.749        0.596        0.029      105.817        9.653        0.008      331.550       -0.363      869.050
01/04/2014  22:55:00      -57.658      -21.837       -4.119       27.817       14.848        8.260      773.761      220.462       68.220        0.244        0.053       61.654        8.929        0.021      331.512       -0.425      869.062
01/04/2014  22:56:00      -33.731      -29.184        4.355       16.468       10.384       12.187      271.200      107.832      148.518        0.127        0.026       44.603       11.830        0.070      331.482       -0.475      869.082
01/04/2014  22:57:00      -38.123      -24.202       -8.612       23.828        9.937        5.999      567.783       98.744       35.988        0.141        0.035       45.156        5.604        0.015      331.585       -0.305      869.101
01/04/2014  22:58:00      -69.823      -30.979      -10.636        6.674        7.079        4.368       44.544       50.107       19.080        0.303        0.006       76.387        1.632        0.000      331.582       -0.311      869.108
01/04/2014  22:59:00      -66.201      -31.457       -4.134       12.238        7.776        7.934      149.774       60.466       62.951        0.283        0.014       73.295        2.533        0.001      331.534       -0.388      869.110
01/04/2014  23:00:00      -67.259      -33.610       -8.128        9.452       10.080        6.752       89.349      101.604       45.596        0.298        0.012       75.189        5.413        0.005      331.493       -0.457      869.106
01/04/2014  23:01:00      -81.224      -48.793       -9.224       10.814       10.444        9.458      116.937      109.076       89.449        0.469        0.016       94.753        4.301        0.002      331.437       -0.548      869.103
01/04/2014  23:02:00      -93.385      -54.200       -5.666       20.481       21.207       12.511      419.453      449.737      156.519        0.636        0.051      107.974        7.246        0.005      331.313       -0.752      869.097
01/04/2014  23:03:00      -86.314      -44.246       -4.196       40.196       27.311       15.348     1615.698      745.876      235.558        0.601        0.130       96.994       14.331        0.022      331.305       -0.766      869.099
01/04/2014  23:04:00      -54.215      -49.539        6.241       21.457       25.934       15.838      460.388      672.590      250.857        0.341        0.069       73.440       11.330        0.024      331.467       -0.499      869.102
01/04/2014  23:05:00      -10.800      -63.118        2.008       25.579       28.596       15.510      654.273      817.711      240.552        0.291        0.086       64.035        8.273        0.017      331.559       -0.349      869.116
01/04/2014  23:06:00      -63.490      -55.409       -3.092       29.944       28.747       17.282      896.632      826.366      298.681        0.457        0.101       84.268       10.686        0.016      331.454       -0.521      869.127
01/04/2014  23:07:00      -85.519      -39.977       -2.054       31.510       27.115       23.735      992.884      735.210      563.366        0.560        0.115       94.402       18.443        0.038      331.308       -0.760      869.139
01/04/2014  23:08:00      -79.922      -55.986       -6.507       34.132       25.430       16.011     1165.021      646.661      256.358        0.582        0.103       97.581       13.843        0.020      331.263       -0.834      869.152
01/04/2014  23:09:00      -95.191      -40.752       -3.657       24.749       19.088       16.192      612.518      364.365      262.197        0.599        0.062      103.547       14.143        0.019      331.211       -0.919      869.172
01/04/2014  23:10:00     -110.605      -46.624       -7.225       25.320       19.538       13.505      641.094      381.748      182.392        0.783        0.060      120.031        8.232        0.005      331.200       -0.939      869.180
01/04/2014  23:11:00     -127.633      -36.693      -11.234       23.620       16.647       17.213      557.902      277.131      296.278        0.945        0.057      132.803        9.224        0.005      331.210       -0.920      869.185
01/04/2014  23:12:00     -104.464      -40.823       -6.271       22.279       18.479       10.295      496.361      341.488      105.982        0.678        0.047      112.157       10.314        0.008      331.200       -0.938      869.182
01/04/2014  23:13:00      -53.775      -27.485       -5.780       12.893       18.527       10.701      166.218      343.233      114.517        0.215        0.031       60.392        7.458        0.015      331.214       -0.914      869.175
01/04/2014  23:14:00      -58.054       -5.512       -9.003       10.698        9.403        7.499      114.443       88.421       56.229        0.187        0.013       58.315        4.709        0.007      331.264       -0.831      869.176
01/04/2014  23:15:00      -72.765        2.627       -8.139        9.537       11.391       10.047       90.948      129.749      100.950        0.284        0.016       72.812        4.314        0.004      331.247       -0.859      869.177
01/04/2014  23:16:00      -72.647        1.422       -9.847       14.068       14.166       14.087      197.907      200.666      198.451        0.299        0.030       72.661       10.544        0.021      331.314       -0.749      869.179
01/04/2014  23:17:00      -53.337      -15.183       -7.312       14.582       13.097       12.857      212.638      171.538      165.298        0.184        0.027       55.456       10.865        0.038      331.384       -0.636      869.188
01/04/2014  23:18:00      -38.869      -18.721       -3.457       17.147       12.848       10.355      294.023      165.072      107.216        0.122        0.028       43.142       10.801        0.063      331.390       -0.626      869.196
01/04/2014  23:19:00      -33.671      -17.229       -4.722        8.840       13.042        8.119       78.150      170.100       65.912        0.088        0.016       37.823        4.005        0.011      331.306       -0.764      869.202
01/04/2014  23:20:00      -37.176        0.018       -2.743        7.737       13.072        8.405       59.855      170.885       70.638        0.085        0.015       37.176        5.552        0.022      331.257       -0.843      869.219
01/04/2014  23:21:00       -2.765       22.024       -2.810       24.515       30.805       10.940      600.977      948.924      119.682        0.108        0.083       22.196       12.592        0.322      331.317       -0.746      869.238
01/04/2014  23:22:00        3.716      126.390      -12.089       15.447       41.600       12.232      238.605     1730.542      149.619        0.913        0.106      126.444        9.723        0.006      331.498       -0.449      869.251
01/04/2014  23:23:00       -1.490      150.728      -20.673        7.371       17.565        8.158       54.333      308.517       66.545        1.179        0.021      150.736        5.106        0.001      331.601       -0.282      869.254
01/04/2014  23:24:00       -0.510      134.183      -17.725       11.765       15.416        9.027      138.418      237.666       81.487        0.939        0.023      134.184        5.302        0.002      331.412       -0.588      869.246
01/04/2014  23:25:00      -12.992      153.242      -19.274       11.276       14.010        7.155      127.147      196.276       51.190        1.220        0.019      153.792        4.546        0.001      331.390       -0.627      869.233
01/04/2014  23:26:00      -24.404      137.944      -19.924       13.107       11.339        7.820      171.781      128.566       61.150        1.019        0.018      140.086        6.587        0.002      331.441       -0.543      869.217
01/04/2014  23:27:00      -34.875      134.236      -18.492       10.846       14.511        8.419      117.645      210.565       70.871        0.999        0.020      138.692        4.675        0.001      331.512       -0.425      869.203
01/04/2014  23:28:00      -25.382      117.561      -17.310       15.624       17.203       12.811      244.113      295.954      164.119        0.773        0.035      120.270        8.454        0.005      331.843        0.120      869.204
01/04/2014  23:29:00      -35.978        5.820       -4.380       12.742       26.965       13.393      162.370      727.118      179.381        0.121        0.053       36.445        6.131        0.028      331.354       -0.685      869.217
01/04/2014  23:30:00      -59.691      -18.548      -12.606        8.746        8.652        7.324       76.492       74.857       53.644        0.214        0.010       62.506        2.502        0.002      331.039       -1.205      869.228
01/04/2014  23:31:00      -66.405      -31.306      -14.448       13.073       13.060        9.810      170.915      170.572       96.243        0.302        0.022       73.415        4.408        0.004      330.967       -1.322      869.231
01/04/2014  23:32:00     -101.148      -31.970      -11.398       17.465       11.782        9.791      305.016      138.823       95.867        0.596        0.027      106.080        7.685        0.005      330.924       -1.393      869.235
01/04/2014  23:33:00     -118.756      -29.208      -20.429        8.114       11.367        8.224       65.829      129.219       67.628        0.782        0.013      122.295        2.471        0.000      330.918       -1.401      869.234
01/04/2014  23:34:00      -90.205      -39.289      -15.760       17.186       20.938        9.594      295.346      438.415       92.036        0.538        0.041       98.390        8.909        0.008      330.925       -1.389      869.243
01/04/2014  23:35:00      -87.717       -4.807      -10.770       26.493       17.935       15.565      701.866      321.673      242.284        0.455        0.063       87.849        9.793        0.012      330.924       -1.391      869.247
01/04/2014  23:36:00      -80.803       11.592      -10.486       28.048       16.971       15.362      786.679      288.005      235.998        0.404        0.066       81.630       11.612        0.020      330.936       -1.371      869.247
01/04/2014  23:37:00      -61.456      -18.001      -14.152       13.545       14.706       10.293      183.455      216.272      105.941        0.240        0.025       64.038        9.298        0.021      330.998       -1.270      869.248
01/04/2014  23:38:00      -52.475      -18.137       -6.671        9.916       14.439       10.749       98.335      208.483      115.532        0.177        0.021       55.521        4.813        0.008      331.072       -1.150      869.246
01/04/2014  23:39:00      -61.933      -13.776      -13.493       11.982       14.981       10.453      143.560      224.420      109.262        0.234        0.024       63.447        8.182        0.017      331.082       -1.133      869.264
01/04/2014  23:40:00      -79.074      -20.467      -14.408       18.139       13.627       12.685      329.008      185.707      160.909        0.378        0.034       81.680       10.296        0.016      330.981       -1.299      869.276
01/04/2014  23:41:00      -88.020      -31.855      -16.385       32.614       25.588       13.902     1063.676      654.731      193.266        0.547        0.096       93.607       15.545        0.028      330.925       -1.390      869.279
01/04/2014  23:42:00      -70.035      -55.463      -10.258       18.005       20.972       18.150      324.182      439.808      329.437        0.459        0.055       89.337       11.603        0.017      330.873       -1.476      869.285
01/04/2014  23:43:00      -61.634      -54.786       -6.361       22.578       20.169       13.715      509.757      406.780      188.109        0.397        0.055       82.463        8.951        0.012      330.917       -1.403      869.291
01/04/2014  23:44:00     -120.890      -54.160      -12.327       13.665       16.876       13.475      186.731      284.798      181.571        0.918        0.033      132.468        7.954        0.004      330.895       -1.439      869.275
01/04/2014  23:45:00     -155.409      -34.300      -15.141       18.750       19.292       15.049      351.546      372.170      226.478        1.325        0.048      159.150       11.270        0.005      330.852       -1.509      869.262
01/04/2014  23:46:00     -128.351      -42.075       -9.061       28.535       25.661       20.225      814.240      658.468      409.052        1.010        0.094      135.072       16.461        0.015      330.892       -1.444      869.259
01/04/2014  23:47:00     -146.789      -37.948      -10.375       16.360       16.257       14.757      267.652      264.284      217.780        1.192        0.037      151.615        7.613        0.003      330.810       -1.577      869.265
01/04/2014  23:48:00     -125.360      -38.792      -12.771       18.367       26.767       16.203      337.359      716.447      262.524        0.935        0.066      131.225        9.393        0.005      330.814       -1.572      869.258
01/04/2014  23:49:00      -88.357      -21.315       -1.998       38.653       31.893       20.866     1494.082     1017.146      435.383        0.561        0.147       90.892       18.927        0.043      330.848       -1.518      869.260
01/04/2014  23:50:00      -80.048        3.867       -5.946       55.053       48.068       26.426     3030.871     2310.565      698.314        0.625        0.302       80.142       24.712        0.095      330.874       -1.473      869.251
01/04/2014  23:51:00      -90.815       -6.895       -9.899       40.108       45.779       22.359     1608.692     2095.762      499.919        0.630        0.210       91.076       20.186        0.049      330.801       -1.593      869.260
01/04/2014  23:52:00      -54.085       17.738       -8.734       37.708       36.864       20.658     1421.869     1358.972      426.763        0.326        0.160       56.919       19.321        0.115      330.827       -1.552      869.258
01/04/2014  23:53:00      -48.702        5.756      -15.901       27.919       30.921       22.884      779.477      956.131      523.658        0.246        0.113       49.041       13.465        0.075      330.840       -1.528      869.258
01/04/2014  23:54:00      -41.690       -0.928      -13.092       29.356       15.781       14.806      861.798      249.029      219.229        0.162        0.067       41.701       10.030        0.058      330.895       -1.437      869.262
01/04/2014  23:55:00      -51.831       11.725      -16.340       23.918       22.857       16.777      572.055      522.431      281.457        0.223        0.069       53.140        9.244        0.030      330.961       -1.329      869.282
01/04/2014  23:56:00      -76.556        5.027       -9.629       26.717       22.179       15.419      713.787      491.916      237.755        0.371        0.072       76.721       12.560        0.027      331.050       -1.186      869.286
01/04/2014  23:57:00      -45.247       -2.515       -4.798       34.167       21.165       14.015     1167.404      447.965      196.427        0.194        0.091       45.317       15.479        0.117      330.948       -1.351      869.282
01/04/2014  23:58:00      -74.549      -14.280      -12.337       26.453       25.297       16.617      699.737      639.946      276.119        0.376        0.081       75.904       13.900        0.034      330.951       -1.349      869.290
01/04/2014  23:59:00      -39.521       -3.758       -6.898       17.927       18.237       15.155      321.388      332.573      229.670        0.125        0.044       39.699        6.465        0.027      330.961       -1.331      869.301
